[[{"header":{"parameterUnit":"m.s-1","parameterCategory":1,"la1":31.0,"la2":29.5877,"lo1":-88.7671,"lo2":-86.6584,"dy":0.0162,"dx":0.0185,"nx":115,"ny":88,"refTime":"2023-07-20T00:00:00:Z","depth":0,"parameterNumber":2,"parameterNumberName":"U-component_of_WINDS"},"data":[0.0,0.0,0.0,0.0,0.0,0.0,0.0,0.0,0.0,0.0,0.0,0.0,0.0,0.0,0.0,0.0,0.0,0.0,0.0,0.0,0.0,0.0,0.0,0.0,0.0,0.0,0.0,0.0,0.0,0.0,0.0,0.0,0.0,0.0,0.0,0.0,0.0,0.0,0.0,0.0,0.0,0.0,0.0,0.0,0.0,0.0,0.0,0.0,0.0,0.0,0.0,0.0,0.0,0.0,0.0,0.0,0.0,0.0,0.0,0.0,0.0,0.0,0.0,0.0,0.0,0.0,0.0,0.0,0.0,0.0,0.0,0.0,0.0,0.0,0.0,0.0,0.0,0.0,0.0,0.0,0.0,0.0,0.0,0.0,0.0,0.0,0.0,0.0,0.0,0.0,0.0,0.0,0.0,0.0,0.0,0.0,0.0,0.0,0.0,0.0,0.0,0.0,0.0,0.0,0.0,0.0,0.0,0.0,0.0,0.0,0.0,0.0,0.0,0.0,0.0,0.0,0.0,0.0,0.0,0.0,0.0,0.0,0.0,0.0,0.0,0.0,0.0,0.0,0.0,0.0,0.0,0.0,0.0,0.0,0.0,0.0,0.0,0.0,0.0,0.0,0.0,0.0,0.0,0.0,0.0,0.0,0.0,0.0,0.0,0.0,0.0,0.0,0.0,0.0,0.0,0.0,0.0,0.0,0.0,0.0,0.0,0.0,0.0,0.0,0.0,0.0,0.0,0.0,0.0,0.0,0.0,0.0,0.0,0.0,0.0,0.0,0.0,0.0,0.0,0.0,0.0,0.0,0.0,0.0,0.0,0.0,0.0,0.0,0.0,0.0,0.0,0.0,0.0,0.0,0.0,0.0,0.0,0.0,0.0,0.0,0.0,0.0,0.0,0.0,0.0,0.0,0.0,0.0,0.0,0.0,0.0,0.0,0.0,0.0,0.0,0.0,0.0,0.0,0.0,0.0,0.0,0.0,0.0,0.0,0.0,0.0,0.0,0.0,0.0,0.0,0.0,0.0,0.0,0.0,0.0,0.0,0.0,0.0,0.0,0.0,0.0,0.0,0.0,0.0,0.0,0.0,0.0,0.0,0.0,0.0,0.0,0.0,0.0,0.0,0.0,0.0,0.0,0.0,0.0,0.0,0.0,0.0,0.0,0.0,0.0,0.0,0.0,0.0,0.0,0.0,0.0,0.0,0.0,0.0,0.0,0.0,0.0,0.0,0.0,0.0,0.0,0.0,0.0,0.0,0.0,0.0,0.0,0.0,0.0,0.0,0.0,0.0,0.0,0.0,0.0,0.0,0.0,0.0,0.0,0.0,0.0,0.0,0.0,0.0,0.0,0.0,0.0,0.0,0.0,0.0,0.0,0.0,0.0,0.0,0.0,0.0,0.0,0.0,0.0,0.0,0.0,0.0,0.0,0.0,0.0,0.0,0.0,0.0,0.0,0.0,0.0,0.0,0.0,0.0,0.0,0.0,0.0,0.0,0.0,0.0,0.0,0.0,0.0,0.0,0.0,0.0,0.0,0.0,0.0,0.0,0.0,0.0,0.0,0.0,0.0,0.0,0.0,0.0,0.0,0.0,0.0,0.0,0.0,0.0,0.0,0.0,0.0,0.0,0.0,0.0,0.0,0.0,0.0,0.0,0.0,0.0,0.0,0.0,0.0,0.0,0.0,0.0,0.0,0.0,0.0,0.0,0.0,0.0,0.0,0.0,0.0,0.0,0.0,0.0,0.0,0.0,0.0,0.0,0.0,0.0,0.0,0.0,0.0,0.0,0.0,0.0,0.0,0.0,0.0,0.0,0.0,0.0,0.0,0.0,0.0,0.0,0.0,0.0,0.0,0.0,0.0,0.0,0.0,0.0,0.0,0.0,0.0,0.0,0.0,0.0,0.0,0.0,0.0,0.0,0.0,0.0,0.0,0.0,0.0,0.0,0.0,0.0,0.0,0.0,0.0,0.0,0.0,0.0,0.0,0.0,0.0,0.0,0.0,0.0,0.0,0.0,0.0,0.0,0.0,0.0,0.0,0.0,0.0,0.0,0.0,0.0,0.0,0.0,0.0,0.0,0.0,0.0,0.0,0.0,0.0,0.0,0.0,0.0,0.0,0.0,0.0,0.0,0.0,0.0,0.0,0.0,0.0,0.0,0.0,0.0,0.0,0.0,0.0,0.0,0.0,0.0,0.0,0.0,0.0,0.0,0.0,0.0,0.0,0.0,0.0,0.0,0.0,0.0,0.0,0.0,0.0,0.0,0.0,0.0,0.0,0.0,0.0,0.0,0.0,0.0,0.0,0.0,0.0,0.0,0.0,0.0,0.0,0.0,0.0,0.0,0.0,0.0,0.0,0.0,0.0,0.0,0.0,0.0,0.0,0.0,0.0,0.0,0.0,0.0,0.0,0.0,0.0,0.0,0.0,0.0,0.0,0.0,0.0,0.0,0.0,0.0,0.0,0.0,0.0,0.0,0.0,0.0,0.0,0.0,0.0,0.0,0.0,0.0,0.0,0.0,0.0,0.0,0.0,0.0,0.0,0.0,0.0,0.0,0.0,0.0,0.0,0.0,0.0,0.0,0.0,0.0,0.0,0.0,0.0,0.0,0.0,0.0,0.0,0.0,0.0,0.0,0.0,0.0,0.0,0.0,0.0,0.0,0.0,0.0,0.0,0.0,0.0,0.0,0.0,0.0,0.0,0.0,0.0,0.0,0.0,0.0,0.0,0.0,0.0,0.0,0.0,0.0,0.0,0.0,0.0,0.0,0.0,0.0,0.0,0.0,0.0,0.0,0.0,0.0,0.0,0.0,0.0,0.0,0.0,0.0,0.0,0.0,0.0,0.0,0.0,0.0,0.0,0.0,0.0,0.0,0.0,0.0,0.0,0.0,0.0,0.0,0.0,0.0,0.0,0.0,0.0,0.0,0.0,0.0,0.0,0.0,0.0,0.0,0.0,0.0,0.0,0.0,0.0,0.0,0.0,0.0,0.0,0.0,0.0,0.0,0.0,0.0,0.0,0.0,0.0,0.0,0.0,0.0,0.0,0.0,0.0,0.0,0.0,0.0,0.0,0.0,0.0,0.0,0.0,0.0,0.0,0.0,0.0,0.0,0.0,0.0,0.0,0.0,0.0,0.0,0.0,0.0,0.0,0.0,0.0,0.0,0.0,0.0,0.0,0.0,0.0,0.0,0.0,0.0,0.0,0.0,0.0,0.0,0.0,0.0,0.0,0.0,0.0,0.0,0.0,0.0,0.0,0.0,0.0,0.0,0.0,0.0,0.0,0.0,0.0,0.0,0.0,0.0,0.0,0.0,0.0,0.0,0.0,0.0,0.0,0.0,0.0,0.0,0.0,0.0,0.0,0.0,0.0,0.0,0.0,0.0,0.0,0.0,0.0,0.0,0.0,0.0,0.0,0.0,0.0,0.0,0.0,0.0,0.0,0.0,0.0,0.0,0.0,0.0,0.0,0.0,0.0,0.0,0.0,0.0,0.0,0.0,0.0,0.0,0.0,0.0,0.0,0.0,0.0,0.0,0.0,0.0,0.0,0.0,0.0,0.0,0.0,0.0,0.0,0.0,0.0,0.0,0.0,0.0,0.0,0.0,0.0,0.0,0.0,0.0,0.0,0.0,0.0,0.0,0.0,0.0,0.0,0.0,0.0,0.0,0.0,0.0,0.0,0.0,0.0,0.0,0.0,0.0,0.0,0.0,0.0,0.0,0.0,0.0,0.0,0.0,0.0,0.0,0.0,0.0,0.0,0.0,0.0,0.0,0.0,0.0,0.0,0.0,0.0,0.0,0.0,0.0,0.0,0.0,0.0,0.0,0.0,0.0,0.0,0.0,0.0,0.0,0.0,0.0,0.0,0.0,0.0,0.0,0.0,0.0,0.0,0.0,0.0,0.0,0.0,0.0,0.0,0.0,0.0,0.0,0.0,0.0,0.0,0.0,0.0,0.0,0.0,0.0,0.0,0.0,0.0,0.0,0.0,0.0,0.0,0.0,0.0,0.0,0.0,0.0,0.0,0.0,0.0,0.0,0.0,0.0,0.0,0.0,0.0,0.0,0.0,0.0,0.0,0.0,0.0,0.0,0.0,0.0,0.0,0.0,0.0,0.0,0.0,0.0,0.0,0.0,0.0,0.0,0.0,0.0,0.0,0.0,0.0,0.0,0.0,0.0,0.0,0.0,0.0,0.0,0.0,0.0,0.0,0.0,0.0,0.0,0.0,0.0,0.0,0.0,0.0,0.0,0.0,0.0,0.0,0.0,-0.5529,0.0,0.0,0.0,0.0,0.0,0.0,0.0,0.0,0.0,0.0,0.0,0.0,0.0,0.0,0.0,0.0,0.0,0.0,0.0,0.0,0.0,0.0,0.0,0.0,0.0,0.0,0.0,0.0,0.0,0.0,0.0,0.0,0.0,0.0,0.0,0.0,0.0,0.0,0.0,0.0,0.0,0.0,0.0,0.0,0.0,0.0,0.0,0.0,0.0,0.0,0.0,0.0,0.0,0.0,0.0,0.0,0.0,0.0,0.0,0.0,0.0,0.0,0.0,0.0,0.0,0.0,0.0,0.0,0.0,0.0,0.0,0.0,0.0,0.0,0.0,0.0,0.0,0.0,0.0,0.0,0.0,0.0,0.0,0.0,0.0,0.0,0.0,0.0,0.0,0.0,0.0,0.0,0.0,0.0,0.0,0.0,0.0,0.0,0.0,0.0,0.0,0.0,0.0,0.0,0.0,0.0,0.0,0.0,0.0,0.0,-0.5377,-0.5246,-0.5397,-0.5547,-0.5742,0.0,0.0,0.0,0.0,0.0,0.0,0.0,0.0,0.0,0.0,0.0,0.0,0.0,0.0,0.0,0.0,0.0,0.0,0.0,0.0,0.0,0.0,0.0,0.0,0.0,0.0,0.0,0.0,0.0,0.0,0.0,0.0,0.0,0.0,0.0,0.0,0.0,0.0,0.0,0.0,0.0,0.0,0.0,0.0,0.0,0.0,0.0,0.0,0.0,0.0,0.0,0.0,0.0,0.0,0.0,0.0,0.0,0.0,0.0,0.0,0.0,0.0,0.0,0.0,0.0,0.0,0.0,0.0,0.0,0.0,0.0,0.0,0.0,0.0,0.0,0.0,0.0,0.0,0.0,0.0,0.0,0.0,0.0,0.0,0.0,0.0,0.0,0.0,0.0,0.0,0.0,0.0,0.0,0.0,0.0,0.0,0.0,0.0,0.0,0.0,0.0,0.0,0.0,0.0,0.0,0.0,0.0,0.0,0.0,0.0,0.0,0.0,-0.5498,-0.5655,-0.5835,0.0,0.0,0.0,0.0,0.0,0.0,0.0,0.0,0.0,0.0,0.0,0.0,0.0,0.0,0.0,0.0,0.0,0.0,0.0,0.0,0.0,0.0,0.0,0.0,0.0,0.0,0.0,0.0,0.0,0.0,0.0,0.0,0.0,0.0,0.0,0.0,0.0,0.0,0.0,0.0,0.0,0.0,0.0,0.0,0.0,0.0,0.0,0.0,0.0,0.0,0.0,0.0,0.0,0.0,0.0,0.0,0.0,0.0,0.0,0.0,0.0,0.0,0.0,0.0,0.0,0.0,0.0,0.0,0.0,0.0,0.0,0.0,0.0,0.0,0.0,0.0,0.0,0.0,0.0,0.0,0.0,0.0,0.0,0.0,0.0,0.0,0.0,0.0,0.0,0.0,0.0,0.0,0.0,0.0,0.0,0.0,0.0,0.0,0.0,0.0,0.0,0.0,0.0,0.0,0.0,0.0,0.0,0.0,0.0,0.0,-0.5715,-0.5421,-0.5599,0.0,-0.5372,0.0,0.0,0.0,0.0,0.0,0.0,0.0,0.0,0.0,0.0,0.0,0.0,0.0,0.0,0.0,0.0,0.0,0.0,0.0,0.0,0.0,0.0,0.0,0.0,0.0,0.0,0.0,0.0,0.0,0.0,0.0,0.0,0.0,0.0,0.0,0.0,0.0,0.0,0.0,0.0,0.0,0.0,0.0,0.0,0.0,0.0,0.0,0.0,0.0,0.0,0.0,0.0,0.0,0.0,0.0,0.0,0.0,0.0,0.0,0.0,0.0,0.0,0.0,0.0,0.0,0.0,0.0,0.0,0.0,0.0,0.0,0.0,0.0,0.0,0.0,0.0,0.0,0.0,0.0,0.0,0.0,0.0,0.0,0.0,0.0,0.0,0.0,0.0,0.0,0.0,0.0,0.0,0.0,0.0,0.0,0.0,0.0,0.0,0.0,0.0,0.0,0.0,0.0,0.0,0.0,0.0,0.0,0.0,0.0,0.0,-0.5727,-0.5648,-0.6176,-0.6145,0.0,0.0,0.0,0.0,0.0,0.0,0.0,0.0,0.0,0.0,0.0,0.0,0.0,0.0,0.0,0.0,0.0,0.0,0.0,0.0,0.0,0.0,0.0,0.0,0.0,0.0,0.0,0.0,0.0,0.0,0.0,0.0,0.0,0.0,0.0,0.0,0.0,0.0,0.0,0.0,0.0,0.0,0.0,0.0,0.0,0.0,0.0,0.0,0.0,0.0,0.0,0.0,0.0,0.0,0.0,0.0,0.0,0.0,0.0,0.0,0.0,0.0,0.0,0.0,0.0,0.0,0.0,0.0,0.0,0.0,0.0,0.0,0.0,0.0,0.0,0.0,0.0,0.0,0.0,0.0,0.0,0.0,0.0,0.0,0.0,0.0,0.0,0.0,0.0,0.0,0.0,0.0,0.0,0.0,0.0,0.0,0.0,0.0,0.0,0.0,0.0,0.0,0.0,0.0,0.0,0.0,0.0,0.0,0.0,0.0,-0.5782,-0.5844,-0.5866,-0.639,-0.6437,-0.5863,0.0,0.0,0.0,0.0,0.0,0.0,0.0,0.0,0.0,0.0,0.0,0.0,0.0,0.0,0.0,0.0,0.0,0.0,0.0,0.0,0.0,0.0,0.0,0.0,0.0,0.0,0.0,0.0,0.0,0.0,0.0,0.0,0.0,0.0,0.0,0.0,0.0,0.0,0.0,0.0,0.0,0.0,0.0,0.0,0.0,0.0,0.0,0.0,0.0,0.0,0.0,0.0,0.0,0.0,0.0,0.0,0.0,0.0,0.0,0.0,0.0,0.0,0.0,0.0,0.0,0.0,0.0,0.0,0.0,0.0,0.0,0.0,0.0,0.0,0.0,0.0,0.0,0.0,0.0,0.0,0.0,0.0,0.0,0.0,0.0,0.0,0.0,0.0,0.0,0.0,0.0,0.0,0.0,0.0,0.0,0.0,0.0,0.0,0.0,0.0,0.0,0.0,0.0,0.0,0.0,0.0,0.0,0.0,-0.5865,-0.6014,-0.6037,-0.6029,-0.5974,-0.609,0.0,0.0,0.0,0.0,0.0,0.0,0.0,0.0,0.0,0.0,0.0,0.0,0.0,0.0,0.0,0.0,0.0,0.0,0.0,0.0,0.0,0.0,0.0,0.0,0.0,0.0,0.0,0.0,0.0,0.0,0.0,0.0,0.0,0.0,0.0,0.0,0.0,0.0,0.0,0.0,0.0,0.0,0.0,0.0,0.0,0.0,0.0,0.0,0.0,0.0,0.0,0.0,0.0,0.0,0.0,0.0,0.0,0.0,0.0,0.0,0.0,0.0,0.0,0.0,0.0,0.0,0.0,0.0,0.0,0.0,0.0,0.0,0.0,0.0,0.0,0.0,0.0,0.0,0.0,0.0,0.0,0.0,0.0,0.0,0.0,0.0,0.0,0.0,0.0,0.0,0.0,0.0,0.0,0.0,0.0,0.0,0.0,0.0,0.0,0.0,0.0,0.0,0.0,0.0,0.0,0.0,0.0,0.0,0.0,-0.5881,-0.6229,-0.6557,-0.6829,-0.6587,-0.6323,0.0,0.0,0.0,0.0,0.0,0.0,0.0,0.0,0.0,0.0,0.0,0.0,0.0,0.0,0.0,0.0,0.0,0.0,0.0,0.0,0.0,0.0,0.0,0.0,0.0,0.0,0.0,0.0,0.0,0.0,0.0,0.0,0.0,0.0,0.0,0.0,0.0,0.0,0.0,0.0,0.0,0.0,0.0,0.0,0.0,0.0,0.0,0.0,0.0,0.0,0.0,0.0,0.0,0.0,0.0,0.0,0.0,0.0,0.0,0.0,0.0,0.0,0.0,0.0,0.0,0.0,0.0,0.0,0.0,0.0,0.0,0.0,0.0,0.0,0.0,0.0,0.0,0.0,0.0,0.0,0.0,0.0,0.0,0.0,0.0,0.0,0.0,0.0,0.0,0.0,0.0,0.0,0.0,0.0,0.0,0.0,0.0,0.0,0.0,0.0,0.0,0.0,0.0,0.0,0.0,0.0,0.0,0.0,0.0,-0.5952,0.0,-0.6768,-0.7038,-0.6669,-0.6237,0.0,0.0,0.0,0.0,0.0,0.0,0.0,0.0,0.0,0.0,0.0,0.0,0.0,0.0,0.0,0.0,0.0,0.0,0.0,0.0,0.0,0.0,0.0,0.0,0.0,0.0,0.0,0.0,0.0,0.0,0.0,0.0,0.0,0.0,0.0,0.0,0.0,0.0,0.0,0.0,0.0,0.0,0.0,0.0,0.0,0.0,0.0,0.0,0.0,0.0,0.0,0.0,0.0,0.0,0.0,0.0,0.0,0.0,0.0,0.0,0.0,0.0,0.0,0.0,0.0,0.0,0.0,0.0,0.0,0.0,0.0,0.0,0.0,0.0,0.0,0.0,0.0,0.0,0.0,0.0,0.0,0.0,0.0,0.0,0.0,0.0,0.0,0.0,0.0,0.0,0.0,0.0,0.0,0.0,0.0,0.0,0.0,0.0,0.0,0.0,0.0,0.0,0.0,0.0,0.0,0.0,0.0,0.0,-0.5061,-0.606,-0.6474,-0.6678,-0.6626,-0.626,-0.5866,0.0,0.0,0.0,0.0,0.0,0.0,0.0,0.0,0.0,0.0,0.0,0.0,0.0,0.0,0.0,0.0,0.0,0.0,0.0,0.0,0.0,0.0,0.0,0.0,0.0,0.0,0.0,0.0,0.0,0.0,0.0,0.0,0.0,0.0,0.0,0.0,0.0,0.0,0.0,0.0,0.0,0.0,0.0,0.0,0.0,0.0,0.0,0.0,0.0,0.0,0.0,0.0,0.0,0.0,0.0,0.0,0.0,0.0,0.0,0.0,0.0,0.0,0.0,0.0,0.0,0.0,0.0,0.0,0.0,0.0,0.0,0.0,0.0,0.0,0.0,0.0,0.0,0.0,0.0,0.0,0.0,0.0,0.0,0.0,0.0,0.0,0.0,0.0,0.0,0.0,0.0,0.0,0.0,0.0,0.0,0.0,0.0,0.0,0.0,0.0,0.0,0.0,0.0,0.0,0.0,0.0,0.0,0.0,0.0,-0.6984,-0.7306,-0.753,-0.7608,-0.6832,-0.6213,0.0,0.0,0.0,0.0,0.0,0.0,0.0,0.0,0.0,0.0,0.0,0.0,0.0,0.0,0.0,0.0,0.0,0.0,0.0,0.0,0.0,0.0,0.0,0.0,0.0,0.0,0.0,0.0,0.0,0.0,0.0,0.0,0.0,0.0,0.0,0.0,0.0,0.0,0.0,0.0,0.0,0.0,0.0,0.0,0.0,0.0,0.0,0.0,0.0,0.0,0.0,0.0,0.0,0.0,0.0,0.0,0.0,0.0,0.0,0.0,0.0,0.0,0.0,0.0,0.0,0.0,0.0,0.0,0.0,0.0,0.0,0.0,0.0,0.0,0.0,0.0,0.0,0.0,0.0,0.0,0.0,0.0,0.0,0.0,0.0,0.0,0.0,0.0,0.0,0.0,0.0,0.0,0.0,0.0,0.0,0.0,0.0,0.0,0.0,0.0,0.0,0.0,0.0,0.0,0.0,0.0,0.0,0.0,0.0,-0.736,-0.7691,-0.7888,-0.8033,-0.7305,-0.6657,-0.6191,0.0,0.0,0.0,0.0,0.0,0.0,0.0,0.0,0.0,0.0,0.0,0.0,0.0,0.0,0.0,0.0,0.0,0.0,0.0,0.0,0.0,0.0,0.0,0.0,0.0,0.0,0.0,0.0,0.0,0.0,0.0,0.0,0.0,0.0,0.0,0.0,0.0,0.0,0.0,0.0,0.0,0.0,0.0,0.0,0.0,0.0,0.0,0.0,0.0,0.0,0.0,0.0,0.0,0.0,0.0,0.0,0.0,0.0,0.0,0.0,0.0,0.0,0.0,0.0,0.0,0.0,0.0,0.0,0.0,0.0,0.0,0.0,0.0,0.0,0.0,0.0,0.0,0.0,0.0,0.0,0.0,0.0,0.0,0.0,0.0,0.0,0.0,0.0,0.0,0.0,0.0,0.0,0.0,0.0,0.0,0.0,0.0,0.0,0.0,0.0,0.0,0.0,0.0,0.0,0.0,0.0,0.0,0.0,-0.7412,-0.7616,-0.7786,-0.7921,-0.7605,-0.7171,0.0,0.0,0.0,0.0,0.0,0.0,0.0,0.0,0.0,0.0,0.0,0.0,0.0,0.0,0.0,0.0,0.0,0.0,0.0,0.0,0.0,0.0,0.0,0.0,0.0,0.0,0.0,0.0,0.0,0.0,0.0,0.0,0.0,0.0,0.0,0.0,0.0,0.0,0.0,0.0,0.0,0.0,0.0,0.0,0.0,0.0,0.0,0.0,0.0,0.0,0.0,0.0,0.0,0.0,0.0,0.0,0.0,0.0,0.0,0.0,0.0,0.0,0.0,0.0,0.0,0.0,0.0,0.0,0.0,0.0,0.0,0.0,0.0,0.0,0.0,0.0,0.0,0.0,0.0,0.0,0.0,0.0,0.0,0.0,0.0,0.0,0.0,0.0,0.0,0.0,0.0,0.0,0.0,0.0,0.0,0.0,0.0,0.0,0.0,0.0,0.0,0.0,0.0,0.0,0.0,0.0,0.0,0.0,0.0,-0.7477,-0.7815,-0.8035,-0.8133,-0.7999,-0.7419,0.0,0.0,0.0,0.0,0.0,0.0,0.0,0.0,0.0,0.0,0.0,0.0,0.0,0.0,0.0,0.0,0.0,0.0,0.0,0.0,0.0,0.0,0.0,0.0,0.0,0.0,0.0,0.0,0.0,0.0,0.0,0.0,0.0,0.0,0.0,0.0,0.0,0.0,0.0,0.0,0.0,0.0,0.0,0.0,0.0,0.0,0.0,0.0,0.0,0.0,0.0,0.0,0.0,0.0,0.0,0.0,0.0,0.0,0.0,0.0,0.0,0.0,0.0,0.0,0.0,0.0,0.0,0.0,0.0,0.0,0.0,0.0,0.0,0.0,0.0,0.0,0.0,0.0,0.0,0.0,0.0,0.0,0.0,0.0,0.0,0.0,0.0,0.0,0.0,0.0,0.0,0.0,0.0,0.0,0.0,0.0,0.0,0.0,0.0,0.0,0.0,0.0,0.0,0.0,0.0,0.0,0.0,0.0,-0.6911,-0.7597,-0.7722,-0.7791,-0.7815,-0.8037,-0.7621,0.0,0.0,0.0,0.0,0.0,0.0,0.0,0.0,0.0,0.0,0.0,0.0,0.0,0.0,0.0,0.0,0.0,0.0,0.0,0.0,0.0,0.0,0.0,0.0,0.0,0.0,0.0,0.0,0.0,0.0,0.0,0.0,0.0,0.0,0.0,0.0,0.0,0.0,0.0,0.0,0.0,0.0,0.0,0.0,0.0,0.0,0.0,0.0,0.0,0.0,0.0,0.0,0.0,0.0,0.0,0.0,0.0,0.0,0.0,0.0,0.0,0.0,0.0,0.0,0.0,0.0,0.0,0.0,0.0,0.0,0.0,0.0,0.0,0.0,0.0,0.0,0.0,0.0,0.0,0.0,0.0,0.0,0.0,0.0,0.0,0.0,0.0,0.0,0.0,0.0,0.0,0.0,0.0,0.0,0.0,0.0,0.0,0.0,0.0,0.0,0.0,0.0,0.0,0.0,0.0,0.0,0.0,0.0,-0.6598,-0.765,-0.7399,-0.7263,-0.7283,-0.7913,-0.7756,0.0,0.0,0.0,0.0,0.0,0.0,0.0,0.0,0.0,0.0,0.0,0.0,0.0,0.0,0.0,0.0,0.0,0.0,0.0,0.0,0.0,0.0,0.0,0.0,0.0,0.0,0.0,0.0,0.0,0.0,0.0,0.0,0.0,0.0,0.0,0.0,0.0,0.0,0.0,0.0,0.0,0.0,0.0,0.0,0.0,0.0,0.0,0.0,0.0,0.0,0.0,0.0,0.0,0.0,0.0,0.0,0.0,0.0,0.0,0.0,0.0,0.0,0.0,0.0,0.0,0.0,0.0,0.0,0.0,0.0,0.0,0.0,0.0,0.0,0.0,0.0,0.0,0.0,0.0,0.0,0.0,0.0,0.0,0.0,0.0,0.0,0.0,0.0,0.0,0.0,0.0,0.0,0.0,0.0,0.0,0.0,0.0,0.0,0.0,0.0,0.0,0.0,0.0,0.0,0.0,0.0,0.0,0.0,-0.6649,-0.7056,-0.7035,-0.6928,-0.681,-0.7711,-0.7573,0.0,0.0,0.0,0.0,0.0,0.0,0.0,0.0,0.0,0.0,0.0,0.0,0.0,0.0,0.0,0.0,0.0,0.0,0.0,0.0,0.0,0.0,0.0,0.0,0.0,0.0,0.0,0.0,0.0,0.0,0.0,0.0,0.0,0.0,0.0,0.0,0.0,0.0,0.0,0.0,0.0,0.0,0.0,0.0,0.0,0.0,0.0,0.0,0.036,0.0,0.0,0.0,0.0,0.0,0.0,0.0,0.0,0.0,0.0,0.0,0.0,0.0,0.0,0.0,0.0,0.0,0.0,0.0,0.0,0.0,0.0,0.0,0.0,0.0,0.0,0.0,0.0,0.0,0.0,0.0,0.0,0.0,0.0,0.0,0.0,0.0,0.0,0.0,0.0,0.0,0.0,0.0,0.0,0.0,0.0,0.0,0.0,0.0,0.0,0.0,0.0,0.0,0.0,0.0,0.0,0.0,0.0,0.0,-0.6561,-0.6931,-0.6873,-0.6707,-0.6568,-0.7193,-0.7108,0.0,0.0,0.0,0.0,0.0,0.0,0.0,0.0,0.0,0.0,0.0,0.0,0.0,0.0,0.0,0.0,0.0,0.0,0.0,0.0,0.0,0.0,0.0,0.0,0.0,0.0,0.0,0.0,0.0,0.0,0.0,0.0,0.0,0.0,0.0,0.0,0.0,0.0,0.0,0.0,0.0,0.0,0.0,0.0,0.0,0.0,0.0,0.0,0.0,0.0,0.0,0.0,0.0,0.0,0.0,0.0,0.0,0.0,0.0,0.0,0.0,0.0,0.0,0.0,0.0,0.0,0.0,0.0,0.0,0.0,0.0,0.0,0.0,0.0,0.0,0.0,0.0,0.0,0.0,0.0,0.0,0.0,0.0,0.0,0.0,0.0,0.0,0.0,0.0,0.0,0.0,0.0,0.0,0.0,0.0,0.0,0.0,0.0,0.0,0.0,0.0,0.0,0.0,0.0,0.0,0.0,0.0,-0.6137,-0.6354,-0.6807,-0.6644,-0.649,-0.6327,-0.6486,-0.6563,-0.6469,0.0,0.0,0.0,0.0,0.0,0.0,0.0,0.0,0.0,0.0,0.0,0.0,0.0,0.0,0.0,0.0,0.0,0.0,0.0,0.0,0.0,0.0,0.0,0.0,0.0,0.0,0.0,0.0,0.0,0.0,0.0,0.0,0.0,0.0,0.0,0.0,0.0,0.0,0.0677,0.0225,0.0,0.0,0.0,0.0,0.0,0.0,0.0,0.0,-0.0179,0.0,0.0,0.0,0.0,0.0,0.0,0.0,0.0,0.0,0.0,0.0,0.0,0.0,0.0,0.0,0.0,0.0,0.0,0.0,0.0,0.0,0.0,0.0,0.0,0.0,0.0,0.0,0.0,0.0,0.0,0.0,0.0,0.0,0.0,0.0,0.0,0.0,0.0,0.0,0.0,0.0,0.0,0.0,0.0,0.0,0.0,0.0,0.0,0.0,0.0,0.0,0.0,0.0,0.0,0.0,0.0,-0.5566,-0.5821,-0.5966,-0.5989,-0.6072,-0.6059,-0.5896,-0.6134,-0.6209,-0.6013,0.0,0.0,0.0,0.0,0.0,0.0,0.0,0.0,0.0,0.0,0.0,0.0,0.0,0.0,0.0,0.0,0.0,0.0,0.0,0.0,0.0,0.0,0.0,0.0,0.0,0.0,0.0,0.0,0.0,0.0,0.0,0.0,0.0,0.0,0.0,0.0,0.0,0.0,0.0,0.0092,-0.0188,0.0,0.0,0.0,0.0,0.0,0.0,0.0,0.0,-0.0986,0.0,0.0,0.0,0.0,0.0,0.0,0.0,0.0,0.0,0.0,0.0,0.0,0.0,0.0,0.0,0.0,0.0,0.0,0.0,0.0,0.0,0.0,0.0,0.0,0.0,0.0,0.0,0.0,0.0,0.0,0.0,0.0,0.0,0.0,0.0,0.0,0.0,0.0,0.0,0.0,0.0,0.0,0.0,0.0,0.0,0.0,0.0,0.0,0.0,0.0,0.0,0.0,0.0,0.0,0.0,-0.528,-0.55,-0.5637,-0.571,-0.5845,-0.5845,-0.5673,-0.5859,-0.579,0.0,0.0,0.0,0.0,0.0,0.0,0.0,0.0,0.0,0.0,0.0,0.0,0.0,0.0,0.0,0.0,0.0,0.0,0.0,0.0,0.0,0.0,0.0,0.0,0.0,0.0,0.0,0.0,0.0,0.0,0.0,0.0,0.0,0.0,0.0,0.0,0.0,0.0,0.0,0.0,0.0376,-0.0047,-0.0092,0.0,0.0,0.0,0.0,0.0,0.0,-0.1923,-0.1816,0.0,0.0,0.0,0.0,0.0,0.0,0.0,0.0,0.0,0.0,0.0,0.0,0.0,0.0,0.0,0.0,0.0,0.0,0.0,0.0,0.0,0.0,0.0,0.0,0.0,0.0,0.0,0.0,0.0,0.0,0.0,0.0,0.0,0.0,0.0,0.0,0.0,0.0,0.0,0.0,0.0,0.0,0.0,0.0,0.0,0.0,0.0,0.0,0.0,0.0,0.0,0.0,0.0,0.0,0.0,-0.5159,-0.524,-0.5395,-0.5546,-0.5626,-0.5626,-0.5504,-0.5659,-0.5543,0.0,0.0,0.0,0.0,0.0,0.0,0.0,0.0,0.0,0.0,0.0,0.0,0.0,0.0,0.0,0.0,0.0,0.0,0.0,0.0,0.0,0.0,0.0,0.0,0.0,0.0,0.0,0.0,0.0,0.0,0.0,0.0,0.0,0.0,0.0,0.0,0.0,0.0,0.0,0.0,0.0,0.0238,0.0138,-0.0425,0.0,0.0,0.0,0.0,-0.2854,-0.2642,0.0,0.0,0.0,0.0,0.0,0.0,0.0,0.0,0.0,0.0,0.0,0.0,0.0,0.0,0.0,0.0,0.0,0.0,0.0,0.0,0.0,0.0,0.0,0.0,0.0,0.0,0.0,0.0,0.0,0.0,0.0,0.0,0.0,0.0,0.0,0.0,0.0,0.0,0.0,0.0,0.0,0.0,0.0,0.0,0.0,0.0,0.0,0.0,0.0,0.0,0.0,0.0,0.0,0.0,0.0,0.0,-0.5217,-0.5263,-0.5297,-0.5336,-0.5352,-0.5293,-0.5175,-0.5654,-0.5539,0.0,0.0,0.0,0.0,0.0,0.0,0.0,0.0,0.0,0.0,0.0,0.0,0.0,0.0,0.0,0.0,0.0,0.0,0.0,0.0,0.0,0.0,0.0,0.0,0.0,0.0,0.0,0.0,0.0,0.0,0.0,0.0,0.0,0.0,0.0,0.0,0.0,0.0,0.0,0.0,0.0,0.095,0.005,-0.0949,-0.1586,0.0,0.0,-0.2123,-0.1921,-0.2033,0.0,0.0,0.0,0.0,0.0,0.0,0.0,0.0,0.0,0.0,0.0,0.0,0.0,0.0,0.0,0.0,0.0,0.0,0.0,0.0,0.0,0.0,0.0,0.0,0.0,0.0,0.0,0.0,0.0,0.0,0.0,0.0,0.0,0.0,0.0,0.0,0.0,0.0,0.0,0.0,0.0,0.0,0.0,0.0,0.0,0.0,0.0,0.0,0.0,0.0,0.0,0.0,0.0,0.0,0.0,-0.5433,-0.5224,-0.5288,-0.5242,-0.5179,-0.5187,-0.5183,-0.5069,-0.544,-0.5329,0.0,0.0,0.0,0.0,0.0,0.0,0.0,0.0,0.0,0.0,0.0,0.0,0.0,0.0,0.0,0.0,0.0,0.0,0.0,0.0,0.0,0.0,0.0,0.0,0.0,0.0,0.0,0.0,0.0,0.0,0.0,0.0,0.0,0.0,0.0,0.0,0.0,0.0,0.0,0.0,0.0,0.0,0.0146,-0.0895,0.0,0.0,0.0,-0.2658,-0.2571,0.0,0.0,0.0,0.0,0.0,0.0,0.0,0.0,0.0,0.0,0.0,0.0,0.0,0.0,0.0,0.0,0.0,0.0,0.0,0.0,0.0,0.0,0.0,0.0,0.0,0.0,0.0,0.0,0.0,0.0,0.0,0.0,0.0,0.0,0.0,0.0,0.0,0.0,0.0,0.0,0.0,0.0,0.0,0.0,0.0,0.0,0.0,0.0,0.0,0.0,0.0,0.0,0.0,0.0,0.0,0.0,0.0,-0.5209,-0.5232,-0.5242,-0.5128,-0.5014,-0.5018,-0.5011,-0.5098,0.0,0.0,0.0,0.0,0.0,0.0,0.0,0.0,0.0,0.0,0.0,0.0,0.0,0.0,0.0,0.0,0.0,0.0,0.0,0.0,0.0,0.0,0.0,0.0,0.0,0.0,0.0,-0.4456,0.0,0.0,0.0,0.0,0.0,0.0,0.0,0.0,0.0,0.0,0.0,0.0,0.0,0.0,-0.0482,-0.0241,-0.1187,-0.201,0.0,0.0,-0.3077,-0.324,-0.3383,-0.3515,0.0,0.0,0.0,0.0,0.0,0.0,0.0,0.0,0.0,0.0,0.0,0.0,0.0,0.0,0.0,0.0,0.0,0.0,0.0,0.0,0.0,0.0,0.0,0.0,0.0,0.0,0.0,0.0,0.0,0.0,0.0,0.0,0.0,0.0,0.0,0.0,0.0,0.0,0.0,0.0,0.0,0.0,0.0,0.0,0.0,0.0,0.0,0.0,0.0,0.0,0.0,0.0,0.0,0.0,-0.5215,-0.512,-0.512,-0.5187,-0.5301,-0.4912,-0.4746,-0.4743,-0.4718,-0.4751,0.0,0.0,0.0,0.0,0.0,0.0,0.0,0.0,0.0,0.0,0.0,0.0,0.0,0.0,0.0,0.0,0.0,0.0,0.0,0.0,0.0,0.0,0.0,0.0,0.0,0.0,0.0,0.0,0.0,0.0,0.0,0.0,0.0,0.0,0.0,0.0,0.0,0.0,0.0,0.0,0.0,-0.2157,-0.1402,-0.2311,-0.3139,0.0,-0.3293,-0.3193,-0.3299,-0.3277,-0.331,-0.358,0.0,0.0,0.0,0.0,0.0,0.0,0.0,0.0,0.0,0.0,0.0,0.0,0.0,0.0,0.0,0.0,0.0,0.0,0.0,0.0,0.0,0.0,0.0,0.0,0.0,0.0,0.0,0.0,0.0,0.0,0.0,0.0,0.0,0.0,0.0,0.0,0.0,0.0,0.0,0.0,0.0,0.0,0.0,0.0,0.0,0.0,0.0,0.0,0.0,0.0,0.0,0.0,0.0,-0.502,-0.4996,-0.5129,-0.5294,-0.5341,-0.5075,-0.4953,-0.5,-0.4893,-0.4782,0.0,0.0,0.0,0.0,0.0,0.0,0.0,0.0,0.0,0.0,0.0,0.0,0.0,0.0,0.0,0.0,0.0,0.0,0.0,0.0,0.0,0.0,0.0,0.0,0.0,0.0,0.0,0.0,-0.4937,-0.511,-0.4803,0.0,0.0,0.0,0.0,0.0,0.0,0.0,0.0,0.0,0.0,-0.3137,-0.2403,-0.2712,0.0,0.0,-0.3079,-0.3021,-0.3124,-0.3072,-0.3185,-0.365,-0.3616,0.0,0.0,0.0,0.0,0.0,0.0,0.0,0.0,0.0,0.0,0.0,0.0,0.0,0.0,0.0,0.0,0.0,0.0,0.0,0.0,0.0,0.0,0.0,0.0,0.0,0.0,0.0,0.0,0.0,0.0,0.0,0.0,0.0,0.0,0.0,0.0,0.0,0.0,0.0,0.0,0.0,0.0,0.0,0.0,0.0,0.0,0.0,0.0,0.0,0.0,0.0,0.0,-0.5059,-0.4964,-0.5271,-0.5413,-0.5482,-0.5297,-0.5208,-0.5204,-0.4969,-0.4802,0.0,0.0,0.0,0.0,0.0,0.0,0.0,0.0,0.0,0.0,0.0,0.0,0.0,0.0,0.0,0.0,0.0,0.0,0.0,0.0,0.0,0.0,0.0,0.0,0.0,0.0,0.0,0.0,-0.5617,-0.5817,-0.5726,0.0,0.0,0.0,0.0,0.0,0.0,0.0,0.0,0.0,0.0,-0.3955,-0.3257,-0.3271,-0.3369,-0.336,-0.3254,-0.3226,-0.3479,-0.334,-0.3286,-0.3556,0.0,0.0,0.0,0.0,0.0,0.0,0.0,0.0,0.0,0.0,0.0,0.0,0.0,0.0,0.0,0.0,0.0,0.0,0.0,0.0,0.0,0.0,0.0,0.0,0.0,0.0,0.0,-0.0495,0.0,0.0,-0.0181,0.0,0.0,0.0,0.0,0.0,0.0,0.0,0.0,0.0,0.0,0.0,0.0,0.0,0.0,0.0,0.0,0.0,0.0,0.0,0.0,0.0,0.0,-0.5309,-0.522,-0.5496,-0.5576,-0.5593,-0.547,-0.5331,-0.5223,-0.4886,-0.483,-0.4955,0.0,0.0,0.0,0.0,0.0,0.0,0.0,0.0,0.0,0.0,0.0,0.0,0.0,0.0,0.0,0.0,0.0,0.0,0.0,0.0,0.0,0.0,0.0,0.0,0.0,0.0,-0.7663,-0.7425,-0.7242,0.0,0.0,0.0,0.0,0.0,0.0,0.0,0.0,0.0,0.0,-0.4594,-0.4639,-0.3989,-0.4029,-0.4157,-0.4184,-0.4031,-0.4116,-0.4498,-0.4119,-0.3627,0.0,0.0,0.0,0.0,0.0,0.0,0.0,0.0,0.0,0.0,0.0,0.0,0.0,0.0,0.0,0.0,0.0,0.0,0.0,0.0,0.0,0.0,0.0,0.0,0.0,0.0,0.0,-0.1405,-0.1747,0.0,0.0,0.0,0.0,0.0,0.0,0.0,0.0,0.0,0.0,0.0,-0.3823,-0.4073,0.0,0.0,0.0,0.0,0.0,0.0,0.0,0.0,0.0,0.0,0.0,0.0,-0.5268,-0.5617,-0.5896,-0.616,-0.646,-0.6058,-0.5848,-0.5843,-0.541,-0.5054,-0.484,0.0,0.0,0.0,0.0,0.0,0.0,0.0,0.0,0.0,0.0,0.0,0.0,0.0,0.0,0.0,0.0,0.0,0.0,0.0,0.0,0.0,0.0,0.0,0.0,0.0,-0.6596,0.0,0.0,0.0,0.0,0.0,0.0,0.0,0.0,0.0,0.0,0.0,-0.498,-0.4824,-0.542,-0.562,-0.5046,-0.4727,-0.4423,0.0,0.0,0.0,0.0,0.0,0.0,0.0,0.0,0.0,0.0,0.0,0.0,0.0,0.0,-0.5396,-0.5918,-0.5574,-0.5289,-0.5534,0.0,0.0,0.0,0.0,0.0,0.0,0.0,0.0,0.0,0.0,0.0,0.0,0.0,0.0,-0.2175,0.0,-0.2598,0.0,0.0,0.0,0.0,0.0,0.0,0.0,0.0,-0.4877,-0.4649,-0.4652,-0.4919,-0.5136,0.0,-0.5128,-0.4931,0.0,0.0,0.0,0.0,0.0,0.0,0.0,0.0,-0.5149,-0.5596,-0.6342,-0.6776,-0.696,-0.6485,-0.6273,-0.627,-0.5762,-0.5229,-0.476,-0.4521,-0.4589,0.0,0.0,0.0,0.0,0.0,0.0,0.0,0.0,0.0,0.0,0.0,0.0,0.0,0.0,0.0,0.0,0.0,0.0,0.0,0.0,0.0,0.0,0.0,-0.7307,0.0,0.0,0.0,0.0,0.0,0.0,0.0,0.0,0.0,-0.6088,-0.607,-0.6025,-0.5578,-0.6095,-0.6248,-0.5605,0.0,0.0,0.0,0.0,0.0,0.0,0.0,-0.3848,-0.3808,-0.3893,-0.4035,-0.4257,-0.4585,-0.483,-0.4713,0.0,0.0,-0.5827,-0.5529,-0.5194,-0.5444,-0.5444,-0.5496,-0.5975,-0.6325,-0.6624,0.0,0.0,0.0,0.0,0.0,0.0,0.0,0.0,-0.3516,-0.3021,0.0,-0.4039,0.0,0.0,0.0,0.0,-0.1867,-0.3159,0.0,0.0,-0.6551,-0.6379,-0.5735,-0.5705,-0.578,-0.5868,-0.5441,-0.5365,-0.5558,-0.5233,0.0,0.0,0.0,0.0,0.0,0.0,-0.5103,-0.531,-0.6663,-0.7295,-0.7125,-0.675,-0.653,-0.6358,-0.5864,-0.5352,-0.4821,-0.4484,-0.4483,-0.481,-0.5607,0.0,0.0,0.0,0.0,0.0,0.0,0.0,0.0,0.0,0.0,0.0,0.0,0.0,0.0,0.0,0.0,0.0,0.0,0.0,0.0,-0.8443,0.0,0.0,0.0,0.0,0.0,0.0,0.0,0.0,0.0,0.0,-0.727,-0.7164,-0.7064,-0.6499,0.0,0.0,0.0,0.0,-0.5066,-0.4897,-0.4791,-0.4684,-0.4787,-0.4295,-0.3705,-0.32,0.0,0.0,-0.3392,-0.3768,-0.4153,-0.48,-0.4128,-0.3812,-0.4853,-0.5235,-0.5431,-0.5686,-0.5645,-0.5751,-0.6,-0.6273,-0.6657,-0.5638,0.0,0.0,0.0,0.0,-0.4369,-0.4867,-0.5475,-0.4568,-0.4166,-0.4191,-0.4169,0.0,0.0,0.0,0.0,0.0,0.0,-0.592,-0.735,-0.6833,-0.6379,-0.6177,-0.6079,-0.6084,-0.6133,-0.6095,-0.6073,-0.6185,-0.6073,-0.5679,-0.5067,0.0,0.0,0.0,0.0,-0.547,-0.6448,-0.6903,-0.7274,-0.7609,-0.7021,-0.6465,-0.6082,-0.5665,-0.5226,-0.4827,-0.4461,-0.4463,-0.4756,-0.4296,0.0,0.0,0.0,0.0,0.0,0.0,0.0,0.0,0.0,0.0,0.0,0.0,0.0,0.0,0.0,0.0,0.0,0.0,0.0,-0.8696,-0.8535,-0.873,0.0,0.0,0.0,0.0,0.0,0.0,0.0,0.0,0.0,-0.8424,-0.8504,-0.8346,0.0,0.0,-0.754,-0.6775,-0.6122,-0.5563,-0.5007,-0.4736,0.0,-0.391,-0.3828,-0.3725,-0.3466,-0.3098,-0.2891,-0.3058,-0.3027,-0.3062,-0.331,-0.3232,-0.3249,-0.3599,-0.4039,-0.4338,-0.4497,-0.4678,-0.4862,-0.5083,-0.528,-0.5466,-0.5506,-0.5352,-0.5369,-0.5346,-0.5406,-0.5051,-0.5147,-0.56,-0.5274,-0.4957,-0.4649,-0.4448,-0.408,-0.3691,-0.375,0.0,0.0,0.0,-0.629,-0.7529,-0.6876,-0.6599,-0.6532,-0.6328,-0.6254,-0.6189,-0.6233,-0.6222,-0.6346,-0.6278,-0.6109,-0.5749,0.0,0.0,-0.5734,-0.5921,-0.6263,-0.6824,-0.6912,-0.7113,-0.7375,-0.6779,-0.6214,-0.569,-0.5495,-0.5163,-0.4761,-0.4567,-0.4463,-0.4449,-0.3938,-0.3994,0.0,0.0,0.0,0.0,0.0,0.0,0.0,0.0,0.0,0.0,0.0,-0.5066,-0.5645,0.0,0.0,0.0,-0.7636,-0.8316,-0.8939,-0.9281,0.0,0.0,0.0,0.0,0.0,0.0,0.0,-1.0003,-0.9786,-0.9392,-0.8895,-0.8924,-0.8646,-0.7652,-0.7557,-0.7295,-0.6701,0.0,-0.5474,-0.493,-0.4545,-0.4172,-0.3653,-0.3523,-0.3436,-0.32,-0.2844,-0.2608,-0.2669,-0.2557,-0.246,-0.2462,-0.2531,-0.2585,-0.2588,-0.2936,-0.3355,-0.3718,-0.399,-0.4172,-0.4282,-0.4365,-0.4432,-0.5175,-0.4678,-0.5015,-0.5252,-0.5391,-0.5453,-0.5365,-0.5203,-0.5661,-0.5391,-0.4657,-0.4715,-0.4389,-0.3628,-0.3866,0.0,-0.4705,-0.53,-0.602,-0.6881,-0.6845,-0.6849,-0.67,-0.6519,-0.6324,-0.6187,-0.5992,-0.6058,-0.6187,-0.6161,-0.6193,-0.6358,-0.6318,-0.6167,-0.5939,-0.691,-0.7203,-0.6625,-0.6874,-0.688,-0.6813,-0.64,-0.5992,-0.5463,-0.5386,-0.5109,-0.464,-0.47,-0.4495,-0.4023,-0.4118,-0.4179,-0.4223,0.0,0.0,0.0,0.0,0.0,0.0,0.0,0.0,0.0,0.0,0.0,0.0,0.0,0.0,0.0,-0.8006,0.0,-0.8556,-1.0169,0.0,0.0,0.0,-1.044,-0.9545,-0.9242,-0.9097,-0.9082,0.0,0.0,-0.8881,-0.8732,-0.8174,-0.6807,-0.6628,-0.646,-0.5927,-0.5448,-0.5054,-0.4793,-0.4345,-0.398,-0.3651,-0.3248,-0.2854,-0.2605,-0.2248,-0.2168,-0.2236,-0.2225,-0.2113,-0.1986,-0.1992,-0.1963,-0.1848,-0.2171,-0.2568,-0.3216,-0.3431,-0.3507,-0.3685,-0.3703,-0.3701,-0.4528,-0.4351,-0.4637,-0.4876,-0.5072,-0.5056,-0.5084,-0.5075,-0.5266,-0.5232,-0.5059,-0.4841,-0.4737,-0.483,-0.5038,-0.5274,-0.5609,-0.58,-0.6082,-0.6494,-0.6486,-0.6614,-0.6975,-0.6545,-0.6327,-0.6257,-0.6257,-0.6257,-0.6257,-0.6286,-0.6143,-0.6036,-0.6254,-0.6316,-0.6316,-0.7081,-0.7355,-0.697,-0.7247,-0.7118,-0.6663,-0.6565,-0.6265,-0.5694,-0.5448,-0.5049,-0.4563,-0.4276,-0.4025,-0.3825,-0.3602,-0.3621,-0.4051,-0.4369,0.0,0.0,0.0,0.0,0.0,0.0,0.0,0.0,0.0,-0.5635,-0.6252,0.0,-0.7624,0.0,-0.7721,-0.7961,-0.8586,-0.8896,0.0,0.0,-1.0963,-0.9795,-0.8414,-0.8689,-0.9155,-0.9507,-0.9219,-0.8794,-0.8318,-0.8196,-0.7695,-0.6447,-0.6773,-0.6951,-0.6532,-0.5738,-0.5103,-0.4603,-0.401,-0.3476,-0.3138,-0.2726,-0.231,-0.218,-0.1934,-0.1807,-0.187,-0.1851,-0.1806,-0.1759,-0.1651,-0.1647,-0.1841,-0.1963,-0.2112,-0.232,-0.2726,-0.3026,-0.304,-0.3066,-0.3082,-0.4155,-0.3999,-0.4157,-0.4199,-0.4213,-0.4465,-0.4664,-0.4734,-0.4981,-0.4958,-0.473,-0.4525,-0.4573,-0.4792,-0.5087,-0.5334,-0.5624,-0.584,-0.5923,-0.5761,-0.6075,-0.6403,-0.6748,-0.6335,-0.6233,-0.6233,-0.6086,-0.6158,-0.6233,-0.6233,-0.6149,-0.5975,-0.5975,-0.5981,-0.5989,-0.6327,-0.6542,-0.6602,-0.6745,-0.6684,-0.6373,-0.6309,-0.6026,-0.5537,-0.5254,-0.4879,-0.4495,-0.4102,-0.3942,-0.3942,-0.3749,-0.3722,-0.3974,-0.4342,-0.465,0.0,0.0,0.0,0.0,0.0,0.0,0.0,0.0,0.0,0.0,0.0,-0.7829,-0.8304,-0.8294,-0.8575,-0.9445,-0.9648,-1.0285,-1.165,-1.0624,-0.9194,-0.7622,-0.7926,-0.8294,-0.8404,-0.8166,-0.7758,-0.7313,-0.721,-0.6824,-0.5954,-0.6193,-0.6263,-0.592,-0.5268,-0.4623,-0.425,-0.3576,-0.2969,-0.2555,-0.218,-0.1925,-0.186,-0.1666,-0.1538,-0.1538,-0.1493,-0.1437,-0.1419,-0.1302,-0.1303,-0.1521,-0.1527,-0.1602,-0.1709,-0.204,-0.2354,-0.2509,-0.2507,-0.2497,-0.3843,-0.3684,-0.3684,-0.3454,-0.3071,-0.3702,-0.409,-0.4231,-0.4686,-0.4642,-0.4171,-0.4082,-0.4111,-0.4327,-0.47,-0.4913,-0.5125,-0.5567,-0.5475,-0.5084,-0.5627,-0.6002,-0.6281,-0.6082,-0.6085,-0.6085,-0.5864,-0.5861,-0.6085,-0.6013,-0.5992,-0.5878,-0.5578,-0.5361,-0.5339,-0.5286,-0.5461,-0.5934,-0.5911,-0.6003,-0.6093,-0.5908,-0.555,-0.5103,-0.4945,-0.4761,-0.4396,-0.4125,-0.4058,-0.4119,-0.4119,-0.4005,-0.3894,-0.4436,-0.4721,0.0,-0.5235,0.0,0.0,0.0,0.0,0.0,0.0,0.0,0.0,-0.6725,-0.7551,-0.8684,-0.9062,-0.9522,-1.0199,-1.0669,-1.0675,-1.012,-0.9577,-0.8622,-0.7188,-0.7201,-0.722,-0.6871,-0.681,-0.6696,-0.64,-0.6162,-0.5888,-0.56,-0.5291,-0.5114,-0.4823,-0.4433,-0.4037,-0.3739,-0.317,-0.2544,-0.2129,-0.1811,-0.1608,-0.1611,-0.1473,-0.1344,-0.134,-0.1208,-0.1143,-0.1144,-0.1143,-0.1069,-0.1044,-0.1059,-0.1123,-0.1207,-0.1433,-0.167,-0.1991,-0.2033,-0.201,-0.3297,-0.2982,-0.3139,-0.3015,-0.2664,-0.2826,-0.2873,-0.2974,-0.4057,-0.4283,-0.3885,-0.4178,-0.4323,-0.4402,-0.4479,-0.4589,-0.4739,-0.4825,-0.4914,-0.5026,-0.515,-0.5575,-0.6243,-0.5894,-0.5867,-0.6252,-0.5867,-0.5711,-0.5937,-0.5787,-0.5598,-0.5375,-0.5372,-0.5249,-0.4873,0.0,0.0,0.0,-0.5898,-0.608,-0.6083,-0.5783,-0.5416,-0.5017,-0.4919,0.0,-0.4339,-0.4176,-0.3997,-0.3872,-0.387,0.0,0.0,0.0,0.0,0.0,0.0,0.0,0.0,0.0,0.0,0.0,-0.624,-0.6445,-0.651,-0.7208,-0.7935,-0.854,-0.8334,-0.8277,-0.8471,-0.8387,-0.8342,-0.8329,-0.8255,-0.7919,-0.7177,-0.7288,-0.7343,-0.7154,-0.6897,-0.6647,-0.6343,-0.5879,-0.5422,-0.5206,-0.4671,-0.4254,-0.4161,-0.4082,-0.3835,-0.3398,-0.2729,-0.2271,-0.2151,-0.1816,-0.1614,-0.1547,-0.1412,-0.1344,-0.1277,-0.121,-0.1076,-0.1079,-0.108,-0.101,-0.0736,-0.0873,-0.1075,-0.113,-0.1136,-0.1268,-0.1568,-0.1648,-0.1657,-0.307,-0.2876,-0.2797,-0.2834,0.0,-0.2664,-0.2715,-0.2951,-0.3273,-0.3567,-0.3837,-0.3995,-0.4073,-0.4075,-0.4231,-0.4281,-0.439,-0.4441,-0.4481,-0.4382,-0.4637,-0.5049,-0.5692,-0.5604,-0.5715,-0.587,-0.5715,-0.5637,-0.5712,-0.5637,-0.5487,-0.5277,-0.5352,-0.5285,-0.5015,-0.5231,-0.5451,-0.5866,-0.5933,-0.6022,-0.6165,-0.6033,-0.5768,-0.5345,-0.5199,0.0,0.0,0.0,0.0,0.0,0.0,0.0,0.0,-0.4089,0.0,-0.4207,-0.4581,-0.4816,-0.4823,-0.4817,-0.5033,-0.5497,-0.5746,-0.6191,-0.6866,-0.7165,-0.7547,-0.7991,-0.7896,-0.7794,-0.7807,-0.7693,-0.7614,-0.7521,-0.7466,-0.7265,-0.6868,-0.6868,-0.6806,-0.6478,-0.6346,-0.6148,-0.5818,-0.5355,-0.503,-0.4761,-0.4292,-0.3964,-0.3763,-0.3694,-0.3426,-0.2893,-0.249,-0.2153,-0.2085,-0.1816,-0.1547,-0.1479,-0.1344,-0.1277,-0.121,-0.1143,-0.1076,-0.1079,-0.0809,-0.054,-0.0742,-0.0674,-0.0674,-0.1012,-0.0943,-0.0939,-0.1189,-0.1332,-0.1339,-0.2974,-0.2862,-0.2688,-0.2726,-0.2953,-0.2846,-0.2904,-0.3273,0.0,0.0,0.0,-0.3763,-0.3763,-0.3763,-0.3999,-0.4075,-0.4146,-0.4307,-0.4226,-0.391,-0.4297,-0.4688,-0.5004,-0.5323,-0.5482,-0.5401,-0.5482,-0.5482,-0.5559,-0.5482,-0.5401,-0.5243,-0.5323,-0.5323,-0.5401,-0.5482,-0.5762,-0.6138,-0.5909,-0.5925,-0.6169,-0.618,-0.5974,-0.5559,-0.5426,-0.5104,-0.4658,-0.4494,-0.436,-0.4244,-0.4244,-0.4256,-0.4218,-0.4338,-0.447,-0.4556,-0.4739,-0.479,-0.4589,-0.472,-0.4832,-0.4821,-0.5163,-0.5825,-0.689,-0.6845,-0.6881,-0.726,-0.74,-0.747,-0.747,-0.747,-0.7339,-0.7068,-0.6946,-0.6749,-0.6354,-0.6288,-0.6148,-0.5683,-0.5686,-0.5554,-0.5156,-0.4827,-0.4561,-0.4231,-0.3961,-0.3696,-0.3362,-0.3159,-0.2958,-0.2557,-0.2288,-0.2085,-0.1884,-0.1681,-0.1479,-0.1277,-0.1277,-0.121,-0.1143,-0.1076,-0.1077,-0.1078,-0.0607,-0.0472,-0.0742,-0.0405,-0.0202,-0.0809,-0.0742,-0.0674,-0.1012,-0.1078,-0.1076,-0.2837,-0.2758,-0.2951,-0.2834,-0.2594,-0.2752,-0.2975,-0.3258,-0.3369,-0.3379,-0.3368,-0.3682,-0.3684,-0.3526,-0.3763,-0.3841,-0.3841,-0.4235,-0.4394,-0.4316,-0.4701,-0.4932,-0.5004,-0.509,-0.5168,-0.5401,-0.5168,-0.5171,-0.5323,-0.5171,-0.5096,-0.5015,-0.5015,-0.5251,-0.5569,-0.5562,-0.5619,-0.5656,-0.5712,-0.5748,-0.5861,-0.563,-0.5529,-0.5449,-0.5159,-0.4928,-0.4855,-0.4677,-0.4482,-0.4357,-0.4357,-0.435,-0.4278,-0.4287,-0.4335,-0.4372,-0.438,-0.4389,-0.4339,-0.44,-0.4532,-0.4951,-0.5087,-0.5342,-0.5782,-0.5939,-0.6152,-0.6342,-0.6548,-0.6552,-0.6548,-0.6613,-0.6548,-0.6412,-0.6622,-0.6626,-0.6024,-0.5818,-0.5749,-0.555,-0.5352,-0.516,-0.4827,-0.4428,-0.4028,-0.3825,-0.3491,-0.3025,-0.2758,-0.269,-0.269,-0.2423,-0.2153,-0.1884,-0.1748,-0.1479,-0.1344,-0.1143,-0.1143,-0.1143,-0.1076,-0.1076,-0.1076,-0.1078,-0.0944,-0.0742,-0.0405,-0.0067,-0.0,-0.0,-0.0607,-0.1012,-0.108,-0.0809,-0.0674,-0.2807,-0.2734,-0.2844,-0.2785,-0.269,-0.283,-0.295,-0.3136,-0.3233,-0.3256,-0.3217,-0.3606,-0.3684,-0.3526,-0.3684,-0.3841,-0.3999,-0.4077,-0.4314,-0.4706,-0.4937,-0.5012,-0.5012,-0.5012,-0.5093,-0.5171,-0.5093,-0.5015,-0.509,-0.5015,-0.5018,-0.5018,-0.5093,-0.5171,-0.5257,-0.5404,-0.5482,-0.5637,-0.5891,-0.6051,-0.6047,-0.5923,-0.5813,-0.5722,-0.5444,-0.5235,-0.5092,-0.4827,-0.4694,-0.4489,-0.4486,-0.4421,-0.4284,-0.4284,-0.4309,-0.4298,-0.4303,-0.4303,-0.4303,-0.4295,-0.4428,-0.4628,-0.4628,-0.4761,-0.5024,-0.5484,-0.5815,-0.5881,-0.602,-0.6152,-0.6156,-0.6156,-0.602,-0.5877,-0.5958,-0.5892,-0.5557,-0.5292,-0.5156,-0.5024,-0.4824,-0.4561,-0.4364,-0.3894,-0.356,-0.3424,-0.309,-0.2688,-0.2423,-0.2488,-0.249,-0.2356,-0.2153,-0.2018,-0.1816,-0.1681,-0.1547,-0.1277,-0.121,-0.1143,-0.1143,-0.1076,-0.1078,-0.1079,-0.108,-0.1012,-0.0607,-0.027,-0.0,-0.0,-0.0607,-0.1012,-0.1012,-0.0337,-0.0,-0.3087,-0.2973,-0.2908,-0.2995,-0.303,-0.3036,-0.2973,-0.2927,-0.3154,-0.3195,-0.3144,-0.3528,-0.3604,-0.3526,-0.3763,-0.3921,-0.3999,-0.3841,-0.4153,-0.4704,-0.4937,-0.5018,-0.5018,-0.5018,-0.5018,-0.5018,-0.5018,-0.5018,-0.5018,-0.5018,-0.5018,-0.5018,-0.5168,-0.5168,-0.5018,-0.5168,-0.5401,-0.5559,-0.6025,-0.6244,-0.6207,-0.6176,-0.6115,-0.5959,-0.5764,-0.5494,-0.5131,-0.496,-0.4756,-0.4518,-0.4485,-0.4442,-0.4384,-0.4284,-0.4284,-0.4371,-0.4287,-0.426,-0.4306,-0.4325,-0.4327,-0.4303,-0.4325,-0.4392,-0.4498,-0.4986,-0.5319,-0.5428,-0.5557,-0.5624,-0.5627,-0.5624,-0.5554,-0.5418,-0.5289,-0.5226,-0.5024,-0.4827,-0.4631,-0.4495,-0.4364,-0.4097,-0.3828,-0.3426,-0.3159,-0.2958,-0.2755,-0.2487,-0.2288,-0.2288,-0.2288,-0.2153,-0.2085,-0.1951,-0.1816,-0.1748,-0.1547,-0.1279,-0.1278,-0.1212,-0.1144,-0.1078,-0.1079,-0.108,-0.108,-0.0877,-0.0674,-0.0337,-0.0,-0.0,-0.027,-0.054,-0.0607,0.0202,0.0607,-0.3545,-0.3558,-0.3486,-0.3554,-0.3454,-0.3323,-0.3099,-0.3,-0.3337,-0.3303,-0.3141,-0.337,-0.3526,-0.3526,-0.3921,-0.3999,-0.3841,-0.3834,-0.3837,-0.3997,-0.4626,-0.5018,-0.5018,-0.5018,-0.5018,-0.5018,-0.5018,-0.5018,-0.5018,-0.5018,-0.5018,-0.5018,-0.5018,-0.5015,-0.5018,-0.5165,-0.5323,-0.5398,-0.5786,-0.5953,-0.5976,-0.5915,-0.5825,-0.5719,-0.5606,-0.5304,-0.4883,-0.486,-0.4726,-0.4347,-0.4466,-0.4518,-0.4594,-0.431,-0.4297,-0.4599,-0.4307,-0.4143,-0.4322,-0.4398,-0.4412,-0.4319,-0.4401,-0.434,-0.4118,-0.4261,-0.4477,-0.4791,-0.4897,-0.4894,-0.4897,-0.4897,-0.4894,-0.4894,-0.4827,-0.4761,-0.4761,-0.4564,-0.4364,-0.43,-0.4028,-0.3758,-0.336,-0.3159,-0.2891,-0.2421,-0.2287,-0.2151,-0.1883,-0.1816,-0.1816,-0.1748,-0.1748,-0.1681,-0.1479,-0.1344,-0.1346,-0.1146,-0.1079,-0.1079,-0.1012,-0.1079,-0.108,-0.108,-0.0945,-0.0472,0.0202,0.0472,-0.0,-0.0,0.0337,0.0742,0.054,0.0742,0.0607,-0.3167,-0.3243,-0.3053,-0.3093,-0.3165,-0.3444,-0.3419,-0.3088,-0.3221,-0.3338,-0.3376,-0.3448,-0.3526,-0.3684,-0.3999,-0.4153,-0.4151,-0.3917,-0.3915,-0.4231,-0.4779,-0.5018,-0.5018,-0.5093,-0.509,-0.5018,-0.5018,-0.5018,-0.5018,-0.5018,-0.5018,-0.5018,-0.5018,-0.5018,-0.5018,-0.509,-0.5171,-0.5321,-0.5319,-0.5481,-0.5666,-0.5754,-0.5865,-0.5762,-0.5569,-0.5261,-0.4923,-0.4966,-0.4761,-0.4469,-0.4564,-0.46,-0.4439,-0.4467,-0.4459,-0.4506,-0.4467,-0.4488,-0.4582,-0.4485,-0.4351,-0.4305,-0.4268,-0.4104,-0.3934,-0.3963,-0.4079,-0.4182,-0.4295,-0.4361,-0.4364,-0.4431,-0.4498,-0.4364,-0.4431,-0.4431,-0.4228,-0.4231,-0.4233,-0.3897,-0.3627,-0.3357,-0.2956,-0.2621,-0.2287,-0.1884,-0.1816,-0.1748,-0.1614,-0.1547,-0.1547,-0.1412,-0.1412,-0.1412,-0.1277,-0.1344,-0.1279,-0.1146,-0.0877,-0.0742,-0.0742,-0.0945,-0.108,-0.108,-0.0405,0.0202,0.0877,0.0945,0.0607,0.054,0.0607,0.1012,0.0877,0.1012,0.0809,-0.3069,-0.3162,-0.2971,-0.2924,-0.3088,-0.3635,-0.3626,-0.3383,-0.3383,-0.3427,-0.353,-0.3604,-0.3684,-0.3921,-0.4079,-0.4155,-0.4309,-0.4155,-0.4153,-0.4307,-0.4779,-0.5096,-0.5176,-0.5171,-0.5168,-0.5015,-0.5018,-0.5018,-0.5018,-0.5018,-0.5018,-0.5018,-0.5018,-0.5018,-0.5018,-0.5018,-0.5093,-0.516,-0.5146,-0.5179,-0.5424,-0.5659,-0.5767,-0.5585,-0.5378,-0.5085,-0.4849,-0.4857,-0.482,-0.4581,-0.4701,-0.4662,-0.454,-0.4502,-0.4413,-0.4418,-0.4664,-0.4795,-0.4664,-0.4468,-0.4312,-0.4188,-0.4056,-0.3958,-0.3808,-0.3732,-0.3716,-0.3591,-0.3641,-0.3771,-0.4033,-0.4097,-0.4097,-0.3961,-0.403,-0.3964,-0.3694,-0.3894,-0.383,-0.3429,-0.3094,-0.2824,-0.2487,-0.2084,-0.1748,-0.1547,-0.1547,-0.1479,-0.148,-0.1345,-0.1278,-0.1277,-0.1211,-0.1144,-0.1212,-0.1279,-0.1212,-0.1146,-0.0877,-0.0674,-0.0405,-0.054,-0.0674,-0.0337,0.054,0.1012,0.108,0.108,0.1012,0.0877,0.0877,0.108,0.108,0.1079,0.1078,-0.3514,-0.3608,-0.3444,-0.3324,-0.3485,-0.3728,-0.3771,-0.37,-0.3775,-0.3769,-0.3763,-0.3763,-0.3921,-0.4157,-0.4079,-0.4079,-0.4155,-0.4623,-0.4467,-0.3997,-0.4626,-0.5176,-0.5497,-0.5176,-0.5018,-0.5018,-0.5018,-0.5018,-0.5018,-0.5018,-0.5018,-0.5018,-0.5018,-0.5018,-0.5018,-0.5018,-0.5018,-0.5012,-0.5231,-0.5306,-0.5306,-0.5473,-0.5348,-0.4958,-0.495,-0.4851,-0.454,-0.4621,-0.4696,-0.4691,-0.4667,-0.473,-0.4892,-0.4277,-0.4152,-0.4543,-0.4852,-0.4814,-0.4494,-0.4461,-0.4289,-0.3989,-0.397,-0.3893,-0.3391,-0.3426,-0.3375,-0.2963,-0.3077,-0.3381,-0.3794,-0.3842,-0.378,-0.3715,-0.3632,-0.3431,-0.3232,-0.323,-0.3159,-0.2958,-0.2555,-0.222,-0.1951,-0.1748,-0.1547,-0.1344,-0.1344,-0.1277,-0.1211,-0.1145,-0.1145,-0.1144,-0.1144,-0.1079,-0.1146,-0.1078,-0.1078,-0.1012,-0.0877,-0.0,-0.0,0.0337,0.027,0.027,0.0742,0.1012,0.108,0.1079,0.1079,0.1012,0.1012,0.1079,0.1146,0.1077,0.1144,-0.3123,-0.3057,-0.295,-0.3016,-0.3408,-0.37,-0.3845,-0.3841,-0.3841,-0.3841,-0.3841,-0.3841,-0.3921,-0.4157,-0.3999,-0.3999,-0.4229,-0.4465,-0.4465,-0.4229,-0.4774,-0.509,-0.5176,-0.5171,-0.5093,-0.5018,-0.5018,-0.5018,-0.5018,-0.5018,-0.5018,-0.5018,-0.5018,-0.5018,-0.5018,-0.5018,-0.5018,-0.5018,-0.5246,-0.5243,-0.501,-0.5087,-0.4908,-0.4416,-0.4678,-0.4698,-0.4384,-0.4543,-0.4701,-0.4701,-0.4817,-0.4815,-0.4768,-0.4431,-0.4409,-0.4796,-0.4693,-0.4483,-0.4264,-0.4131,-0.3977,-0.3765,-0.3708,-0.3465,-0.3175,-0.3066,-0.2961,-0.2854,-0.284,-0.3006,-0.326,-0.3341,-0.3265,-0.3231,-0.302,-0.2909,-0.2874,-0.2719,-0.2552,-0.2488,-0.2153,-0.1748,-0.1547,-0.1344,-0.1277,-0.121,-0.121,-0.1143,-0.1144,-0.1077,-0.1078,-0.1076,-0.1078,-0.108,-0.108,-0.0877,-0.0742,-0.0809,-0.0,-0.0,-0.0,-0.0,0.0607,0.0674,0.1012,0.1079,0.1078,0.1012,0.1011,0.1145,0.1145,0.1145,0.1212,0.1144,0.1211,-0.2869,-0.2749,-0.2746,-0.2824,-0.3056,-0.3452,-0.3688,-0.3763,-0.3841,-0.3841,-0.3841,-0.3841,-0.3921,-0.3999,-0.3921,-0.3999,-0.4151,-0.4229,-0.4307,-0.4462,-0.4774,-0.501,-0.5015,-0.5171,-0.5168,-0.5018,-0.5018,-0.5018,-0.5018,-0.5018,-0.5018,-0.5018,-0.5018,-0.5018,-0.5018,-0.5018,-0.5018,-0.5015,-0.5085,-0.4927,-0.4698,-0.4851,-0.4621,-0.4235,-0.4392,-0.4465,-0.4384,-0.4465,-0.4623,-0.4779,-0.4781,-0.4626,-0.4387,-0.4384,-0.4465,-0.4616,-0.437,-0.4157,-0.3995,-0.3823,-0.3571,-0.3395,-0.3246,-0.3076,-0.2807,-0.2688,-0.2651,-0.2627,-0.2554,-0.2554,-0.2627,-0.2649,-0.2602,-0.2686,-0.2542,-0.2438,-0.2409,-0.2173,-0.202,-0.195,-0.1748,-0.1412,-0.1277,-0.1143,-0.1143,-0.1076,-0.1076,-0.1077,-0.1077,-0.1078,-0.1011,-0.0943,-0.101,-0.1079,-0.108,-0.0945,-0.054,-0.054,-0.0405,-0.0,-0.0,-0.0,0.0944,0.1079,0.1078,0.1078,0.101,0.0944,0.101,0.1212,0.1212,0.1212,0.1211,0.121,0.121,-0.2909,-0.2668,-0.3061,-0.2982,-0.2744,-0.3136,-0.3526,-0.3763,-0.3841,-0.3841,-0.3841,-0.3841,-0.3841,-0.3843,-0.3999,-0.4157,-0.4157,-0.4075,-0.4151,-0.4384,-0.4779,-0.5018,-0.5018,-0.5018,-0.5015,-0.494,-0.5018,-0.5018,-0.5018,-0.494,-0.494,-0.5018,-0.5018,-0.5018,-0.5018,-0.5018,-0.5018,-0.4937,-0.4691,-0.4535,-0.4698,-0.4698,-0.4467,-0.4157,-0.4079,-0.4233,-0.4384,-0.4233,-0.4392,-0.4859,-0.4467,-0.4077,-0.3999,-0.4151,-0.4304,-0.413,-0.4054,-0.3854,-0.3678,-0.3463,-0.3171,-0.2912,-0.2812,-0.2752,-0.2539,-0.2524,-0.2461,-0.2281,-0.2225,-0.2165,-0.208,-0.1978,-0.1945,-0.2301,-0.2234,-0.2023,-0.1757,-0.1616,-0.1546,-0.1412,-0.1344,-0.121,-0.1143,-0.1076,-0.1076,-0.1009,-0.1077,-0.1079,-0.1012,-0.1012,-0.0944,-0.0674,-0.0742,-0.0809,-0.0945,-0.1012,-0.054,-0.0202,-0.0,-0.0,-0.0,0.0674,0.0945,0.1012,0.1078,0.1077,0.1078,0.101,0.1078,0.1212,0.1212,0.1278,0.121,0.121,0.1277,-0.2948,-0.2747,-0.2746,-0.3059,-0.3294,-0.3212,-0.3368,-0.3763,-0.3841,-0.3841,-0.3841,-0.3841,-0.3843,-0.3999,-0.4079,-0.4155,-0.4309,-0.4309,-0.4387,-0.4465,-0.4781,-0.5018,-0.5018,-0.5018,-0.4937,-0.4781,-0.4781,-0.4781,-0.4781,-0.4781,-0.4859,-0.494,-0.5018,-0.5018,-0.5018,-0.5018,-0.494,-0.4781,-0.4613,-0.4457,-0.4309,-0.4465,-0.4309,-0.3921,-0.3921,-0.3997,-0.4155,-0.4233,-0.4465,-0.4781,-0.4623,-0.4387,-0.4229,-0.4073,-0.3889,-0.3745,-0.3436,-0.3138,-0.2945,-0.2922,-0.2829,-0.2667,-0.2591,-0.2521,-0.2308,-0.2275,-0.2195,-0.2073,-0.2003,-0.1934,-0.1792,-0.1714,-0.1721,-0.1913,-0.1929,-0.1831,-0.1645,-0.1631,-0.1482,-0.1344,-0.1344,-0.1277,-0.1143,-0.1076,-0.101,-0.0807,-0.0943,-0.1012,-0.0742,-0.0945,-0.0945,-0.0607,-0.0607,-0.054,-0.0742,-0.0472,0.0202,0.0337,0.0405,0.0607,0.0674,0.0674,0.0877,0.1011,0.1077,0.1076,0.1077,0.1144,0.1144,0.1212,0.1211,0.121,0.1277,0.1277,0.1277,-0.2945,-0.2747,-0.2668,-0.3061,-0.3688,-0.337,-0.3446,-0.3763,-0.3841,-0.3841,-0.3841,-0.3921,-0.3999,-0.4079,-0.4233,-0.4309,-0.4384,-0.4623,-0.4701,-0.4623,-0.4859,-0.5018,-0.5018,-0.5018,-0.494,-0.4859,-0.4859,-0.4781,-0.4781,-0.4781,-0.4859,-0.5018,-0.5018,-0.5018,-0.494,-0.4859,-0.4701,-0.4701,-0.446,-0.4229,-0.4155,-0.4153,-0.4075,-0.3921,-0.3841,-0.3921,-0.4155,-0.4309,-0.4384,-0.4543,-0.4465,-0.4292,-0.4028,-0.371,-0.352,-0.336,-0.306,-0.2706,-0.2592,-0.257,-0.2484,-0.2349,-0.2348,-0.2208,-0.2066,-0.1965,-0.1885,-0.1816,-0.1752,-0.1614,-0.1548,-0.1412,-0.1437,-0.1549,-0.1649,-0.1629,-0.1511,-0.1429,-0.1347,-0.121,-0.121,-0.1211,-0.1144,-0.1078,-0.0944,-0.0673,-0.0808,-0.108,-0.0742,-0.0674,-0.0,-0.0,-0.027,-0.0337,-0.0472,0.0067,0.0945,0.0945,0.0809,0.0944,0.1078,0.1011,0.1079,0.1078,0.1076,0.1076,0.1076,0.1144,0.1211,0.121,0.121,0.1277,0.1277,0.1277,0.1277,-0.2826,-0.2588,-0.2824,-0.3219,-0.3692,-0.345,-0.3526,-0.3841,-0.3841,-0.3841,-0.3919,-0.4155,-0.4235,-0.4233,-0.4467,-0.4545,-0.4543,-0.4781,-0.494,-0.494,-0.5018,-0.5018,-0.5018,-0.5018,-0.5018,-0.494,-0.494,-0.494,-0.4937,-0.4937,-0.5018,-0.494,-0.5018,-0.494,-0.4859,-0.4621,-0.4543,-0.4545,-0.4075,-0.3921,-0.4077,-0.3921,-0.3921,-0.3999,-0.3921,-0.3919,-0.4229,-0.4153,-0.4153,-0.4307,-0.3986,-0.3635,-0.3425,-0.31,-0.3062,-0.3132,-0.2769,-0.2595,-0.257,-0.2325,-0.2093,-0.196,-0.1892,-0.1816,-0.1687,-0.1685,-0.1681,-0.1547,-0.1412,-0.1344,-0.1277,-0.121,-0.1146,-0.1145,-0.1282,-0.128,-0.1144,-0.1144,-0.1144,-0.1144,-0.1076,-0.1076,-0.1078,-0.1079,-0.0876,-0.0674,-0.0741,-0.0742,-0.0607,-0.0,-0.0,-0.0,-0.0,0.0202,0.0135,0.0337,0.108,0.1145,0.1078,0.1212,0.1279,0.1212,0.1145,0.1144,0.1144,0.1143,0.1143,0.121,0.121,0.1143,0.121,0.1344,0.1344,0.1277,0.1277,-0.2746,-0.2982,-0.2982,-0.3377,-0.3692,-0.3376,-0.3532,-0.416,-0.4079,-0.4155,-0.4231,-0.4387,-0.4545,-0.4545,-0.4623,-0.4701,-0.4859,-0.494,-0.5018,-0.5018,-0.5018,-0.5018,-0.5018,-0.5018,-0.494,-0.4781,-0.4781,-0.4779,-0.4781,-0.4781,-0.4781,-0.4781,-0.4932,-0.4857,-0.4621,-0.4698,-0.4623,-0.4314,-0.3999,-0.3841,-0.3841,-0.3841,-0.3841,-0.3843,-0.3841,-0.3841,-0.3917,-0.3761,-0.3763,-0.3912,-0.3467,-0.3201,-0.3097,-0.2824,-0.2764,-0.277,-0.2391,-0.2151,-0.2046,-0.1892,-0.1749,-0.1681,-0.1681,-0.1681,-0.1614,-0.1614,-0.1547,-0.1412,-0.1277,-0.1279,-0.1211,-0.1143,-0.1076,-0.1078,-0.1146,-0.1145,-0.1078,-0.1078,-0.1078,-0.1078,-0.1078,-0.1078,-0.1079,-0.108,-0.0877,-0.054,-0.0337,-0.0202,-0.0,-0.0,-0.0,-0.0,0.0337,0.0674,0.0809,0.0945,0.1146,0.1279,0.1278,0.1278,0.1345,0.1211,0.1211,0.121,0.1277,0.1277,0.121,0.121,0.1143,0.1143,0.1143,0.1277,0.121,0.121,0.121,-0.2824,-0.2902,-0.3061,-0.3141,-0.3219,-0.2982,-0.3217,-0.3843,-0.4157,-0.4314,-0.4387,-0.4623,-0.4701,-0.4701,-0.4781,-0.4859,-0.4859,-0.494,-0.494,-0.4859,-0.494,-0.5018,-0.5018,-0.5018,-0.494,-0.4859,-0.4857,-0.4859,-0.4781,-0.4779,-0.4701,-0.4691,-0.4732,-0.4655,-0.4457,-0.4416,-0.4351,-0.407,-0.3921,-0.3841,-0.3841,-0.3684,-0.3841,-0.3843,-0.3686,-0.3528,-0.3452,-0.3374,-0.345,-0.3511,-0.322,-0.2863,-0.2827,-0.2617,-0.2409,-0.2486,-0.2136,-0.1847,-0.1622,-0.1614,-0.1614,-0.1547,-0.1479,-0.1479,-0.1412,-0.1412,-0.1347,-0.1231,-0.1231,-0.1163,-0.1093,-0.1084,-0.1079,-0.1079,-0.108,-0.0945,-0.0742,-0.0742,-0.0809,-0.0877,-0.0877,-0.0945,-0.108,-0.108,-0.0607,-0.0067,0.0405,0.0405,0.0472,0.0337,0.027,0.0472,0.054,0.0742,0.0944,0.1079,0.1146,0.1278,0.1479,0.1479,0.1344,0.1277,0.1344,0.1344,0.1344,0.1344,0.1277,0.121,0.1277,0.1277,0.121,0.1143,0.1143,0.1143,0.1143,-0.2824,-0.251,-0.2904,-0.2824,-0.2588,-0.2588,-0.2901,-0.329,-0.3999,-0.4316,-0.4392,-0.4781,-0.4859,-0.4701,-0.4937,-0.4859,-0.4779,-0.494,-0.4937,-0.4859,-0.4937,-0.5018,-0.5018,-0.5018,-0.4999,-0.4908,-0.4916,-0.491,-0.4822,-0.475,-0.4613,-0.4606,-0.4461,-0.4387,-0.4281,-0.3997,-0.3925,-0.3986,-0.3921,-0.3763,-0.3763,-0.3682,-0.3763,-0.3841,-0.3507,-0.3195,-0.3115,-0.311,-0.3181,-0.3418,-0.2971,-0.2604,-0.2542,-0.2267,-0.2215,-0.2172,-0.196,-0.1618,-0.1278,-0.1479,-0.1614,-0.1344,-0.1344,-0.1277,-0.121,-0.1143,-0.1154,-0.1114,-0.1118,-0.1109,-0.1106,-0.1091,-0.1081,-0.108,-0.108,-0.0742,-0.027,-0.027,-0.0472,-0.054,-0.054,-0.0674,-0.0877,-0.0877,-0.0472,0.0472,0.0809,0.0742,0.0674,0.0472,0.0607,0.0877,0.0877,0.0742,0.0944,0.1078,0.1212,0.1345,0.1614,0.1614,0.1412,0.1344,0.1412,0.1479,0.1547,0.1412,0.1277,0.1277,0.1344,0.1277,0.1143,0.1143,0.1143,0.1143,0.1143,-0.2588,-0.251,-0.2588,-0.2588,-0.2588,-0.2982,-0.3295,-0.3684,-0.4077,-0.4387,-0.4781,-0.4937,-0.4935,-0.4937,-0.494,-0.5018,-0.4937,-0.494,-0.494,-0.494,-0.494,-0.5018,-0.5018,-0.5018,-0.4963,-0.483,-0.4722,-0.4644,-0.4571,-0.4508,-0.4311,-0.4215,-0.4276,-0.429,-0.3984,-0.3887,-0.3816,-0.3839,-0.3841,-0.3763,-0.3604,-0.3682,-0.3682,-0.36,-0.3398,-0.3211,-0.3039,-0.2918,-0.2888,-0.2736,-0.2504,-0.2326,-0.2199,-0.2072,-0.2036,-0.2025,-0.1681,-0.1344,-0.1143,-0.121,-0.121,-0.1211,-0.121,-0.1143,-0.1143,-0.1076,-0.1091,-0.111,-0.1102,-0.1095,-0.1093,-0.0814,-0.081,-0.0945,-0.0945,-0.0742,-0.0202,-0.0,-0.027,-0.0607,-0.0405,-0.0135,-0.027,-0.027,0.0202,0.0945,0.108,0.1012,0.0877,0.0674,0.0809,0.1079,0.1012,0.0876,0.0943,0.1145,0.1212,0.1345,0.1547,0.1681,0.1479,0.1479,0.1547,0.1614,0.1748,0.1547,0.1277,0.1344,0.1412,0.1277,0.1143,0.1143,0.1143,0.1076,0.1069,-0.2588,-0.2668,-0.251,-0.251,-0.2586,-0.3217,-0.3847,-0.4226,-0.4106,-0.4346,-0.4758,-0.4963,-0.5041,-0.5015,-0.5018,-0.5018,-0.5018,-0.5018,-0.5018,-0.5018,-0.5018,-0.5018,-0.494,-0.4927,-0.4796,-0.4693,-0.4608,-0.4507,-0.4328,-0.4208,-0.4112,-0.4004,-0.4092,-0.4031,-0.3824,-0.3803,-0.3801,-0.3834,-0.3841,-0.3684,-0.3526,-0.345,-0.3294,-0.3134,-0.3177,-0.3079,-0.2616,-0.2784,-0.2586,-0.226,-0.2091,-0.2067,-0.1963,-0.1845,-0.1819,-0.1748,-0.1547,-0.1277,-0.1143,-0.1076,-0.1077,-0.1078,-0.1077,-0.1077,-0.1077,-0.1078,-0.1091,-0.111,-0.1109,-0.1167,-0.1167,-0.1016,-0.0878,-0.0472,-0.027,0.0067,0.0405,0.0472,0.0405,-0.0,-0.0,0.0135,0.0135,0.0202,0.0472,0.1012,0.1079,0.1079,0.1078,0.0876,0.0944,0.1078,0.1078,0.1078,0.1077,0.1144,0.1211,0.1277,0.148,0.1479,0.1412,0.1479,0.1614,0.1614,0.1614,0.1479,0.1277,0.1412,0.1412,0.121,0.1076,0.1076,0.107,0.1061,0.1054,-0.2668,-0.2902,-0.2668,-0.2585,-0.2818,-0.3526,-0.4238,-0.4776,-0.4299,-0.4399,-0.4673,-0.4904,-0.5024,-0.5002,-0.5018,-0.5018,-0.5018,-0.5018,-0.5018,-0.5018,-0.5018,-0.4916,-0.4825,-0.4724,-0.4581,-0.4494,-0.4336,-0.422,-0.4052,-0.3867,-0.3852,-0.3875,-0.3884,-0.3782,-0.3732,-0.3621,-0.3619,-0.3677,-0.3606,-0.3528,-0.345,-0.3217,-0.2982,-0.2823,-0.2877,-0.2791,-0.2389,-0.2424,-0.2305,-0.1605,-0.1707,-0.1827,-0.1812,-0.171,-0.1547,-0.1412,-0.1412,-0.1144,-0.0942,-0.101,-0.1079,-0.108,-0.0944,-0.1012,-0.1012,-0.1013,-0.1026,-0.111,-0.1186,-0.1114,-0.1113,-0.0888,-0.054,-0.0135,0.054,0.0945,0.108,0.108,0.0945,0.0809,0.0472,0.0472,0.0472,0.054,0.0809,0.1012,0.1079,0.1078,0.1078,0.1078,0.1078,0.1078,0.1078,0.1078,0.1145,0.1144,0.1143,0.121,0.1344,0.1344,0.1277,0.1344,0.1412,0.1412,0.1412,0.1344,0.1344,0.1344,0.1277,0.1143,0.1068,0.106,0.1052,0.1044,0.1035,-0.251,-0.2904,-0.2824,-0.3057,-0.3602,-0.3921,-0.4392,-0.494,-0.482,-0.4838,-0.4929,-0.4988,-0.4963,-0.5015,-0.5015,-0.5015,-0.5012,-0.5004,-0.5002,-0.5002,-0.4988,-0.4791,-0.4414,-0.4498,-0.4313,-0.3963,-0.3844,-0.3814,-0.3783,-0.3516,-0.3607,-0.3784,-0.3809,-0.3673,-0.3437,-0.3117,-0.311,-0.3444,-0.3294,-0.3139,-0.3139,-0.3061,-0.2904,-0.2663,-0.271,-0.2456,-0.2131,-0.194,-0.1757,-0.1674,-0.1421,-0.1407,-0.1468,-0.1438,-0.1418,-0.1412,-0.1212,-0.0876,-0.0539,-0.0742,-0.1012,-0.0945,-0.0674,-0.0607,-0.0809,-0.081,-0.075,-0.0969,-0.1046,-0.0972,-0.0272,-0.0,-0.0,-0.0,-0.0,-0.0,0.0877,0.108,0.0944,0.0742,0.0742,0.0809,0.0741,0.0741,0.0944,0.1011,0.1078,0.1077,0.1076,0.1077,0.1078,0.1078,0.1078,0.1078,0.1078,0.1076,0.1143,0.1143,0.121,0.1211,0.1144,0.1143,0.121,0.1278,0.1345,0.1345,0.1345,0.1276,0.1205,0.1067,0.1054,0.0976,0.1029,0.1018,0.094,-0.2629,-0.3033,-0.2947,-0.3321,-0.3802,-0.4346,-0.4748,-0.4994,-0.5014,-0.498,-0.5007,-0.4916,-0.4927,-0.4955,-0.4942,-0.4955,-0.4991,-0.5018,-0.5005,-0.4996,-0.4779,-0.4505,-0.4087,-0.4199,-0.4021,-0.373,-0.3559,-0.3505,-0.3591,-0.353,-0.346,-0.3448,-0.3501,-0.3448,-0.3214,-0.2821,-0.2823,-0.3137,-0.3061,-0.2982,-0.2904,-0.2746,-0.2588,-0.2578,-0.241,-0.2163,-0.1999,-0.181,-0.1564,-0.1407,-0.1234,-0.122,-0.1205,-0.1255,-0.1228,-0.1284,-0.1012,-0.0674,-0.027,-0.054,-0.0674,-0.1012,-0.0742,-0.054,-0.0472,-0.0338,-0.0,-0.0,-0.0,-0.0479,-0.0,-0.0,-0.0,-0.0,-0.0,-0.0,0.0674,0.0945,0.0877,0.0741,0.0876,0.0943,0.0875,0.0942,0.1078,0.1078,0.1078,0.1076,0.1076,0.1076,0.1078,0.1078,0.1012,0.1012,0.1078,0.1077,0.1076,0.1076,0.1076,0.1077,0.1077,0.101,0.1077,0.1145,0.1212,0.1273,0.1204,0.1133,0.1062,0.0987,0.0901,0.0821,0.094,0.0991,0.0913,-0.2797,-0.3218,-0.3132,-0.3421,-0.3854,-0.4538,-0.4889,-0.5014,-0.501,-0.4986,-0.4923,-0.4814,-0.4833,-0.4909,-0.4923,-0.4906,-0.4873,-0.4927,-0.4914,-0.4712,-0.4423,-0.4145,-0.3928,-0.3894,-0.3792,-0.3574,-0.3495,-0.3459,-0.3467,-0.3401,-0.34,-0.3379,-0.335,-0.3214,-0.2982,-0.2668,-0.2824,-0.2904,-0.2982,-0.2902,-0.2668,-0.2431,-0.2273,-0.2431,-0.212,-0.1884,-0.1799,-0.1774,-0.1521,-0.1353,-0.1182,-0.1161,-0.1081,-0.0988,-0.1034,-0.1016,-0.0675,-0.054,-0.0337,-0.0202,-0.0337,-0.0674,-0.0809,-0.054,-0.0,-0.0,-0.0,-0.0,-0.0,-0.0,-0.0,-0.0,-0.0,-0.0,-0.0,0.0135,0.0405,0.0742,0.1079,0.101,0.1077,0.1076,0.1009,0.101,0.1078,0.1077,0.1077,0.1077,0.1076,0.1078,0.1078,0.1012,0.0944,0.0944,0.0944,0.1078,0.1077,0.1077,0.1078,0.1011,0.0944,0.0944,0.1011,0.1076,0.113,0.1191,0.1125,0.1057,0.105,0.0969,0.0752,0.0675,0.0853,0.0958,0.0939,-0.2714,-0.336,-0.3229,-0.3402,-0.3832,-0.4323,-0.4688,-0.4969,-0.5013,-0.4912,-0.4876,-0.4896,-0.4871,-0.4876,-0.4955,-0.4793,-0.4704,-0.4768,-0.4678,-0.4315,-0.3982,-0.371,-0.3464,-0.3682,-0.3551,-0.3386,-0.344,-0.3499,-0.3417,-0.3196,-0.3208,-0.3333,-0.3196,-0.3057,-0.281,-0.2652,-0.2666,-0.2743,-0.2662,-0.2584,-0.2507,-0.2271,-0.2195,-0.2196,-0.1959,-0.1803,-0.1641,-0.1626,-0.1537,-0.1283,-0.1256,-0.1227,-0.1057,-0.0756,-0.0814,-0.0877,-0.0742,-0.0405,-0.0135,-0.0135,-0.0135,-0.0405,-0.027,-0.0135,-0.0,-0.0,-0.0,-0.0,-0.0,-0.0,-0.0,-0.0,-0.0,-0.0,-0.0,-0.0,-0.0,0.0607,0.0944,0.1078,0.1078,0.1077,0.1076,0.1078,0.1078,0.1077,0.1076,0.1076,0.1077,0.101,0.0876,0.0742,0.0945,0.0945,0.0877,0.1011,0.0943,0.101,0.1011,0.1012,0.0877,0.0809,0.0874,0.0936,0.099,0.0915,0.0718,0.0717,0.0971,0.0947,0.0731,0.0718,0.0888,0.087,0.0683,-0.2787,-0.3287,-0.357,-0.3636,-0.3779,-0.4651,-0.4983,-0.4902,-0.4922,-0.4952,-0.483,-0.48,-0.4776,-0.4762,-0.486,-0.4819,-0.4678,-0.4576,-0.4178,-0.3765,-0.3513,-0.3393,-0.3313,-0.3434,-0.3407,-0.3307,-0.3244,-0.3241,-0.3266,-0.3185,-0.3203,-0.3071,-0.2955,-0.2798,-0.2618,-0.2536,-0.2513,-0.2504,-0.2437,-0.2381,-0.2239,-0.2103,-0.204,-0.2038,-0.1705,-0.1541,-0.1536,-0.144,-0.1353,-0.1258,-0.1243,-0.1308,-0.1143,-0.0841,-0.069,-0.1035,-0.0951,-0.0607,-0.0135,-0.0405,-0.0472,-0.0472,-0.0,-0.0,-0.0,-0.0,-0.0,-0.0,-0.0,-0.0,-0.0,-0.0,-0.0,-0.0,-0.0,-0.0,-0.0,-0.0,0.0742,0.0877,0.1011,0.1078,0.1076,0.1077,0.1078,0.1077,0.1076,0.1076,0.0942,0.0808,0.0607,0.0405,0.0674,0.0945,0.0877,0.0877,0.0741,0.0741,0.1012,0.0945,0.0809,0.0808,0.0669,0.0794,0.1043,0.0777,0.0387,0.0253,0.0371,0.0545,0.071,0.0701,0.0635,-0.0,-0.0169,-0.2956,-0.3311,-0.3774,-0.3822,-0.3823,-0.4846,-0.517,-0.4995,-0.4964,-0.4869,-0.473,-0.4654,-0.4541,-0.4565,-0.457,-0.4556,-0.4558,-0.4222,-0.3763,-0.3374,-0.3197,-0.324,-0.3264,-0.3311,-0.332,-0.3163,-0.3161,-0.3044,-0.2974,-0.2963,-0.2893,-0.2699,-0.2734,-0.2587,-0.241,-0.2247,-0.2157,-0.221,-0.2307,-0.2248,-0.2108,-0.1983,-0.1844,-0.1686,-0.1442,-0.1275,-0.1346,-0.1331,-0.1242,-0.101,-0.0866,-0.0932,-0.1061,-0.0695,-0.0483,-0.0757,-0.0815,-0.0877,-0.054,-0.0607,-0.088,-0.0817,-0.0,-0.0,-0.0,-0.0,-0.0,-0.0,-0.0,-0.0,-0.0,-0.0,-0.0,-0.0,-0.0,-0.0,-0.0,-0.0,-0.0,0.0944,0.1078,0.1078,0.1077,0.1076,0.1076,0.1076,0.1076,0.1076,0.0942,0.0741,0.0472,-0.0,-0.0,-0.0,0.0945,0.0809,0.0607,-0.0,-0.0,-0.0,-0.0,-0.0,0.033,0.0586,-0.0,0.0439,-0.0185,-0.0181,-0.0236,-0.0118,0.0058,0.0342,0.0225,-0.0449,-0.0841,-0.3092,-0.3513,-0.3701,-0.3999,-0.425,-0.4352,-0.4905,-0.5412,-0.4978,-0.4773,-0.4635,-0.4434,-0.431,-0.4247,-0.4234,-0.4055,-0.3666,-0.3951,-0.3717,-0.3398,-0.323,-0.3161,-0.3185,-0.3221,-0.3243,-0.305,-0.298,-0.2764,-0.2601,-0.2583,-0.2577,-0.2552,-0.251,-0.2425,-0.2191,-0.1964,-0.1814,-0.1876,-0.1966,-0.2119,-0.1977,-0.184,-0.1697,-0.1474,-0.132,-0.1169,-0.1243,-0.1233,-0.1147,-0.0774,-0.0492,-0.0489,-0.0758,-0.041,-0.0,-0.0,-0.0,-0.0809,-0.0809,-0.0475,-0.0548,-0.0769,-0.0,-0.0,-0.0,-0.0,-0.0,-0.0,-0.0,-0.0,-0.0,-0.0,-0.0,-0.0,-0.0,-0.0,-0.0,-0.0,-0.0,-0.0,0.1011,0.0944,0.1011,0.101,0.0943,0.0943,0.1078,0.1078,0.0944,0.0741,0.0404,-0.0,-0.0,-0.0,-0.0,0.0809,0.0471,-0.0,-0.0,-0.0,-0.0,-0.0,-0.0,-0.0,-0.0,-0.0,-0.0592,-0.0643,-0.0697,-0.0699,-0.0577,-0.0283,-0.0224,-0.0673,-0.101,-0.3362,-0.3511,-0.3709,-0.4055,-0.4515,-0.4396,-0.4542,-0.4905,-0.5219,-0.4974,-0.4433,-0.4364,-0.426,-0.4157,-0.4012,-0.3837,-0.3583,-0.3801,-0.3592,-0.3377,-0.3228,-0.3092,-0.3042,-0.305,-0.3053,-0.2834,-0.2722,-0.2659,-0.2435,-0.2391,-0.2192,-0.2162,-0.2219,-0.2156,-0.2003,-0.1758,-0.1605,-0.147,-0.1695,-0.178,-0.1714,-0.1666,-0.1531,-0.1312,-0.1287,-0.1069,-0.0923,-0.1051,-0.1038,-0.0825,-0.0274,-0.0,-0.0,-0.0,-0.0,-0.0,-0.0,-0.0607,-0.0881,-0.0411,-0.021,-0.0429,-0.0507,-0.0505,-0.0141,-0.0,-0.0,-0.0,-0.0,-0.0,-0.0,-0.0,-0.0,-0.0,-0.0,-0.0,-0.0,-0.0,-0.0,-0.0,-0.0,0.0674,0.0809,0.0944,0.0809,0.0742,0.0945,0.108,0.0945,0.0742,0.0405,-0.0,-0.0,-0.0,-0.0,-0.0,-0.0,-0.0,-0.0,-0.0,-0.0,-0.0,-0.0,-0.0,-0.0,-0.0,-0.0696,-0.0976,-0.1029,-0.0916,-0.0969,-0.0957,-0.101,-0.101,-0.1178,-0.3563,-0.3639,-0.3842,-0.4172,-0.4526,-0.4351,-0.4332,-0.4414,-0.5014,-0.4968,-0.4163,-0.4136,-0.4084,-0.3956,-0.3799,-0.3637,-0.3509,-0.3504,-0.3433,-0.3228,-0.3092,-0.2956,-0.2889,-0.2824,-0.2831,-0.2622,-0.2488,-0.2356,-0.2221,-0.2221,-0.2095,-0.2053,-0.1951,-0.2028,-0.1942,-0.1701,-0.1412,-0.1285,-0.1367,-0.1524,-0.1459,-0.1476,-0.1279,-0.1063,-0.1047,-0.111,-0.0829,-0.0821,-0.068,-0.0542,-0.0,-0.0,-0.0,-0.0,-0.0,-0.0,-0.0,-0.0,-0.0475,-0.0415,-0.0,-0.0,-0.0435,-0.0503,-0.0424,-0.0,-0.0,-0.0,-0.0,-0.0,-0.0,-0.0,-0.0,-0.0,-0.0,-0.0,-0.0,-0.0,-0.0,-0.0,-0.0,0.0472,0.0809,0.0945,0.0742,0.0674,0.0877,0.1012,0.1012,0.0742,0.0405,-0.0,-0.0,-0.0,-0.0,-0.0,-0.0,-0.0,-0.0,-0.0,-0.0,-0.0678,-0.0913,-0.0,-0.0,-0.0,-0.0855,-0.1191,-0.1185,-0.1012,-0.1122,-0.1234,-0.129,-0.129,-0.1347,-0.3758,-0.403,-0.4172,-0.4308,-0.4314,-0.428,-0.4327,-0.4241,-0.4354,-0.4201,-0.3837,-0.363,-0.3594,-0.3513,-0.3385,-0.324,-0.3234,-0.3228,-0.3295,-0.3228,-0.2956,-0.2956,-0.2891,-0.2824,-0.2622,-0.249,-0.2423,-0.2221,-0.2018,-0.2153,-0.2085,-0.1951,-0.1904,-0.1839,-0.1889,-0.1683,-0.1412,-0.1144,-0.1281,-0.1352,-0.1355,-0.1362,-0.1093,-0.0888,-0.0818,-0.0816,-0.0747,-0.0406,-0.0,-0.0,-0.0,-0.0,-0.0,-0.0,-0.0,-0.0,-0.0,-0.0135,-0.0068,-0.0,-0.0,-0.0,-0.0,-0.036,-0.0777,-0.0,-0.0,-0.0,-0.0,-0.0,-0.0,-0.0,-0.0,-0.0,-0.0,-0.0,-0.0,-0.0,-0.0,-0.0,-0.0,0.027,0.0742,0.1012,0.0674,0.0674,0.0877,0.0945,0.1012,0.0877,0.0472,-0.0,-0.0,-0.0,-0.0,-0.0,-0.0,-0.0,-0.0,-0.0,-0.0303,-0.0478,-0.0708,-0.0997,-0.1099,-0.1022,-0.1185,-0.1404,-0.1347,-0.129,-0.129,-0.1347,-0.1515,-0.1572,-0.1628,-0.3894,-0.403,-0.4436,-0.4439,-0.4306,-0.4271,-0.4193,-0.3966,-0.3931,-0.3743,-0.3466,-0.3299,-0.3295,-0.3228,-0.3025,-0.2889,-0.2889,-0.3159,-0.3295,-0.3498,-0.2956,-0.2622,-0.2555,-0.2555,-0.2421,-0.2356,-0.2288,-0.2221,-0.2153,-0.2153,-0.2085,-0.1951,-0.1748,-0.1681,-0.1614,-0.1412,-0.1143,-0.1144,-0.1145,-0.1214,-0.1212,-0.1212,-0.1078,-0.0809,-0.0607,-0.0,-0.0,-0.0,-0.0,-0.0,-0.0,-0.0,-0.0,-0.0,-0.0,-0.0,-0.027,-0.0472,-0.0,-0.0,-0.0,-0.0,-0.0,-0.0,-0.0,-0.0,-0.0,-0.0,-0.0,-0.0,-0.0,-0.0,-0.0,-0.0,-0.0,-0.0,-0.0,-0.0,-0.0,-0.0,-0.0,-0.0,0.0809,0.108,0.0877,0.0809,0.0945,0.0945,0.0945,0.0877,0.0607,-0.0405,-0.0,-0.0,-0.0,-0.0,-0.0,-0.0,-0.0,-0.0,-0.0175,-0.0463,-0.0633,-0.0973,-0.1191,-0.1403,-0.1572,-0.1684,-0.1628,-0.1628,-0.1515,-0.1515,-0.1684,-0.174,-0.1797,-0.403,-0.403,-0.4436,-0.4506,-0.4439,-0.4233,-0.403,-0.3828,-0.3694,-0.3422,-0.3088,-0.309,-0.3092,-0.2956,-0.2822,-0.2686,-0.2753,-0.2889,-0.3092,-0.3362,-0.2822,-0.2487,-0.2287,-0.2288,-0.2288,-0.2221,-0.2154,-0.2153,-0.2085,-0.2085,-0.1951,-0.1816,-0.1614,-0.1547,-0.1479,-0.1344,-0.1143,-0.1144,-0.1144,-0.101,-0.0944,-0.0877,-0.0809,-0.054,-0.0,-0.0,-0.0,-0.0,-0.0135,-0.0202,-0.0202,-0.0135,-0.0202,-0.0,-0.0,-0.0,-0.0337,-0.054,-0.0,-0.0,-0.0,-0.0,-0.0,-0.0,-0.0,-0.0,-0.0,-0.0,-0.0,-0.0,-0.0,-0.0,-0.0,-0.0,-0.0,-0.0,-0.0,-0.0,-0.0,-0.0,-0.0,-0.0,0.0674,0.0945,0.1012,0.1012,0.108,0.0945,0.0809,0.0809,0.0674,-0.0135,-0.0944,-0.0808,-0.0465,-0.0,-0.0,-0.0,-0.0239,-0.0288,-0.04,-0.0682,-0.0789,-0.101,-0.1403,-0.1741,-0.1908,-0.1964,-0.1852,-0.174,-0.1685,-0.174,-0.1852,-0.1908,-0.1964,-0.403,-0.403,-0.4233,-0.4506,-0.4643,-0.4097,-0.383,-0.377,-0.3567,-0.3159,-0.2753,-0.2889,-0.2889,-0.2686,-0.2686,-0.2619,-0.2619,-0.2686,-0.2688,-0.2688,-0.2418,-0.2285,-0.222,-0.2221,-0.2153,-0.2153,-0.2153,-0.2018,-0.1884,-0.1884,-0.1816,-0.1614,-0.1412,-0.1412,-0.1412,-0.1278,-0.1144,-0.1077,-0.1077,-0.0943,-0.0809,-0.054,-0.0405,-0.027,-0.0,-0.0,-0.0,-0.0,-0.0405,-0.0472,-0.0405,-0.054,-0.054,-0.0337,-0.0,-0.0,-0.0,-0.0405,-0.0607,-0.0202,-0.0,-0.0,-0.0,-0.0,-0.0,-0.0,-0.0,-0.0,0.027,0.027,-0.0,-0.0,-0.0,-0.0,-0.0,-0.0,-0.0,-0.0,-0.0,-0.0,-0.0,0.0202,0.027,0.054,0.0809,0.0945,0.0742,0.0202,0.0202,0.0674,0.0472,0.0269,-0.0471,-0.1008,-0.0726,-0.0449,-0.0314,-0.0307,-0.0763,-0.0905,-0.0955,-0.0954,-0.1066,-0.1346,-0.1797,-0.2077,-0.2076,-0.2018,-0.1852,-0.1852,-0.1852,-0.185,-0.1961,-0.213,-0.2186,-0.4097,-0.4233,-0.43,-0.437,-0.4303,-0.3696,-0.3563,-0.3703,-0.3362,-0.2956,-0.2686,-0.2622,-0.2555,-0.249,-0.2421,-0.2354,-0.2354,-0.2354,-0.2354,-0.2287,-0.2151,-0.222,-0.2154,-0.2085,-0.2018,-0.1884,-0.1884,-0.1884,-0.1748,-0.1681,-0.1614,-0.1412,-0.1345,-0.1346,-0.1144,-0.0943,-0.0943,-0.101,-0.101,-0.1011,-0.0741,-0.0472,-0.027,-0.0202,-0.0472,-0.0607,-0.0674,-0.0472,-0.054,-0.027,-0.0674,-0.0809,-0.0202,-0.0,-0.0,-0.0,-0.0,-0.0135,-0.0,-0.0607,-0.054,-0.0,-0.0,-0.0,-0.0,-0.0,-0.0,-0.0,-0.0,0.0202,0.0337,-0.0,-0.0,-0.0,-0.0,-0.0,0.0405,0.0607,0.0607,0.0472,0.0405,-0.0067,-0.0,0.0135,0.0405,0.0607,0.0405,-0.0202,-0.0403,-0.0,0.0201,-0.0067,-0.0266,-0.0862,-0.1043,-0.0825,-0.0622,-0.0547,-0.0988,-0.1293,-0.1234,-0.1234,-0.1403,-0.1684,-0.2076,-0.213,-0.2073,-0.2017,-0.1962,-0.2017,-0.2017,-0.2017,-0.2071,-0.2296,-0.241,-0.3961,-0.4033,-0.4233,-0.4167,-0.3763,-0.3291,-0.3159,-0.3295,-0.3092,-0.2822,-0.2554,-0.2423,-0.2356,-0.2356,-0.2288,-0.2221,-0.222,-0.222,-0.2221,-0.2154,-0.1884,-0.1748,-0.1748,-0.1883,-0.1748,-0.1681,-0.1681,-0.1748,-0.1614,-0.148,-0.1412,-0.1212,-0.1279,-0.1212,-0.1078,-0.0944,-0.0742,-0.0742,-0.0742,-0.0945,-0.0877,-0.0674,-0.054,-0.0472,-0.0877,-0.0945,-0.108,-0.0809,-0.0607,-0.0472,-0.1012,-0.0945,-0.0405,-0.0,-0.0,-0.0,-0.0,-0.0,-0.0,-0.0,-0.0337,-0.0,-0.0,-0.0,-0.0,-0.0,-0.0,-0.0,-0.0,0.0135,0.0337,-0.0,-0.0,-0.0,-0.0,-0.0,0.0809,0.1012,0.1012,0.0945,0.054,-0.0067,-0.0202,-0.0067,-0.0,0.0135,-0.0067,-0.0607,-0.0803,-0.0663,-0.0528,-0.0592,-0.0654,-0.0911,-0.0959,-0.1069,-0.0927,-0.0784,-0.1046,-0.1245,-0.1351,-0.1458,-0.157,-0.1906,-0.2242,-0.224,-0.2238,-0.2184,-0.2128,-0.2183,-0.2238,-0.2296,-0.2352,-0.2521,-0.2635,-0.3694,-0.3565,-0.4033,-0.3832,-0.3226,-0.2889,-0.2686,-0.2686,-0.2822,-0.269,-0.2288,-0.2288,-0.2288,-0.2221,-0.2153,-0.2153,-0.2153,-0.2153,-0.2085,-0.2153,-0.1547,-0.1277,-0.1345,-0.1344,-0.148,-0.1547,-0.1547,-0.1547,-0.1481,-0.1413,-0.1212,-0.1078,-0.1146,-0.1147,-0.108,-0.1012,-0.0742,-0.027,-0.0405,-0.0674,-0.1012,-0.108,-0.108,-0.1012,-0.0877,-0.0742,-0.1012,-0.108,-0.108,-0.108,-0.108,-0.108,-0.0674,-0.0,-0.0,-0.0,-0.0,-0.0,-0.0,-0.0,-0.0,-0.0,-0.0,-0.0,-0.0,-0.0,-0.0,-0.0,-0.0,-0.0,-0.0,-0.0,0.0337,0.0405,0.0674,0.0877,0.0945,0.1012,0.0809,0.0742,0.0674,0.0067,-0.0337,-0.027,-0.0472,-0.0337,-0.0472,-0.1012,-0.1063,-0.0983,-0.0976,-0.0969,-0.0889,-0.0883,-0.0946,-0.1056,-0.1041,-0.1075,-0.1213,-0.1305,-0.1462,-0.1628,-0.1794,-0.213,-0.2465,-0.2519,-0.2519,-0.2464,-0.2406,-0.2406,-0.2462,-0.2575,-0.2689,-0.2802,-0.2914,-0.3758,-0.3758,-0.3832,-0.3632,-0.3159,-0.2822,-0.2552,-0.2354,-0.249,-0.2417,-0.222,-0.222,-0.2221,-0.2153,-0.2018,-0.2018,-0.2018,-0.2018,-0.1951,-0.1681,-0.1277,-0.1144,-0.1145,-0.1279,-0.1346,-0.1346,-0.1346,-0.1346,-0.1213,-0.1146,-0.1011,-0.0742,-0.0877,-0.1012,-0.1012,-0.1012,-0.0674,-0.0067,-0.0,-0.0,-0.1012,-0.108,-0.108,-0.1079,-0.0944,-0.0944,-0.1079,-0.108,-0.108,-0.108,-0.108,-0.0809,-0.027,-0.0,-0.0,-0.0,-0.0,-0.0,-0.0,-0.0,-0.0,-0.0,-0.0,-0.0,-0.0,-0.0,-0.0,-0.0,-0.0,-0.0,-0.0,-0.0,0.0472,0.0742,0.0945,0.1012,0.108,0.0809,0.054,0.054,0.0607,0.027,-0.0202,-0.054,-0.0742,-0.0877,-0.0877,-0.1073,-0.1046,-0.1029,-0.1026,-0.095,-0.0917,-0.0909,-0.0977,-0.1039,-0.1083,-0.1185,-0.1323,-0.1475,-0.1573,-0.185,-0.213,-0.2355,-0.2635,-0.2689,-0.2742,-0.2796,-0.274,-0.2685,-0.2629,-0.2742,-0.2854,-0.2968,-0.3079,-0.3627,-0.356,-0.3496,-0.3431,-0.3153,-0.2652,-0.2245,-0.2175,-0.2216,-0.2203,-0.2151,-0.219,-0.2153,-0.2084,-0.1951,-0.1883,-0.1883,-0.1884,-0.1951,-0.1681,-0.1211,-0.1145,-0.1146,-0.1146,-0.0943,-0.0943,-0.1145,-0.1145,-0.0877,-0.0674,-0.054,-0.0607,-0.0809,-0.0607,-0.0607,-0.054,-0.0,-0.0,-0.0,-0.0,-0.1012,-0.108,-0.108,-0.1079,-0.1078,-0.1078,-0.1079,-0.108,-0.108,-0.108,-0.108,-0.0674,-0.0,-0.0,-0.0,-0.0,-0.0,-0.0,-0.0,-0.0,-0.0,-0.0,-0.0,-0.0,-0.0,-0.0,-0.0,-0.0,-0.0,-0.0,-0.0,-0.0,-0.0,0.0809,0.1012,0.108,0.0877,0.0607,0.0405,0.0202,0.027,0.0202,-0.0135,-0.0202,-0.0472,-0.1012,-0.1079,-0.1075,-0.1047,-0.1005,-0.1004,-0.0993,-0.0958,-0.0946,-0.0958,-0.1015,-0.112,-0.1276,-0.1487,-0.1755,-0.1964,-0.2186,-0.2465,-0.2623,-0.279,-0.291,-0.2963,-0.2894,-0.2905,-0.28,-0.2798,-0.2798,-0.2965,-0.3021,-0.3077,-0.3387,-0.3193,-0.3191,-0.3189,-0.3051,-0.2334,-0.1988,-0.1979,-0.1935,-0.1977,-0.1993,-0.2085,-0.1994,-0.194,-0.1806,-0.1811,-0.168,-0.1481,-0.1615,-0.1548,-0.1146,-0.1012,-0.0944,-0.0877,-0.0674,-0.0539,-0.0607,-0.0607,-0.0472,-0.0202,-0.0202,-0.0607,-0.0405,0.0067,0.0067,-0.0,-0.0,-0.0,-0.0,-0.0,-0.0809,-0.108,-0.108,-0.1079,-0.1078,-0.1078,-0.1079,-0.1012,-0.1012,-0.108,-0.1012,-0.0809,-0.0405,-0.0,-0.0,-0.0,-0.0,-0.0,-0.0,-0.0,-0.0,-0.0,-0.0,-0.0,-0.0,-0.0,-0.0,-0.0,-0.0,-0.0,-0.0,-0.0,-0.0,0.0809,0.0877,0.0945,0.0674,-0.0,-0.0,-0.0,-0.0,-0.0,-0.0,-0.0,-0.0335,-0.0872,-0.1072,-0.107,-0.1053,-0.1065,-0.1034,-0.1023,-0.1056,-0.0993,-0.0937,-0.1109,-0.1271,-0.1437,-0.1647,-0.203,-0.2355,-0.2577,-0.2676,-0.2764,-0.2934,-0.3005,-0.2991,-0.2861,-0.2879,-0.2903,-0.2982,-0.2973,-0.2965,-0.3021,-0.2965,-0.3257,-0.3197,-0.3201,-0.3205,-0.3078,-0.2306,-0.1927,-0.1802,-0.1791,-0.1725,-0.1784,-0.1802,-0.1778,-0.1818,-0.1494,-0.144,-0.1469,-0.1137,-0.0806,-0.0674,-0.0536,-0.074,-0.0809,-0.0673,-0.0337,-0.0067,0.0135,0.0067,0.0067,0.027,0.054,0.054,-0.0067,0.027,0.0674,-0.0,-0.0,0.0067,-0.0337,-0.0674,-0.0607,-0.0809,-0.108,-0.1078,-0.1076,-0.1078,-0.1012,-0.0809,-0.0674,-0.0674,-0.0877,-0.0877,-0.0674,-0.0,-0.0,-0.0,-0.0,-0.0,-0.0,-0.0,-0.0,-0.0,-0.0,-0.0,-0.0,-0.0,-0.0,-0.0,-0.0,-0.0,-0.0,-0.0,-0.0,-0.0,0.0607,0.0472,0.0337,-0.0,-0.0,-0.0,-0.0066,-0.0,-0.0,-0.013,-0.0326,-0.0782,-0.0977,-0.0974,-0.1149,-0.1106,-0.1006,-0.1051,-0.1094,-0.108,-0.1076,-0.1369,-0.1532,-0.1698,-0.1866,-0.2193,-0.2521,-0.2854,-0.295,-0.2929,-0.2923,-0.2989,-0.2916,-0.2837,-0.2907,-0.2973,-0.3081,-0.3128,-0.309,-0.3023,-0.2968]},{"header":{"parameterUnit":"m.s-1","parameterCategory":1,"la1":31.0,"la2":29.5877,"lo1":-88.7671,"lo2":-86.6584,"dy":0.0162,"dx":0.0185,"nx":115,"ny":88,"refTime":"2023-07-20T00:00:00:Z","depth":0,"parameterNumber":3,"parameterNumberName":"V-component_of_WINDS"},"data":[0.0,0.0,0.0,0.0,0.0,0.0,0.0,0.0,0.0,0.0,0.0,0.0,0.0,0.0,0.0,0.0,0.0,0.0,0.0,0.0,0.0,0.0,0.0,0.0,0.0,0.0,0.0,0.0,0.0,0.0,0.0,0.0,0.0,0.0,0.0,0.0,0.0,0.0,0.0,0.0,0.0,0.0,0.0,0.0,0.0,0.0,0.0,0.0,0.0,0.0,0.0,0.0,0.0,0.0,0.0,0.0,0.0,0.0,0.0,0.0,0.0,0.0,0.0,0.0,0.0,0.0,0.0,0.0,0.0,0.0,0.0,0.0,0.0,0.0,0.0,0.0,0.0,0.0,0.0,0.0,0.0,0.0,0.0,0.0,0.0,0.0,0.0,0.0,0.0,0.0,0.0,0.0,0.0,0.0,0.0,0.0,0.0,0.0,0.0,0.0,0.0,0.0,0.0,0.0,0.0,0.0,0.0,0.0,0.0,0.0,0.0,0.0,0.0,0.0,0.0,0.0,0.0,0.0,0.0,0.0,0.0,0.0,0.0,0.0,0.0,0.0,0.0,0.0,0.0,0.0,0.0,0.0,0.0,0.0,0.0,0.0,0.0,0.0,0.0,0.0,0.0,0.0,0.0,0.0,0.0,0.0,0.0,0.0,0.0,0.0,0.0,0.0,0.0,0.0,0.0,0.0,0.0,0.0,0.0,0.0,0.0,0.0,0.0,0.0,0.0,0.0,0.0,0.0,0.0,0.0,0.0,0.0,0.0,0.0,0.0,0.0,0.0,0.0,0.0,0.0,0.0,0.0,0.0,0.0,0.0,0.0,0.0,0.0,0.0,0.0,0.0,0.0,0.0,0.0,0.0,0.0,0.0,0.0,0.0,0.0,0.0,0.0,0.0,0.0,0.0,0.0,0.0,0.0,0.0,0.0,0.0,0.0,0.0,0.0,0.0,0.0,0.0,0.0,0.0,0.0,0.0,0.0,0.0,0.0,0.0,0.0,0.0,0.0,0.0,0.0,0.0,0.0,0.0,0.0,0.0,0.0,0.0,0.0,0.0,0.0,0.0,0.0,0.0,0.0,0.0,0.0,0.0,0.0,0.0,0.0,0.0,0.0,0.0,0.0,0.0,0.0,0.0,0.0,0.0,0.0,0.0,0.0,0.0,0.0,0.0,0.0,0.0,0.0,0.0,0.0,0.0,0.0,0.0,0.0,0.0,0.0,0.0,0.0,0.0,0.0,0.0,0.0,0.0,0.0,0.0,0.0,0.0,0.0,0.0,0.0,0.0,0.0,0.0,0.0,0.0,0.0,0.0,0.0,0.0,0.0,0.0,0.0,0.0,0.0,0.0,0.0,0.0,0.0,0.0,0.0,0.0,0.0,0.0,0.0,0.0,0.0,0.0,0.0,0.0,0.0,0.0,0.0,0.0,0.0,0.0,0.0,0.0,0.0,0.0,0.0,0.0,0.0,0.0,0.0,0.0,0.0,0.0,0.0,0.0,0.0,0.0,0.0,0.0,0.0,0.0,0.0,0.0,0.0,0.0,0.0,0.0,0.0,0.0,0.0,0.0,0.0,0.0,0.0,0.0,0.0,0.0,0.0,0.0,0.0,0.0,0.0,0.0,0.0,0.0,0.0,0.0,0.0,0.0,0.0,0.0,0.0,0.0,0.0,0.0,0.0,0.0,0.0,0.0,0.0,0.0,0.0,0.0,0.0,0.0,0.0,0.0,0.0,0.0,0.0,0.0,0.0,0.0,0.0,0.0,0.0,0.0,0.0,0.0,0.0,0.0,0.0,0.0,0.0,0.0,0.0,0.0,0.0,0.0,0.0,0.0,0.0,0.0,0.0,0.0,0.0,0.0,0.0,0.0,0.0,0.0,0.0,0.0,0.0,0.0,0.0,0.0,0.0,0.0,0.0,0.0,0.0,0.0,0.0,0.0,0.0,0.0,0.0,0.0,0.0,0.0,0.0,0.0,0.0,0.0,0.0,0.0,0.0,0.0,0.0,0.0,0.0,0.0,0.0,0.0,0.0,0.0,0.0,0.0,0.0,0.0,0.0,0.0,0.0,0.0,0.0,0.0,0.0,0.0,0.0,0.0,0.0,0.0,0.0,0.0,0.0,0.0,0.0,0.0,0.0,0.0,0.0,0.0,0.0,0.0,0.0,0.0,0.0,0.0,0.0,0.0,0.0,0.0,0.0,0.0,0.0,0.0,0.0,0.0,0.0,0.0,0.0,0.0,0.0,0.0,0.0,0.0,0.0,0.0,0.0,0.0,0.0,0.0,0.0,0.0,0.0,0.0,0.0,0.0,0.0,0.0,0.0,0.0,0.0,0.0,0.0,0.0,0.0,0.0,0.0,0.0,0.0,0.0,0.0,0.0,0.0,0.0,0.0,0.0,0.0,0.0,0.0,0.0,0.0,0.0,0.0,0.0,0.0,0.0,0.0,0.0,0.0,0.0,0.0,0.0,0.0,0.0,0.0,0.0,0.0,0.0,0.0,0.0,0.0,0.0,0.0,0.0,0.0,0.0,0.0,0.0,0.0,0.0,0.0,0.0,0.0,0.0,0.0,0.0,0.0,0.0,0.0,0.0,0.0,0.0,0.0,0.0,0.0,0.0,0.0,0.0,0.0,0.0,0.0,0.0,0.0,0.0,0.0,0.0,0.0,0.0,0.0,0.0,0.0,0.0,0.0,0.0,0.0,0.0,0.0,0.0,0.0,0.0,0.0,0.0,0.0,0.0,0.0,0.0,0.0,0.0,0.0,0.0,0.0,0.0,0.0,0.0,0.0,0.0,0.0,0.0,0.0,0.0,0.0,0.0,0.0,0.0,0.0,0.0,0.0,0.0,0.0,0.0,0.0,0.0,0.0,0.0,0.0,0.0,0.0,0.0,0.0,0.0,0.0,0.0,0.0,0.0,0.0,0.0,0.0,0.0,0.0,0.0,0.0,0.0,0.0,0.0,0.0,0.0,0.0,0.0,0.0,0.0,0.0,0.0,0.0,0.0,0.0,0.0,0.0,0.0,0.0,0.0,0.0,0.0,0.0,0.0,0.0,0.0,0.0,0.0,0.0,0.0,0.0,0.0,0.0,0.0,0.0,0.0,0.0,0.0,0.0,0.0,0.0,0.0,0.0,0.0,0.0,0.0,0.0,0.0,0.0,0.0,0.0,0.0,0.0,0.0,0.0,0.0,0.0,0.0,0.0,0.0,0.0,0.0,0.0,0.0,0.0,0.0,0.0,0.0,0.0,0.0,0.0,0.0,0.0,0.0,0.0,0.0,0.0,0.0,0.0,0.0,0.0,0.0,0.0,0.0,0.0,0.0,0.0,0.0,0.0,0.0,0.0,0.0,0.0,0.0,0.0,0.0,0.0,0.0,0.0,0.0,0.0,0.0,0.0,0.0,0.0,0.0,0.0,0.0,0.0,0.0,0.0,0.0,0.0,0.0,0.0,0.0,0.0,0.0,0.0,0.0,0.0,0.0,0.0,0.0,0.0,0.0,0.0,0.0,0.0,0.0,0.0,0.0,0.0,0.0,0.0,0.0,0.0,0.0,0.0,0.0,0.0,0.0,0.0,0.0,0.0,0.0,0.0,0.0,0.0,0.0,0.0,0.0,0.0,0.0,0.0,0.0,0.0,0.0,0.0,0.0,0.0,0.0,0.0,0.0,0.0,0.0,0.0,0.0,0.0,0.0,0.0,0.0,0.0,0.0,0.0,0.0,0.0,0.0,0.0,0.0,0.0,0.0,0.0,0.0,0.0,0.0,0.0,0.0,0.0,0.0,0.0,0.0,0.0,0.0,0.0,0.0,0.0,0.0,0.0,0.0,0.0,0.0,0.0,0.0,0.0,0.0,0.0,0.0,0.0,0.0,0.0,0.0,0.0,0.0,0.0,0.0,0.0,0.0,0.0,0.0,0.0,0.0,0.0,0.0,0.0,0.0,0.0,0.0,0.0,0.0,0.0,0.0,0.0,0.0,0.0,0.0,0.0,0.0,0.0,0.0,0.0,0.0,0.0,0.0,0.0,0.0,0.0,0.0,0.0,0.0,0.0,0.0,0.0,0.0,0.0,0.0,0.0,0.0,0.0,0.0,0.0,0.0,0.0,0.0,0.0,0.0,0.0,0.0,0.0,0.0,0.0,0.0,0.0,0.0,0.0,0.0,0.0,0.0,0.0,0.0,0.0,0.0,0.0,0.0,0.0,0.0,0.0,0.0,0.0,0.0,0.0,0.0,0.0,0.0,0.0,0.0,0.0,0.0,0.0,-1.4405,0.0,0.0,0.0,0.0,0.0,0.0,0.0,0.0,0.0,0.0,0.0,0.0,0.0,0.0,0.0,0.0,0.0,0.0,0.0,0.0,0.0,0.0,0.0,0.0,0.0,0.0,0.0,0.0,0.0,0.0,0.0,0.0,0.0,0.0,0.0,0.0,0.0,0.0,0.0,0.0,0.0,0.0,0.0,0.0,0.0,0.0,0.0,0.0,0.0,0.0,0.0,0.0,0.0,0.0,0.0,0.0,0.0,0.0,0.0,0.0,0.0,0.0,0.0,0.0,0.0,0.0,0.0,0.0,0.0,0.0,0.0,0.0,0.0,0.0,0.0,0.0,0.0,0.0,0.0,0.0,0.0,0.0,0.0,0.0,0.0,0.0,0.0,0.0,0.0,0.0,0.0,0.0,0.0,0.0,0.0,0.0,0.0,0.0,0.0,0.0,0.0,0.0,0.0,0.0,0.0,0.0,0.0,0.0,0.0,0.0,-1.5397,-1.4511,-1.4434,-1.4356,-1.4301,0.0,0.0,0.0,0.0,0.0,0.0,0.0,0.0,0.0,0.0,0.0,0.0,0.0,0.0,0.0,0.0,0.0,0.0,0.0,0.0,0.0,0.0,0.0,0.0,0.0,0.0,0.0,0.0,0.0,0.0,0.0,0.0,0.0,0.0,0.0,0.0,0.0,0.0,0.0,0.0,0.0,0.0,0.0,0.0,0.0,0.0,0.0,0.0,0.0,0.0,0.0,0.0,0.0,0.0,0.0,0.0,0.0,0.0,0.0,0.0,0.0,0.0,0.0,0.0,0.0,0.0,0.0,0.0,0.0,0.0,0.0,0.0,0.0,0.0,0.0,0.0,0.0,0.0,0.0,0.0,0.0,0.0,0.0,0.0,0.0,0.0,0.0,0.0,0.0,0.0,0.0,0.0,0.0,0.0,0.0,0.0,0.0,0.0,0.0,0.0,0.0,0.0,0.0,0.0,0.0,0.0,0.0,0.0,0.0,0.0,0.0,0.0,-1.4417,-1.4356,-1.4263,0.0,0.0,0.0,0.0,0.0,0.0,0.0,0.0,0.0,0.0,0.0,0.0,0.0,0.0,0.0,0.0,0.0,0.0,0.0,0.0,0.0,0.0,0.0,0.0,0.0,0.0,0.0,0.0,0.0,0.0,0.0,0.0,0.0,0.0,0.0,0.0,0.0,0.0,0.0,0.0,0.0,0.0,0.0,0.0,0.0,0.0,0.0,0.0,0.0,0.0,0.0,0.0,0.0,0.0,0.0,0.0,0.0,0.0,0.0,0.0,0.0,0.0,0.0,0.0,0.0,0.0,0.0,0.0,0.0,0.0,0.0,0.0,0.0,0.0,0.0,0.0,0.0,0.0,0.0,0.0,0.0,0.0,0.0,0.0,0.0,0.0,0.0,0.0,0.0,0.0,0.0,0.0,0.0,0.0,0.0,0.0,0.0,0.0,0.0,0.0,0.0,0.0,0.0,0.0,0.0,0.0,0.0,0.0,0.0,0.0,-1.4416,-1.4404,-1.4399,0.0,-1.4464,0.0,0.0,0.0,0.0,0.0,0.0,0.0,0.0,0.0,0.0,0.0,0.0,0.0,0.0,0.0,0.0,0.0,0.0,0.0,0.0,0.0,0.0,0.0,0.0,0.0,0.0,0.0,0.0,0.0,0.0,0.0,0.0,0.0,0.0,0.0,0.0,0.0,0.0,0.0,0.0,0.0,0.0,0.0,0.0,0.0,0.0,0.0,0.0,0.0,0.0,0.0,0.0,0.0,0.0,0.0,0.0,0.0,0.0,0.0,0.0,0.0,0.0,0.0,0.0,0.0,0.0,0.0,0.0,0.0,0.0,0.0,0.0,0.0,0.0,0.0,0.0,0.0,0.0,0.0,0.0,0.0,0.0,0.0,0.0,0.0,0.0,0.0,0.0,0.0,0.0,0.0,0.0,0.0,0.0,0.0,0.0,0.0,0.0,0.0,0.0,0.0,0.0,0.0,0.0,0.0,0.0,0.0,0.0,0.0,0.0,-1.4264,-1.4338,-1.4119,-1.4132,0.0,0.0,0.0,0.0,0.0,0.0,0.0,0.0,0.0,0.0,0.0,0.0,0.0,0.0,0.0,0.0,0.0,0.0,0.0,0.0,0.0,0.0,0.0,0.0,0.0,0.0,0.0,0.0,0.0,0.0,0.0,0.0,0.0,0.0,0.0,0.0,0.0,0.0,0.0,0.0,0.0,0.0,0.0,0.0,0.0,0.0,0.0,0.0,0.0,0.0,0.0,0.0,0.0,0.0,0.0,0.0,0.0,0.0,0.0,0.0,0.0,0.0,0.0,0.0,0.0,0.0,0.0,0.0,0.0,0.0,0.0,0.0,0.0,0.0,0.0,0.0,0.0,0.0,0.0,0.0,0.0,0.0,0.0,0.0,0.0,0.0,0.0,0.0,0.0,0.0,0.0,0.0,0.0,0.0,0.0,0.0,0.0,0.0,0.0,0.0,0.0,0.0,0.0,0.0,0.0,0.0,0.0,0.0,0.0,0.0,-1.4221,-1.4196,-1.425,-1.4023,-1.4044,-1.442,0.0,0.0,0.0,0.0,0.0,0.0,0.0,0.0,0.0,0.0,0.0,0.0,0.0,0.0,0.0,0.0,0.0,0.0,0.0,0.0,0.0,0.0,0.0,0.0,0.0,0.0,0.0,0.0,0.0,0.0,0.0,0.0,0.0,0.0,0.0,0.0,0.0,0.0,0.0,0.0,0.0,0.0,0.0,0.0,0.0,0.0,0.0,0.0,0.0,0.0,0.0,0.0,0.0,0.0,0.0,0.0,0.0,0.0,0.0,0.0,0.0,0.0,0.0,0.0,0.0,0.0,0.0,0.0,0.0,0.0,0.0,0.0,0.0,0.0,0.0,0.0,0.0,0.0,0.0,0.0,0.0,0.0,0.0,0.0,0.0,0.0,0.0,0.0,0.0,0.0,0.0,0.0,0.0,0.0,0.0,0.0,0.0,0.0,0.0,0.0,0.0,0.0,0.0,0.0,0.0,0.0,0.0,0.0,-1.4335,-1.4167,-1.4136,-1.4203,-1.4247,-1.4347,0.0,0.0,0.0,0.0,0.0,0.0,0.0,0.0,0.0,0.0,0.0,0.0,0.0,0.0,0.0,0.0,0.0,0.0,0.0,0.0,0.0,0.0,0.0,0.0,0.0,0.0,0.0,0.0,0.0,0.0,0.0,0.0,0.0,0.0,0.0,0.0,0.0,0.0,0.0,0.0,0.0,0.0,0.0,0.0,0.0,0.0,0.0,0.0,0.0,0.0,0.0,0.0,0.0,0.0,0.0,0.0,0.0,0.0,0.0,0.0,0.0,0.0,0.0,0.0,0.0,0.0,0.0,0.0,0.0,0.0,0.0,0.0,0.0,0.0,0.0,0.0,0.0,0.0,0.0,0.0,0.0,0.0,0.0,0.0,0.0,0.0,0.0,0.0,0.0,0.0,0.0,0.0,0.0,0.0,0.0,0.0,0.0,0.0,0.0,0.0,0.0,0.0,0.0,0.0,0.0,0.0,0.0,0.0,0.0,-1.4286,-1.4074,-1.3902,-1.3771,-1.3888,-1.4118,0.0,0.0,0.0,0.0,0.0,0.0,0.0,0.0,0.0,0.0,0.0,0.0,0.0,0.0,0.0,0.0,0.0,0.0,0.0,0.0,0.0,0.0,0.0,0.0,0.0,0.0,0.0,0.0,0.0,0.0,0.0,0.0,0.0,0.0,0.0,0.0,0.0,0.0,0.0,0.0,0.0,0.0,0.0,0.0,0.0,0.0,0.0,0.0,0.0,0.0,0.0,0.0,0.0,0.0,0.0,0.0,0.0,0.0,0.0,0.0,0.0,0.0,0.0,0.0,0.0,0.0,0.0,0.0,0.0,0.0,0.0,0.0,0.0,0.0,0.0,0.0,0.0,0.0,0.0,0.0,0.0,0.0,0.0,0.0,0.0,0.0,0.0,0.0,0.0,0.0,0.0,0.0,0.0,0.0,0.0,0.0,0.0,0.0,0.0,0.0,0.0,0.0,0.0,0.0,0.0,0.0,0.0,0.0,0.0,-1.4193,0.0,-1.3801,-1.3665,-1.3827,-1.4091,0.0,0.0,0.0,0.0,0.0,0.0,0.0,0.0,0.0,0.0,0.0,0.0,0.0,0.0,0.0,0.0,0.0,0.0,0.0,0.0,0.0,0.0,0.0,0.0,0.0,0.0,0.0,0.0,0.0,0.0,0.0,0.0,0.0,0.0,0.0,0.0,0.0,0.0,0.0,0.0,0.0,0.0,0.0,0.0,0.0,0.0,0.0,0.0,0.0,0.0,0.0,0.0,0.0,0.0,0.0,0.0,0.0,0.0,0.0,0.0,0.0,0.0,0.0,0.0,0.0,0.0,0.0,0.0,0.0,0.0,0.0,0.0,0.0,0.0,0.0,0.0,0.0,0.0,0.0,0.0,0.0,0.0,0.0,0.0,0.0,0.0,0.0,0.0,0.0,0.0,0.0,0.0,0.0,0.0,0.0,0.0,0.0,0.0,0.0,0.0,0.0,0.0,0.0,0.0,0.0,0.0,0.0,0.0,-1.4493,-1.4105,-1.3963,-1.3845,-1.3891,-1.406,-1.425,0.0,0.0,0.0,0.0,0.0,0.0,0.0,0.0,0.0,0.0,0.0,0.0,0.0,0.0,0.0,0.0,0.0,0.0,0.0,0.0,0.0,0.0,0.0,0.0,0.0,0.0,0.0,0.0,0.0,0.0,0.0,0.0,0.0,0.0,0.0,0.0,0.0,0.0,0.0,0.0,0.0,0.0,0.0,0.0,0.0,0.0,0.0,0.0,0.0,0.0,0.0,0.0,0.0,0.0,0.0,0.0,0.0,0.0,0.0,0.0,0.0,0.0,0.0,0.0,0.0,0.0,0.0,0.0,0.0,0.0,0.0,0.0,0.0,0.0,0.0,0.0,0.0,0.0,0.0,0.0,0.0,0.0,0.0,0.0,0.0,0.0,0.0,0.0,0.0,0.0,0.0,0.0,0.0,0.0,0.0,0.0,0.0,0.0,0.0,0.0,0.0,0.0,0.0,0.0,0.0,0.0,0.0,0.0,0.0,-1.3561,-1.3457,-1.3378,-1.3311,-1.3704,-1.4038,0.0,0.0,0.0,0.0,0.0,0.0,0.0,0.0,0.0,0.0,0.0,0.0,0.0,0.0,0.0,0.0,0.0,0.0,0.0,0.0,0.0,0.0,0.0,0.0,0.0,0.0,0.0,0.0,0.0,0.0,0.0,0.0,0.0,0.0,0.0,0.0,0.0,0.0,0.0,0.0,0.0,0.0,0.0,0.0,0.0,0.0,0.0,0.0,0.0,0.0,0.0,0.0,0.0,0.0,0.0,0.0,0.0,0.0,0.0,0.0,0.0,0.0,0.0,0.0,0.0,0.0,0.0,0.0,0.0,0.0,0.0,0.0,0.0,0.0,0.0,0.0,0.0,0.0,0.0,0.0,0.0,0.0,0.0,0.0,0.0,0.0,0.0,0.0,0.0,0.0,0.0,0.0,0.0,0.0,0.0,0.0,0.0,0.0,0.0,0.0,0.0,0.0,0.0,0.0,0.0,0.0,0.0,0.0,0.0,-1.4444,-1.4314,-1.423,-1.4126,-1.4493,-1.4524,-1.4069,0.0,0.0,0.0,0.0,0.0,0.0,0.0,0.0,0.0,0.0,0.0,0.0,0.0,0.0,0.0,0.0,0.0,0.0,0.0,0.0,0.0,0.0,0.0,0.0,0.0,0.0,0.0,0.0,0.0,0.0,0.0,0.0,0.0,0.0,0.0,0.0,0.0,0.0,0.0,0.0,0.0,0.0,0.0,0.0,0.0,0.0,0.0,0.0,0.0,0.0,0.0,0.0,0.0,0.0,0.0,0.0,0.0,0.0,0.0,0.0,0.0,0.0,0.0,0.0,0.0,0.0,0.0,0.0,0.0,0.0,0.0,0.0,0.0,0.0,0.0,0.0,0.0,0.0,0.0,0.0,0.0,0.0,0.0,0.0,0.0,0.0,0.0,0.0,0.0,0.0,0.0,0.0,0.0,0.0,0.0,0.0,0.0,0.0,0.0,0.0,0.0,0.0,0.0,0.0,0.0,0.0,0.0,0.0,-1.6454,-1.6426,-1.6324,-1.615,-1.6216,-1.5555,0.0,0.0,0.0,0.0,0.0,0.0,0.0,0.0,0.0,0.0,0.0,0.0,0.0,0.0,0.0,0.0,0.0,0.0,0.0,0.0,0.0,0.0,0.0,0.0,0.0,0.0,0.0,0.0,0.0,0.0,0.0,0.0,0.0,0.0,0.0,0.0,0.0,0.0,0.0,0.0,0.0,0.0,0.0,0.0,0.0,0.0,0.0,0.0,0.0,0.0,0.0,0.0,0.0,0.0,0.0,0.0,0.0,0.0,0.0,0.0,0.0,0.0,0.0,0.0,0.0,0.0,0.0,0.0,0.0,0.0,0.0,0.0,0.0,0.0,0.0,0.0,0.0,0.0,0.0,0.0,0.0,0.0,0.0,0.0,0.0,0.0,0.0,0.0,0.0,0.0,0.0,0.0,0.0,0.0,0.0,0.0,0.0,0.0,0.0,0.0,0.0,0.0,0.0,0.0,0.0,0.0,0.0,0.0,0.0,-1.8276,-1.9466,-1.9398,-1.795,-1.6677,-1.6,0.0,0.0,0.0,0.0,0.0,0.0,0.0,0.0,0.0,0.0,0.0,0.0,0.0,0.0,0.0,0.0,0.0,0.0,0.0,0.0,0.0,0.0,0.0,0.0,0.0,0.0,0.0,0.0,0.0,0.0,0.0,0.0,0.0,0.0,0.0,0.0,0.0,0.0,0.0,0.0,0.0,0.0,0.0,0.0,0.0,0.0,0.0,0.0,0.0,0.0,0.0,0.0,0.0,0.0,0.0,0.0,0.0,0.0,0.0,0.0,0.0,0.0,0.0,0.0,0.0,0.0,0.0,0.0,0.0,0.0,0.0,0.0,0.0,0.0,0.0,0.0,0.0,0.0,0.0,0.0,0.0,0.0,0.0,0.0,0.0,0.0,0.0,0.0,0.0,0.0,0.0,0.0,0.0,0.0,0.0,0.0,0.0,0.0,0.0,0.0,0.0,0.0,0.0,0.0,0.0,0.0,0.0,0.0,-1.8121,-1.8922,-2.1507,-2.2311,-2.1183,-1.8484,-1.6917,0.0,0.0,0.0,0.0,0.0,0.0,0.0,0.0,0.0,0.0,0.0,0.0,0.0,0.0,0.0,0.0,0.0,0.0,0.0,0.0,0.0,0.0,0.0,0.0,0.0,0.0,0.0,0.0,0.0,0.0,0.0,0.0,0.0,0.0,0.0,0.0,0.0,0.0,0.0,0.0,0.0,0.0,0.0,0.0,0.0,0.0,0.0,0.0,0.0,0.0,0.0,0.0,0.0,0.0,0.0,0.0,0.0,0.0,0.0,0.0,0.0,0.0,0.0,0.0,0.0,0.0,0.0,0.0,0.0,0.0,0.0,0.0,0.0,0.0,0.0,0.0,0.0,0.0,0.0,0.0,0.0,0.0,0.0,0.0,0.0,0.0,0.0,0.0,0.0,0.0,0.0,0.0,0.0,0.0,0.0,0.0,0.0,0.0,0.0,0.0,0.0,0.0,0.0,0.0,0.0,0.0,0.0,0.0,-1.9438,-1.9175,-2.2773,-2.4717,-2.4588,-2.0749,-1.8053,0.0,0.0,0.0,0.0,0.0,0.0,0.0,0.0,0.0,0.0,0.0,0.0,0.0,0.0,0.0,0.0,0.0,0.0,0.0,0.0,0.0,0.0,0.0,0.0,0.0,0.0,0.0,0.0,0.0,0.0,0.0,0.0,0.0,0.0,0.0,0.0,0.0,0.0,0.0,0.0,0.0,0.0,0.0,0.0,0.0,0.0,0.0,0.0,0.0,0.0,0.0,0.0,0.0,0.0,0.0,0.0,0.0,0.0,0.0,0.0,0.0,0.0,0.0,0.0,0.0,0.0,0.0,0.0,0.0,0.0,0.0,0.0,0.0,0.0,0.0,0.0,0.0,0.0,0.0,0.0,0.0,0.0,0.0,0.0,0.0,0.0,0.0,0.0,0.0,0.0,0.0,0.0,0.0,0.0,0.0,0.0,0.0,0.0,0.0,0.0,0.0,0.0,0.0,0.0,0.0,0.0,0.0,0.0,-2.0018,-2.1242,-2.3562,-2.4772,-2.4764,-2.0763,-1.8743,0.0,0.0,0.0,0.0,0.0,0.0,0.0,0.0,0.0,0.0,0.0,0.0,0.0,0.0,0.0,0.0,0.0,0.0,0.0,0.0,0.0,0.0,0.0,0.0,0.0,0.0,0.0,0.0,0.0,0.0,0.0,0.0,0.0,0.0,0.0,0.0,0.0,0.0,0.0,0.0,0.0,0.0,0.0,0.0,0.0,0.0,0.0,0.0,-2.0602,0.0,0.0,0.0,0.0,0.0,0.0,0.0,0.0,0.0,0.0,0.0,0.0,0.0,0.0,0.0,0.0,0.0,0.0,0.0,0.0,0.0,0.0,0.0,0.0,0.0,0.0,0.0,0.0,0.0,0.0,0.0,0.0,0.0,0.0,0.0,0.0,0.0,0.0,0.0,0.0,0.0,0.0,0.0,0.0,0.0,0.0,0.0,0.0,0.0,0.0,0.0,0.0,0.0,0.0,0.0,0.0,0.0,0.0,0.0,-2.0191,-2.1816,-2.3772,-2.4813,-2.4728,-2.1813,-2.0212,0.0,0.0,0.0,0.0,0.0,0.0,0.0,0.0,0.0,0.0,0.0,0.0,0.0,0.0,0.0,0.0,0.0,0.0,0.0,0.0,0.0,0.0,0.0,0.0,0.0,0.0,0.0,0.0,0.0,0.0,0.0,0.0,0.0,0.0,0.0,0.0,0.0,0.0,0.0,0.0,0.0,0.0,0.0,0.0,0.0,0.0,0.0,0.0,0.0,0.0,0.0,0.0,0.0,0.0,0.0,0.0,0.0,0.0,0.0,0.0,0.0,0.0,0.0,0.0,0.0,0.0,0.0,0.0,0.0,0.0,0.0,0.0,0.0,0.0,0.0,0.0,0.0,0.0,0.0,0.0,0.0,0.0,0.0,0.0,0.0,0.0,0.0,0.0,0.0,0.0,0.0,0.0,0.0,0.0,0.0,0.0,0.0,0.0,0.0,0.0,0.0,0.0,0.0,0.0,0.0,0.0,0.0,-1.8748,-2.0462,-2.2264,-2.3959,-2.487,-2.4912,-2.3192,-2.1807,-2.0835,0.0,0.0,0.0,0.0,0.0,0.0,0.0,0.0,0.0,0.0,0.0,0.0,0.0,0.0,0.0,0.0,0.0,0.0,0.0,0.0,0.0,0.0,0.0,0.0,0.0,0.0,0.0,0.0,0.0,0.0,0.0,0.0,0.0,0.0,0.0,0.0,0.0,0.0,-2.0692,-2.0643,0.0,0.0,0.0,0.0,0.0,0.0,0.0,0.0,-2.0546,0.0,0.0,0.0,0.0,0.0,0.0,0.0,0.0,0.0,0.0,0.0,0.0,0.0,0.0,0.0,0.0,0.0,0.0,0.0,0.0,0.0,0.0,0.0,0.0,0.0,0.0,0.0,0.0,0.0,0.0,0.0,0.0,0.0,0.0,0.0,0.0,0.0,0.0,0.0,0.0,0.0,0.0,0.0,0.0,0.0,0.0,0.0,0.0,0.0,0.0,0.0,0.0,0.0,0.0,0.0,0.0,-1.9251,-1.997,-2.1695,-2.4473,-2.4815,-2.4999,-2.5038,-2.3933,-2.258,-2.0971,0.0,0.0,0.0,0.0,0.0,0.0,0.0,0.0,0.0,0.0,0.0,0.0,0.0,0.0,0.0,0.0,0.0,0.0,0.0,0.0,0.0,0.0,0.0,0.0,0.0,0.0,0.0,0.0,0.0,0.0,0.0,0.0,0.0,0.0,0.0,0.0,0.0,0.0,0.0,-2.1133,-2.1581,0.0,0.0,0.0,0.0,0.0,0.0,0.0,0.0,-2.0523,0.0,0.0,0.0,0.0,0.0,0.0,0.0,0.0,0.0,0.0,0.0,0.0,0.0,0.0,0.0,0.0,0.0,0.0,0.0,0.0,0.0,0.0,0.0,0.0,0.0,0.0,0.0,0.0,0.0,0.0,0.0,0.0,0.0,0.0,0.0,0.0,0.0,0.0,0.0,0.0,0.0,0.0,0.0,0.0,0.0,0.0,0.0,0.0,0.0,0.0,0.0,0.0,0.0,0.0,0.0,-1.9877,-2.089,-2.2609,-2.4981,-2.507,-2.507,-2.5069,-2.3721,-2.2388,0.0,0.0,0.0,0.0,0.0,0.0,0.0,0.0,0.0,0.0,0.0,0.0,0.0,0.0,0.0,0.0,0.0,0.0,0.0,0.0,0.0,0.0,0.0,0.0,0.0,0.0,0.0,0.0,0.0,0.0,0.0,0.0,0.0,0.0,0.0,0.0,0.0,0.0,0.0,0.0,-2.154,-2.1641,-2.1191,0.0,0.0,0.0,0.0,0.0,0.0,-2.1437,-2.129,0.0,0.0,0.0,0.0,0.0,0.0,0.0,0.0,0.0,0.0,0.0,0.0,0.0,0.0,0.0,0.0,0.0,0.0,0.0,0.0,0.0,0.0,0.0,0.0,0.0,0.0,0.0,0.0,0.0,0.0,0.0,0.0,0.0,0.0,0.0,0.0,0.0,0.0,0.0,0.0,0.0,0.0,0.0,0.0,0.0,0.0,0.0,0.0,0.0,0.0,0.0,0.0,0.0,0.0,0.0,-1.9949,-2.162,-2.337,-2.5018,-2.512,-2.512,-2.5087,-2.3347,-2.2028,0.0,0.0,0.0,0.0,0.0,0.0,0.0,0.0,0.0,0.0,0.0,0.0,0.0,0.0,0.0,0.0,0.0,0.0,0.0,0.0,0.0,0.0,0.0,0.0,0.0,0.0,0.0,0.0,0.0,0.0,0.0,0.0,0.0,0.0,0.0,0.0,0.0,0.0,0.0,0.0,0.0,-2.1815,-2.1132,-2.1617,0.0,0.0,0.0,0.0,-2.2436,-2.1912,0.0,0.0,0.0,0.0,0.0,0.0,0.0,0.0,0.0,0.0,0.0,0.0,0.0,0.0,0.0,0.0,0.0,0.0,0.0,0.0,0.0,0.0,0.0,0.0,0.0,0.0,0.0,0.0,0.0,0.0,0.0,0.0,0.0,0.0,0.0,0.0,0.0,0.0,0.0,0.0,0.0,0.0,0.0,0.0,0.0,0.0,0.0,0.0,0.0,0.0,0.0,0.0,0.0,0.0,0.0,0.0,-1.9994,-2.2137,-2.3893,-2.5103,-2.518,-2.5172,-2.5157,-2.3328,-2.2009,0.0,0.0,0.0,0.0,0.0,0.0,0.0,0.0,0.0,0.0,0.0,0.0,0.0,0.0,0.0,0.0,0.0,0.0,0.0,0.0,0.0,0.0,0.0,0.0,0.0,0.0,0.0,0.0,0.0,0.0,0.0,0.0,0.0,0.0,0.0,0.0,0.0,0.0,0.0,0.0,0.0,-2.291,-2.2812,-2.289,-2.2679,0.0,0.0,-2.1556,-2.0908,-2.0642,0.0,0.0,0.0,0.0,0.0,0.0,0.0,0.0,0.0,0.0,0.0,0.0,0.0,0.0,0.0,0.0,0.0,0.0,0.0,0.0,0.0,0.0,0.0,0.0,0.0,0.0,0.0,0.0,0.0,0.0,0.0,0.0,0.0,0.0,0.0,0.0,0.0,0.0,0.0,0.0,0.0,0.0,0.0,0.0,0.0,0.0,0.0,0.0,0.0,0.0,0.0,0.0,0.0,0.0,0.0,-2.1391,-2.0759,-2.3134,-2.4664,-2.5176,-2.5214,-2.5195,-2.5198,-2.2878,-2.1779,0.0,0.0,0.0,0.0,0.0,0.0,0.0,0.0,0.0,0.0,0.0,0.0,0.0,0.0,0.0,0.0,0.0,0.0,0.0,0.0,0.0,0.0,0.0,0.0,0.0,0.0,0.0,0.0,0.0,0.0,0.0,0.0,0.0,0.0,0.0,0.0,0.0,0.0,0.0,0.0,0.0,0.0,-2.2363,-2.2775,0.0,0.0,0.0,-2.246,-2.2569,0.0,0.0,0.0,0.0,0.0,0.0,0.0,0.0,0.0,0.0,0.0,0.0,0.0,0.0,0.0,0.0,0.0,0.0,0.0,0.0,0.0,0.0,0.0,0.0,0.0,0.0,0.0,0.0,0.0,0.0,0.0,0.0,0.0,0.0,0.0,0.0,0.0,0.0,0.0,0.0,0.0,0.0,0.0,0.0,0.0,0.0,0.0,0.0,0.0,0.0,0.0,0.0,0.0,0.0,0.0,0.0,0.0,-2.1286,-2.3847,-2.5203,-2.5206,-2.5209,-2.5228,-2.519,-2.2996,0.0,0.0,0.0,0.0,0.0,0.0,0.0,0.0,0.0,0.0,0.0,0.0,0.0,0.0,0.0,0.0,0.0,0.0,0.0,0.0,0.0,0.0,0.0,0.0,0.0,0.0,0.0,-1.7387,0.0,0.0,0.0,0.0,0.0,0.0,0.0,0.0,0.0,0.0,0.0,0.0,0.0,0.0,-2.2104,-2.2088,-2.2645,-2.2979,0.0,0.0,-2.3372,-2.3804,-2.333,-2.3172,0.0,0.0,0.0,0.0,0.0,0.0,0.0,0.0,0.0,0.0,0.0,0.0,0.0,0.0,0.0,0.0,0.0,0.0,0.0,0.0,0.0,0.0,0.0,0.0,0.0,0.0,0.0,0.0,0.0,0.0,0.0,0.0,0.0,0.0,0.0,0.0,0.0,0.0,0.0,0.0,0.0,0.0,0.0,0.0,0.0,0.0,0.0,0.0,0.0,0.0,0.0,0.0,0.0,0.0,-2.2148,-2.1328,-2.3831,-2.5214,-2.521,-2.5269,-2.5301,-2.5282,-2.4272,-2.335,0.0,0.0,0.0,0.0,0.0,0.0,0.0,0.0,0.0,0.0,0.0,0.0,0.0,0.0,0.0,0.0,0.0,0.0,0.0,0.0,0.0,0.0,0.0,0.0,0.0,0.0,0.0,0.0,0.0,0.0,0.0,0.0,0.0,0.0,0.0,0.0,0.0,0.0,0.0,0.0,0.0,-2.2926,-2.2926,-2.295,-2.2694,0.0,-2.3067,-2.385,-2.3106,-2.2951,-2.3183,-2.3953,0.0,0.0,0.0,0.0,0.0,0.0,0.0,0.0,0.0,0.0,0.0,0.0,0.0,0.0,0.0,0.0,0.0,0.0,0.0,0.0,0.0,0.0,0.0,0.0,0.0,0.0,0.0,0.0,0.0,0.0,0.0,0.0,0.0,0.0,0.0,0.0,0.0,0.0,0.0,0.0,0.0,0.0,0.0,0.0,0.0,0.0,0.0,0.0,0.0,0.0,0.0,0.0,0.0,-2.2413,-2.2078,-2.4129,-2.5451,-2.596,-2.5516,-2.548,-2.6028,-2.5173,-2.4041,0.0,0.0,0.0,0.0,0.0,0.0,0.0,0.0,0.0,0.0,0.0,0.0,0.0,0.0,0.0,0.0,0.0,0.0,0.0,0.0,0.0,0.0,0.0,0.0,0.0,0.0,0.0,0.0,-1.7359,-1.7675,-1.8407,0.0,0.0,0.0,0.0,0.0,0.0,0.0,0.0,0.0,0.0,-2.232,-2.2862,-2.2493,0.0,0.0,-2.2998,-2.334,-2.2952,-2.3334,-2.3792,-2.4061,-2.4559,0.0,0.0,0.0,0.0,0.0,0.0,0.0,0.0,0.0,0.0,0.0,0.0,0.0,0.0,0.0,0.0,0.0,0.0,0.0,0.0,0.0,0.0,0.0,0.0,0.0,0.0,0.0,0.0,0.0,0.0,0.0,0.0,0.0,0.0,0.0,0.0,0.0,0.0,0.0,0.0,0.0,0.0,0.0,0.0,0.0,0.0,0.0,0.0,0.0,0.0,0.0,0.0,-2.2585,-2.2626,-2.4278,-2.5466,-2.607,-2.575,-2.5888,-2.6466,-2.6173,-2.529,0.0,0.0,0.0,0.0,0.0,0.0,0.0,0.0,0.0,0.0,0.0,0.0,0.0,0.0,0.0,0.0,0.0,0.0,0.0,0.0,0.0,0.0,0.0,0.0,0.0,0.0,0.0,0.0,-1.7417,-1.764,-1.8162,0.0,0.0,0.0,0.0,0.0,0.0,0.0,0.0,0.0,0.0,-2.2427,-2.2815,-2.2557,-2.2543,-2.3176,-2.3526,-2.3707,-2.3632,-2.4145,-2.4547,-2.4529,0.0,0.0,0.0,0.0,0.0,0.0,0.0,0.0,0.0,0.0,0.0,0.0,0.0,0.0,0.0,0.0,0.0,0.0,0.0,0.0,0.0,0.0,0.0,0.0,0.0,0.0,0.0,-2.0619,0.0,0.0,-2.0722,0.0,0.0,0.0,0.0,0.0,0.0,0.0,0.0,0.0,0.0,0.0,0.0,0.0,0.0,0.0,0.0,0.0,0.0,0.0,0.0,0.0,0.0,-2.2547,-2.2608,-2.4288,-2.5151,-2.5227,-2.6013,-2.65,-2.6562,-2.736,-2.739,-2.6414,0.0,0.0,0.0,0.0,0.0,0.0,0.0,0.0,0.0,0.0,0.0,0.0,0.0,0.0,0.0,0.0,0.0,0.0,0.0,0.0,0.0,0.0,0.0,0.0,0.0,0.0,-1.7625,-1.7493,-1.7591,0.0,0.0,0.0,0.0,0.0,0.0,0.0,0.0,0.0,0.0,-2.3361,-2.3591,-2.2917,-2.3445,-2.3879,-2.4033,-2.4752,-2.5272,-2.5187,-2.5292,-2.5406,0.0,0.0,0.0,0.0,0.0,0.0,0.0,0.0,0.0,0.0,0.0,0.0,0.0,0.0,0.0,0.0,0.0,0.0,0.0,0.0,0.0,0.0,0.0,0.0,0.0,0.0,0.0,-2.2182,-2.2197,0.0,0.0,0.0,0.0,0.0,0.0,0.0,0.0,0.0,0.0,0.0,-2.2846,-2.3101,0.0,0.0,0.0,0.0,0.0,0.0,0.0,0.0,0.0,0.0,0.0,0.0,-2.2818,-2.3398,-2.5038,-2.642,-2.7433,-2.7325,-2.751,-2.809,-2.8495,-2.8302,-2.7448,0.0,0.0,0.0,0.0,0.0,0.0,0.0,0.0,0.0,0.0,0.0,0.0,0.0,0.0,0.0,0.0,0.0,0.0,0.0,0.0,0.0,0.0,0.0,0.0,0.0,-1.8757,0.0,0.0,0.0,0.0,0.0,0.0,0.0,0.0,0.0,0.0,0.0,-2.3182,-2.2696,-2.3244,-2.3638,-2.3487,-2.3235,-2.3295,0.0,0.0,0.0,0.0,0.0,0.0,0.0,0.0,0.0,0.0,0.0,0.0,0.0,0.0,-2.4091,-2.3303,-2.2564,-2.203,-2.199,0.0,0.0,0.0,0.0,0.0,0.0,0.0,0.0,0.0,0.0,0.0,0.0,0.0,0.0,-2.367,0.0,-2.3725,0.0,0.0,0.0,0.0,0.0,0.0,0.0,0.0,-2.452,-2.4484,-2.4504,-2.473,-2.4965,0.0,-2.5206,-2.4509,0.0,0.0,0.0,0.0,0.0,0.0,0.0,0.0,-2.3225,-2.3764,-2.5674,-2.7176,-2.8177,-2.8089,-2.8297,-2.8878,-2.9302,-2.9283,-2.8828,-2.7383,-2.6361,0.0,0.0,0.0,0.0,0.0,0.0,0.0,0.0,0.0,0.0,0.0,0.0,0.0,0.0,0.0,0.0,0.0,0.0,0.0,0.0,0.0,0.0,0.0,-1.8911,0.0,0.0,0.0,0.0,0.0,0.0,0.0,0.0,0.0,-2.0889,-2.2456,-2.3296,-2.2583,-2.3358,-2.3944,-2.3802,0.0,0.0,0.0,0.0,0.0,0.0,0.0,-2.5749,-2.5479,-2.5663,-2.5839,-2.5784,-2.6005,-2.606,-2.5744,0.0,0.0,-2.4271,-2.3479,-2.2955,-2.2897,-2.2676,-2.2462,-2.2299,-2.2426,-2.2543,0.0,0.0,0.0,0.0,0.0,0.0,0.0,0.0,-2.5836,-2.5053,0.0,-2.5146,0.0,0.0,0.0,0.0,-2.6693,-2.6689,0.0,0.0,-2.7552,-2.7632,-2.7574,-2.6842,-2.6906,-2.7606,-2.6159,-2.5795,-2.6434,-2.5723,0.0,0.0,0.0,0.0,0.0,0.0,-2.3755,-2.395,-2.6237,-2.7466,-2.7551,-2.8388,-2.886,-2.8979,-2.9819,-3.0352,-3.0441,-2.9564,-2.913,-2.9137,-2.6663,0.0,0.0,0.0,0.0,0.0,0.0,0.0,0.0,0.0,0.0,0.0,0.0,0.0,0.0,0.0,0.0,0.0,0.0,0.0,0.0,-2.0011,0.0,0.0,0.0,0.0,0.0,0.0,0.0,0.0,0.0,0.0,-2.0673,-2.2213,-2.3104,-2.2478,0.0,0.0,0.0,0.0,-2.5179,-2.5192,-2.5233,-2.5273,-2.5214,-2.6015,-2.6362,-2.5601,0.0,0.0,-2.666,-2.7241,-2.7382,-2.6542,-2.6437,-2.6288,-2.5261,-2.4366,-2.3762,-2.3682,-2.3069,-2.2439,-2.2394,-2.3008,-2.3408,-3.0419,0.0,0.0,0.0,0.0,-2.7981,-2.7601,-2.7527,-2.7296,-2.7064,-2.6843,-2.7083,0.0,0.0,0.0,0.0,0.0,0.0,-2.7555,-2.7673,-2.7665,-2.7632,-2.7578,-2.8,-2.8319,-2.8548,-2.8676,-2.888,-2.9096,-2.888,-2.7007,-2.3583,0.0,0.0,0.0,0.0,-2.5194,-2.6351,-2.7687,-2.8641,-2.916,-2.9528,-2.9775,-2.9895,-3.0196,-3.0414,-3.0479,-3.0298,-2.9864,-2.9205,-2.7913,0.0,0.0,0.0,0.0,0.0,0.0,0.0,0.0,0.0,0.0,0.0,0.0,0.0,0.0,0.0,0.0,0.0,0.0,0.0,-1.9881,-1.9865,-1.9267,0.0,0.0,0.0,0.0,0.0,0.0,0.0,0.0,0.0,-2.1116,-2.2593,-2.3732,0.0,0.0,-2.447,-2.4429,-2.4782,-2.5094,-2.5171,-2.5243,0.0,-2.5404,-2.5614,-2.5688,-2.5468,-2.5693,-2.5874,-2.5835,-2.6566,-2.6877,-2.6021,-2.6326,-2.6461,-2.5608,-2.5146,-2.4918,-2.487,-2.4638,-2.4443,-2.4438,-2.4576,-2.4655,-3.2902,-3.1145,-3.0845,-3.071,-3.066,-3.0186,-2.9952,-2.985,-2.9533,-2.9231,-2.8945,-2.8898,-2.8577,-2.8039,-2.8012,0.0,0.0,0.0,-2.8374,-2.8596,-2.8639,-2.8584,-2.8579,-2.9145,-2.9421,-2.9434,-2.9964,-3.0245,-3.018,-2.9855,-2.8433,-2.5933,0.0,0.0,-2.4353,-2.5393,-2.6597,-2.7888,-2.8791,-2.9627,-3.0427,-3.0266,-3.0207,-3.033,-3.0386,-3.0444,-3.049,-3.0559,-3.0318,-2.9767,-2.8932,-2.7978,0.0,0.0,0.0,0.0,0.0,0.0,0.0,0.0,0.0,0.0,0.0,-2.0899,-2.0183,0.0,0.0,0.0,-2.1268,-2.0844,-1.9729,-2.0132,0.0,0.0,0.0,0.0,0.0,0.0,0.0,-1.9013,-2.0866,-2.226,-2.2295,-2.3248,-2.4081,-2.4456,-2.4526,-2.4626,-2.4794,0.0,-2.5213,-2.5663,-2.5774,-2.5976,-2.6409,-2.6761,-2.7009,-2.7038,-2.7058,-2.7082,-2.7095,-2.7832,-2.8115,-2.7448,-2.754,-2.7476,-2.6279,-2.6282,-2.6369,-2.6044,-2.5925,-2.5976,-2.6294,-2.6083,-2.5794,-3.5148,-3.4371,-3.3553,-3.3161,-3.3099,-3.3029,-3.2945,-3.2852,-3.2102,-3.1376,-3.0703,-3.0635,-2.9815,-2.852,-2.841,0.0,-2.9292,-2.931,-2.9589,-3.0102,-3.0251,-3.027,-3.0223,-3.0343,-3.0404,-3.0412,-3.0471,-3.0458,-3.0412,-2.962,-2.9134,-2.8979,-2.8207,-2.698,-2.5469,-2.6719,-2.7853,-2.8698,-2.9483,-3.0403,-3.1378,-3.0767,-3.0471,-3.059,-3.0544,-3.0532,-3.0588,-3.0539,-3.053,-3.0557,-2.9775,-2.9273,-2.9129,0.0,0.0,0.0,0.0,0.0,0.0,0.0,0.0,0.0,0.0,0.0,0.0,0.0,0.0,0.0,-2.2298,0.0,-2.0281,-2.0965,0.0,0.0,0.0,-2.094,-2.2216,-2.1772,-2.1303,-2.1267,0.0,0.0,-2.3912,-2.4154,-2.443,-2.4968,-2.4955,-2.4979,-2.5171,-2.5359,-2.5699,-2.6504,-2.668,-2.7033,-2.7729,-2.8507,-2.8981,-2.9044,-2.9387,-2.9177,-2.9231,-2.9937,-3.0219,-2.9327,-2.9405,-2.8977,-2.7281,-2.759,-2.7949,-2.7174,-2.697,-2.7098,-2.7528,-2.721,-2.6757,-3.5592,-3.5437,-3.5223,-3.4698,-3.3939,-3.333,-3.3029,-3.2971,-3.2783,-3.2571,-3.24,-3.2394,-3.2173,-3.1843,-3.181,-3.1515,-3.102,-3.168,-3.1289,-3.0228,-3.1527,-3.18,-3.1142,-3.1814,-3.2177,-3.219,-3.219,-3.219,-3.219,-3.1966,-3.1238,-3.0004,-2.974,-2.8788,-2.7086,-2.738,-2.7935,-2.8757,-2.9614,-3.083,-3.2388,-3.2269,-3.2229,-3.2295,-3.1703,-3.1433,-3.1468,-3.0917,-3.0576,-3.0602,-3.0432,-3.0036,-2.9291,-2.7981,0.0,0.0,0.0,0.0,0.0,0.0,0.0,0.0,0.0,-2.2186,-1.9982,0.0,-2.1832,0.0,-2.2109,-2.3286,-2.3915,-2.3635,0.0,0.0,-2.2729,-2.2661,-2.296,-2.3712,-2.385,-2.2953,-2.4494,-2.554,-2.5226,-2.58,-2.6401,-2.6854,-2.6189,-2.594,-2.6693,-2.6995,-2.7201,-2.7508,-2.766,-2.7811,-2.8087,-2.8307,-2.8559,-2.8491,-2.8548,-2.8517,-2.8532,-2.9219,-2.9535,-2.8755,-2.9074,-2.8996,-2.8084,-2.8076,-2.8418,-2.8676,-2.8307,-2.7628,-2.7213,-2.7446,-2.7582,-3.5775,-3.5793,-3.5794,-3.5475,-3.4942,-3.4497,-3.4274,-3.4225,-3.3834,-3.368,-3.3654,-3.3248,-3.3064,-3.3053,-3.3048,-3.2752,-3.2307,-3.2705,-3.2353,-3.1469,-3.2384,-3.256,-3.2091,-3.2593,-3.2831,-3.2831,-3.2839,-3.2826,-3.2831,-3.2831,-3.239,-3.1469,-3.1469,-3.0772,-2.9436,-2.8245,-2.8056,-2.8884,-3.0113,-3.1446,-3.2785,-3.2837,-3.2513,-3.1807,-3.1399,-3.0807,-3.0076,-2.9659,-2.9444,-2.9444,-2.9469,-2.9256,-2.873,-2.7808,-2.7064,0.0,0.0,0.0,0.0,0.0,0.0,0.0,0.0,0.0,0.0,0.0,-2.3063,-2.2063,-2.3584,-2.4727,-2.4931,-2.4811,-2.4829,-2.5126,-2.4877,-2.4921,-2.5527,-2.5925,-2.5912,-2.5301,-2.63,-2.7054,-2.7056,-2.7145,-2.7627,-2.8626,-2.7935,-2.7399,-2.7555,-2.7746,-2.8,-2.8434,-2.8605,-2.8851,-2.9205,-2.9333,-2.9371,-2.9355,-2.9347,-2.9354,-2.9354,-2.9728,-2.9926,-2.9536,-2.9815,-2.9854,-2.9023,-2.914,-2.9351,-2.8973,-2.9167,-2.9104,-2.8679,-2.866,-2.8543,-3.581,-3.5807,-3.5807,-3.5869,-3.6002,-3.5982,-3.59,-3.5747,-3.5,-3.4671,-3.4593,-3.3856,-3.3479,-3.3432,-3.3441,-3.3371,-3.3299,-3.3268,-3.3164,-3.3029,-3.3179,-3.3192,-3.3081,-3.3217,-3.3237,-3.3237,-3.3256,-3.3237,-3.3237,-3.325,-3.3134,-3.2917,-3.289,-3.2471,-3.1484,-2.9233,-2.8425,-2.9168,-3.0765,-3.2,-3.2878,-3.2673,-3.1884,-3.0494,-3.0362,-2.964,-2.8155,-2.8018,-2.7989,-2.798,-2.798,-2.8055,-2.815,-2.7239,-2.6774,0.0,-2.6022,0.0,0.0,0.0,0.0,0.0,0.0,0.0,0.0,-2.4666,-2.4508,-2.4523,-2.5591,-2.5986,-2.5244,-2.56,-2.6421,-2.7618,-2.7232,-2.7345,-2.8563,-2.8096,-2.7667,-2.7816,-2.7831,-2.816,-2.8869,-2.8382,-2.8619,-2.985,-2.9629,-2.9006,-2.8442,-2.8386,-2.8722,-2.9392,-2.9537,-2.9833,-3.0453,-3.0708,-3.068,-3.0739,-3.0668,-3.0791,-3.0693,-3.0738,-3.0799,-3.0819,-3.0799,-3.0606,-2.9884,-3.0333,-3.0272,-2.9096,-2.9829,-3.0579,-3.0384,-3.0009,-2.9678,-3.5884,-3.5892,-3.5878,-3.6281,-3.6935,-3.6943,-3.6508,-3.5795,-3.5609,-3.5524,-3.5471,-3.53,-3.5204,-3.5214,-3.5204,-3.4855,-3.4264,-3.4883,-3.4417,-3.3137,-3.4461,-3.4711,-3.4101,-3.4758,-3.5059,-3.5012,-3.5059,-3.5065,-3.5008,-3.5053,-3.4371,-3.3003,-3.2983,-3.2232,-3.0769,0.0,0.0,0.0,-3.1066,-3.2026,-3.282,-3.1584,-3.0717,-3.0389,-2.9792,0.0,-2.9033,-2.8366,-2.7997,-2.7995,-2.7976,0.0,0.0,0.0,0.0,0.0,0.0,0.0,0.0,0.0,0.0,0.0,-2.6763,-2.6091,-2.4946,-2.4529,-2.5165,-2.7084,-2.6432,-2.6655,-2.8596,-2.8315,-2.839,-2.9288,-2.9268,-2.93,-2.9611,-2.9504,-2.945,-2.9516,-2.9578,-2.9675,-2.9841,-2.9896,-2.9982,-3.0298,-3.0346,-3.0269,-3.0085,-2.9997,-3.0148,-3.0416,-3.0425,-3.056,-3.0765,-3.0786,-3.0798,-3.0801,-3.0788,-3.0791,-3.0794,-3.0796,-3.0821,-3.0899,-3.0919,-3.0862,-3.0655,-3.0788,-3.0782,-3.0448,-3.0604,-3.0579,-2.992,-3.0189,-3.0345,-3.6943,-3.6547,-3.6553,-3.704,0.0,-3.6935,-3.654,-3.6482,-3.6494,-3.6211,-3.5752,-3.5754,-3.5745,-3.5765,-3.5747,-3.5504,-3.5117,-3.5524,-3.5224,-3.4449,-3.5223,-3.5364,-3.495,-3.5379,-3.5579,-3.5554,-3.5579,-3.5591,-3.556,-3.5591,-3.514,-3.4284,-3.4272,-3.3848,-3.3059,-3.3026,-3.2574,-3.1648,-3.2013,-3.2891,-3.4095,-3.3365,-3.2301,-3.1107,-3.0656,0.0,0.0,0.0,0.0,0.0,0.0,0.0,0.0,-2.8201,0.0,-2.8579,-2.8125,-2.8027,-2.8442,-2.8403,-2.8544,-2.8955,-2.8887,-2.8215,-2.679,-2.6975,-2.7681,-2.8815,-2.8233,-2.8342,-2.9653,-2.9481,-2.9441,-2.9888,-2.9943,-2.9972,-3.0045,-3.0045,-3.0079,-3.0152,-3.018,-3.0221,-3.0286,-3.0371,-3.0466,-3.049,-3.054,-3.0623,-3.0649,-3.0637,-3.0668,-3.0743,-3.0778,-3.0784,-3.0789,-3.0786,-3.0801,-3.0785,-3.0791,-3.0794,-3.0796,-3.0799,-3.0821,-3.0899,-3.0907,-3.0913,-3.0909,-3.0911,-3.0911,-3.0901,-3.0864,-3.0747,-3.027,-3.0518,-3.0674,-3.7793,-3.741,-3.7266,-3.7792,-3.8598,-3.7196,-3.6898,-3.7416,0.0,0.0,0.0,-3.5799,-3.5799,-3.5799,-3.5793,-3.5765,-3.5697,-3.5718,-3.5708,-3.5704,-3.564,-3.5611,-3.5607,-3.562,-3.5616,-3.5608,-3.5616,-3.5616,-3.5604,-3.5616,-3.5608,-3.5612,-3.562,-3.562,-3.5608,-3.5616,-3.4899,-3.3525,-3.309,-3.3603,-3.4988,-3.4609,-3.3455,-3.1525,-3.1172,-3.0098,-2.8212,-2.7981,-2.7923,-2.7981,-2.7981,-2.8058,-2.8222,-2.8184,-2.8222,-2.8367,-2.8317,-2.8625,-2.939,-2.9389,-2.9668,-3.0441,-3.0444,-2.9966,-2.8977,-2.965,-3.0102,-2.9953,-2.9959,-2.9962,-2.9962,-2.9962,-2.9994,-3.0019,-3.0087,-3.0132,-3.0218,-3.0232,-3.0221,-3.0292,-3.0311,-3.0336,-3.0406,-3.0479,-3.052,-3.0588,-3.0604,-3.0657,-3.0695,-3.0697,-3.0717,-3.0773,-3.0794,-3.0789,-3.0802,-3.0794,-3.0785,-3.0794,-3.0794,-3.0796,-3.0799,-3.0801,-3.0841,-3.088,-3.0912,-3.0914,-3.0909,-3.0915,-3.0917,-3.0907,-3.0909,-3.0911,-3.0901,-3.086,-3.0801,-3.7079,-3.824,-3.7501,-3.8137,-3.9583,-3.9357,-3.889,-3.8201,-3.6662,-3.5916,-3.5799,-3.5788,-3.5807,-3.5803,-3.5799,-3.5791,-3.5791,-3.5785,-3.5786,-3.5795,-3.5707,-3.5657,-3.5607,-3.5654,-3.5643,-3.5608,-3.5643,-3.5662,-3.562,-3.5662,-3.5693,-3.5684,-3.5684,-3.567,-3.5662,-3.5623,-3.5476,-3.5213,-3.3679,-3.3019,-3.3237,-3.1136,-3.0201,-3.0513,-2.9256,-2.8681,-2.9011,-2.8327,-2.7904,-2.7904,-2.7904,-2.8261,-2.9062,-2.912,-2.9448,-3.0153,-3.0211,-3.0269,-3.0395,-3.0347,-3.0327,-3.04,-3.0398,-3.0294,-3.0094,-3.0203,-3.024,-3.0161,-3.0157,-3.0176,-3.0157,-3.0142,-3.0157,-3.0166,-3.018,-3.02,-3.0286,-3.0286,-3.0279,-3.0316,-3.0352,-3.0425,-3.0479,-3.054,-3.0595,-3.0602,-3.0642,-3.0711,-3.0755,-3.0742,-3.0742,-3.0784,-3.0784,-3.0802,-3.079,-3.0785,-3.0791,-3.0799,-3.0799,-3.0799,-3.0801,-3.0801,-3.0821,-3.088,-3.0903,-3.0909,-3.0915,-3.0918,-3.0918,-3.0918,-3.0912,-3.0921,-3.0919,-3.0888,-3.0891,-3.8922,-3.9104,-3.8273,-3.8611,-3.9714,-3.9234,-3.8559,-3.7741,-3.6949,-3.63,-3.5872,-3.5815,-3.5807,-3.5803,-3.5807,-3.5791,-3.5793,-3.5784,-3.5776,-3.5746,-3.5695,-3.5665,-3.5665,-3.5665,-3.5673,-3.5662,-3.5673,-3.5684,-3.5654,-3.5684,-3.5704,-3.5704,-3.5673,-3.5662,-3.5709,-3.5628,-3.5616,-3.5591,-3.4738,-3.4314,-3.4295,-3.3167,-3.2551,-3.2449,-3.1684,-3.1284,-3.1268,-3.0914,-3.05,-3.0037,-3.0018,-3.0028,-3.0008,-3.0008,-3.0182,-3.0578,-3.0617,-3.0617,-3.0617,-3.0559,-3.054,-3.051,-3.051,-3.049,-3.0428,-3.0328,-3.0267,-3.0254,-3.0266,-3.024,-3.0259,-3.0259,-3.0266,-3.0235,-3.0299,-3.0312,-3.0355,-3.0402,-3.0406,-3.0428,-3.046,-3.052,-3.0569,-3.0613,-3.0653,-3.0649,-3.0685,-3.0722,-3.0784,-3.0759,-3.0778,-3.0789,-3.0784,-3.0793,-3.0786,-3.0794,-3.0801,-3.0794,-3.0796,-3.0799,-3.0799,-3.0821,-3.088,-3.0899,-3.0919,-3.0921,-3.0912,-3.0917,-3.0918,-3.0918,-3.0912,-3.0921,-3.0921,-3.0916,-3.0918,-4.0351,-4.0007,-3.913,-3.9143,-3.9611,-3.8572,-3.7774,-3.719,-3.6975,-3.6521,-3.5937,-3.5823,-3.5795,-3.5803,-3.5799,-3.5801,-3.5793,-3.5791,-3.5756,-3.5727,-3.5695,-3.5704,-3.5704,-3.5704,-3.5704,-3.5704,-3.5704,-3.5704,-3.5704,-3.5704,-3.5704,-3.5704,-3.5643,-3.5643,-3.5704,-3.5643,-3.5608,-3.5604,-3.5528,-3.5411,-3.5199,-3.5026,-3.468,-3.4231,-3.3987,-3.3735,-3.3338,-3.3186,-3.2801,-3.2145,-3.1913,-3.1603,-3.1197,-3.0975,-3.0975,-3.1101,-3.0994,-3.08,-3.0636,-3.0772,-3.0791,-3.0617,-3.0772,-3.0762,-3.055,-3.0612,-3.0556,-3.0398,-3.0355,-3.0343,-3.0362,-3.0343,-3.0336,-3.034,-3.0383,-3.0414,-3.0428,-3.0479,-3.053,-3.053,-3.0569,-3.0606,-3.0621,-3.0668,-3.0697,-3.0717,-3.0716,-3.0739,-3.0794,-3.0794,-3.0794,-3.0784,-3.0789,-3.0798,-3.0786,-3.079,-3.0801,-3.0833,-3.0813,-3.0836,-3.0838,-3.088,-3.0899,-3.0919,-3.0919,-3.0905,-3.0911,-3.0916,-3.0918,-3.0918,-3.0917,-3.0913,-3.0912,-3.0917,-3.0912,-3.9529,-4.0665,-3.9848,-3.9626,-3.9478,-3.798,-3.7293,-3.7086,-3.6312,-3.5942,-3.5898,-3.5818,-3.5803,-3.5803,-3.5801,-3.5793,-3.5791,-3.5732,-3.5752,-3.5773,-3.5737,-3.5704,-3.5704,-3.5704,-3.5704,-3.5704,-3.5704,-3.5704,-3.5704,-3.5704,-3.5704,-3.5704,-3.5704,-3.5684,-3.5704,-3.5623,-3.562,-3.5589,-3.5528,-3.5104,-3.4327,-3.3545,-3.3462,-3.4173,-3.3499,-3.3489,-3.4204,-3.3517,-3.3102,-3.3016,-3.229,-3.2145,-3.2687,-3.2193,-3.2096,-3.2725,-3.2174,-3.1467,-3.0752,-3.1294,-3.1391,-3.0733,-3.1313,-3.1381,-3.0761,-3.1313,-3.1362,-3.0683,-3.0488,-3.0469,-3.0488,-3.0488,-3.0469,-3.0469,-3.0479,-3.049,-3.049,-3.054,-3.0569,-3.0598,-3.0595,-3.061,-3.0676,-3.0697,-3.0724,-3.0764,-3.0774,-3.0765,-3.0782,-3.0786,-3.0786,-3.079,-3.079,-3.0794,-3.0785,-3.0791,-3.083,-3.0877,-3.0899,-3.0899,-3.0901,-3.0899,-3.0919,-3.0919,-3.0923,-3.0914,-3.0917,-3.0914,-3.0918,-3.0918,-3.0916,-3.0909,-3.0913,-3.0909,-3.0912,-3.9149,-4.0084,-3.8786,-3.8234,-3.8091,-3.7479,-3.7206,-3.7157,-3.6812,-3.6331,-3.5877,-3.5811,-3.5803,-3.5807,-3.5793,-3.5756,-3.5736,-3.5763,-3.5743,-3.5747,-3.5697,-3.5704,-3.5704,-3.5673,-3.5654,-3.5704,-3.5704,-3.5704,-3.5704,-3.5704,-3.5704,-3.5704,-3.5704,-3.5704,-3.5704,-3.5654,-3.5662,-3.5601,-3.5068,-3.4608,-3.432,-3.4385,-3.4584,-3.4899,-3.4673,-3.4681,-3.5027,-3.4784,-3.4418,-3.3945,-3.3538,-3.3258,-3.3161,-3.2822,-3.2764,-3.3113,-3.2822,-3.2445,-3.2096,-3.2426,-3.2503,-3.2154,-3.2416,-3.2259,-3.1474,-3.1706,-3.1514,-3.0732,-3.0559,-3.055,-3.0569,-3.0559,-3.055,-3.0569,-3.0559,-3.0559,-3.0568,-3.0588,-3.0607,-3.0632,-3.0645,-3.0656,-3.0698,-3.0728,-3.0774,-3.0802,-3.0786,-3.079,-3.0798,-3.0801,-3.0801,-3.0788,-3.0788,-3.0788,-3.0794,-3.0791,-3.0833,-3.0897,-3.0905,-3.0909,-3.0909,-3.0923,-3.0919,-3.0919,-3.0915,-3.0917,-3.0905,-3.0923,-3.0912,-3.0913,-3.0912,-3.0921,-3.0905,-3.0921,-3.0907,-3.9,-3.9091,-3.7754,-3.7151,-3.7157,-3.6911,-3.6814,-3.6817,-3.6817,-3.6421,-3.5842,-3.5795,-3.5807,-3.5801,-3.5803,-3.5775,-3.5737,-3.5775,-3.5756,-3.5718,-3.5697,-3.5693,-3.5701,-3.5662,-3.5643,-3.5684,-3.5704,-3.5704,-3.5704,-3.5704,-3.5704,-3.5704,-3.5704,-3.5704,-3.5704,-3.5704,-3.5673,-3.5585,-3.4955,-3.4654,-3.4735,-3.5232,-3.5412,-3.5263,-3.5454,-3.5615,-3.5629,-3.5687,-3.5416,-3.4797,-3.4545,-3.4254,-3.3916,-3.3626,-3.3519,-3.3558,-3.3722,-3.3585,-3.3189,-3.3374,-3.3316,-3.2918,-3.3033,-3.2829,-3.2178,-3.2128,-3.1992,-3.1515,-3.1352,-3.1277,-3.0634,-3.0606,-3.0606,-3.0604,-3.0615,-3.0623,-3.0637,-3.0613,-3.064,-3.0688,-3.0723,-3.073,-3.0739,-3.0769,-3.079,-3.0801,-3.0801,-3.0785,-3.0804,-3.081,-3.0813,-3.0794,-3.0816,-3.0819,-3.0836,-3.0833,-3.0855,-3.0877,-3.0905,-3.0911,-3.0915,-3.0913,-3.0911,-3.0916,-3.0913,-3.0921,-3.0919,-3.0919,-3.0901,-3.0905,-3.0905,-3.0919,-3.0919,-3.0899,-3.088,-3.9179,-3.8346,-3.7479,-3.7058,-3.7043,-3.6234,-3.5877,-3.5962,-3.5915,-3.5857,-3.5799,-3.5799,-3.5801,-3.5794,-3.5803,-3.5803,-3.5775,-3.5718,-3.5737,-3.5773,-3.5737,-3.5701,-3.5712,-3.5701,-3.5704,-3.5704,-3.5704,-3.5704,-3.5704,-3.5704,-3.5704,-3.5704,-3.5704,-3.5704,-3.5704,-3.5704,-3.5704,-3.5665,-3.5535,-3.5504,-3.5504,-3.5558,-3.5261,-3.4726,-3.522,-3.5648,-3.5689,-3.5698,-3.5669,-3.563,-3.4865,-3.4758,-3.5366,-3.4836,-3.4438,-3.4507,-3.5076,-3.4805,-3.3568,-3.3887,-3.3713,-3.249,-3.2926,-3.2895,-3.2264,-3.2594,-3.2796,-3.3031,-3.2707,-3.2166,-3.0901,-3.0737,-3.0784,-3.0812,-3.0684,-3.0707,-3.0749,-3.0729,-3.0697,-3.0717,-3.0753,-3.0779,-3.0798,-3.079,-3.0801,-3.0791,-3.0791,-3.0794,-3.0816,-3.0858,-3.0858,-3.0819,-3.0838,-3.0899,-3.0897,-3.088,-3.088,-3.0901,-3.0925,-3.0918,-3.0918,-3.0916,-3.0917,-3.0917,-3.0909,-3.0921,-3.0919,-3.0899,-3.0899,-3.0901,-3.0901,-3.0899,-3.0897,-3.0841,-3.0838,-3.7585,-3.6787,-3.6463,-3.6301,-3.6227,-3.5962,-3.5829,-3.5791,-3.5791,-3.5791,-3.5791,-3.5791,-3.5801,-3.5794,-3.5793,-3.5793,-3.5727,-3.5718,-3.5718,-3.5727,-3.5658,-3.5654,-3.5701,-3.5662,-3.5673,-3.5704,-3.5704,-3.5704,-3.5704,-3.5704,-3.5704,-3.5704,-3.5704,-3.5704,-3.5704,-3.5704,-3.5704,-3.5704,-3.5631,-3.5612,-3.5646,-3.5635,-3.5482,-3.533,-3.5533,-3.5688,-3.5708,-3.5708,-3.5707,-3.5707,-3.5396,-3.5377,-3.562,-3.5447,-3.5272,-3.5241,-3.5058,-3.4633,-3.4109,-3.4263,-3.4242,-3.3697,-3.386,-3.367,-3.2972,-3.259,-3.2227,-3.1825,-3.167,-3.1223,-3.102,-3.113,-3.1727,-3.2084,-3.1359,-3.0918,-3.1274,-3.1073,-3.0714,-3.0759,-3.0784,-3.079,-3.0801,-3.0791,-3.0794,-3.0796,-3.0796,-3.0799,-3.0819,-3.0841,-3.088,-3.0821,-3.086,-3.0919,-3.0919,-3.0905,-3.0909,-3.0907,-3.0918,-3.0918,-3.0918,-3.0918,-3.0912,-3.0891,-3.0901,-3.0899,-3.088,-3.0901,-3.0882,-3.0858,-3.0858,-3.0858,-3.0855,-3.0819,-3.0816,-3.645,-3.593,-3.5891,-3.5885,-3.5827,-3.585,-3.5846,-3.5799,-3.5791,-3.5791,-3.5791,-3.5791,-3.5801,-3.5793,-3.5801,-3.5793,-3.5736,-3.5727,-3.5718,-3.5699,-3.5658,-3.5646,-3.5684,-3.5662,-3.5643,-3.5704,-3.5704,-3.5704,-3.5704,-3.5704,-3.5704,-3.5704,-3.5704,-3.5704,-3.5704,-3.5704,-3.5704,-3.5684,-3.5615,-3.5618,-3.5688,-3.5648,-3.5698,-3.5785,-3.5766,-3.5718,-3.5708,-3.5718,-3.5718,-3.5697,-3.5716,-3.5737,-3.5728,-3.5708,-3.5718,-3.5659,-3.4962,-3.4477,-3.4398,-3.4221,-3.3973,-3.3716,-3.3711,-3.3472,-3.2908,-3.2349,-3.1902,-3.161,-3.1576,-3.1576,-3.161,-3.1882,-3.216,-3.233,-3.1421,-3.0978,-3.149,-3.1076,-3.0813,-3.0778,-3.079,-3.0788,-3.0794,-3.0799,-3.0799,-3.0801,-3.0821,-3.0841,-3.0841,-3.086,-3.0882,-3.0864,-3.0862,-3.0899,-3.0919,-3.0923,-3.0913,-3.0913,-3.0915,-3.0918,-3.0918,-3.0918,-3.0903,-3.0899,-3.088,-3.086,-3.0862,-3.0884,-3.0862,-3.0836,-3.0836,-3.0836,-3.0816,-3.0796,-3.0796,-3.5957,-3.5897,-3.5885,-3.5892,-3.5872,-3.584,-3.5803,-3.5799,-3.5791,-3.5791,-3.5791,-3.5791,-3.5791,-3.581,-3.5793,-3.5794,-3.5794,-3.5765,-3.5736,-3.5708,-3.5697,-3.5704,-3.5704,-3.5704,-3.5684,-3.5715,-3.5704,-3.5704,-3.5704,-3.5715,-3.5715,-3.5704,-3.5704,-3.5704,-3.5704,-3.5704,-3.5704,-3.5695,-3.563,-3.565,-3.5688,-3.5688,-3.5737,-3.5794,-3.5803,-3.5766,-3.5708,-3.5766,-3.5766,-3.5706,-3.5737,-3.5784,-3.5793,-3.5736,-3.5698,-3.5562,-3.4902,-3.4492,-3.4276,-3.365,-3.2934,-3.2467,-3.2143,-3.2266,-3.2263,-3.2069,-3.2172,-3.2616,-3.2854,-3.3035,-3.2825,-3.2342,-3.1796,-3.0969,-3.0974,-3.0871,-3.0946,-3.0837,-3.0781,-3.0788,-3.0791,-3.0796,-3.0799,-3.0801,-3.0801,-3.0823,-3.0841,-3.0899,-3.0901,-3.0901,-3.0884,-3.0911,-3.0909,-3.0907,-3.0923,-3.0921,-3.0913,-3.0917,-3.0918,-3.0918,-3.0918,-3.0911,-3.0923,-3.0901,-3.086,-3.0841,-3.086,-3.0862,-3.086,-3.0836,-3.0836,-3.0813,-3.0796,-3.0796,-3.0794,-3.6443,-3.5911,-3.5891,-3.5866,-3.5845,-3.5813,-3.5799,-3.5799,-3.5791,-3.5791,-3.5791,-3.5791,-3.581,-3.5793,-3.5803,-3.5775,-3.5737,-3.5737,-3.5728,-3.5718,-3.5716,-3.5704,-3.5704,-3.5704,-3.5695,-3.5716,-3.5716,-3.5716,-3.5716,-3.5716,-3.5706,-3.5715,-3.5704,-3.5704,-3.5704,-3.5704,-3.5715,-3.5716,-3.564,-3.566,-3.5737,-3.5718,-3.5737,-3.5801,-3.5801,-3.5773,-3.5775,-3.5766,-3.5718,-3.5716,-3.5718,-3.5728,-3.5727,-3.5745,-3.551,-3.4897,-3.4124,-3.3349,-3.2837,-3.2584,-3.2337,-3.2096,-3.2024,-3.203,-3.2007,-3.1539,-3.1388,-3.1631,-3.1616,-3.1621,-3.1551,-3.1398,-3.1515,-3.2444,-3.1543,-3.104,-3.1383,-3.1129,-3.0843,-3.0791,-3.0791,-3.0794,-3.0799,-3.0821,-3.0843,-3.0829,-3.0864,-3.0921,-3.0909,-3.0923,-3.0923,-3.0912,-3.0912,-3.0913,-3.0909,-3.0914,-3.0917,-3.0916,-3.0915,-3.0892,-3.0911,-3.0911,-3.0905,-3.0882,-3.0841,-3.0821,-3.0841,-3.0838,-3.0838,-3.0836,-3.0816,-3.0796,-3.0794,-3.0794,-3.0794,-3.6404,-3.5911,-3.5897,-3.5885,-3.5846,-3.5818,-3.5791,-3.5799,-3.5791,-3.5791,-3.5791,-3.5801,-3.5793,-3.5803,-3.5766,-3.5737,-3.5708,-3.5718,-3.5707,-3.5718,-3.5706,-3.5704,-3.5704,-3.5704,-3.5715,-3.5706,-3.5706,-3.5716,-3.5716,-3.5716,-3.5706,-3.5704,-3.5704,-3.5704,-3.5715,-3.5706,-3.5707,-3.5707,-3.5679,-3.5727,-3.5775,-3.5756,-3.5765,-3.5801,-3.5791,-3.5801,-3.5775,-3.5737,-3.5708,-3.5708,-3.5718,-3.5601,-3.5357,-3.5294,-3.496,-3.4112,-3.3297,-3.2563,-3.2044,-3.1771,-3.1562,-3.1612,-3.1593,-3.1583,-3.1514,-3.1012,-3.0821,-3.0786,-3.0849,-3.0798,-3.082,-3.0807,-3.1354,-3.2248,-3.1461,-3.109,-3.1448,-3.1159,-3.0849,-3.0796,-3.0796,-3.0816,-3.0838,-3.086,-3.0884,-3.0852,-3.0868,-3.0919,-3.0909,-3.0911,-3.0918,-3.0918,-3.0917,-3.0916,-3.0914,-3.0918,-3.0923,-3.0923,-3.0907,-3.0884,-3.088,-3.0882,-3.0899,-3.086,-3.0821,-3.0801,-3.0821,-3.0819,-3.0816,-3.0796,-3.0796,-3.0794,-3.0794,-3.0794,-3.0794,-3.5905,-3.5883,-3.5885,-3.5891,-3.5885,-3.583,-3.5803,-3.5791,-3.5791,-3.5791,-3.5782,-3.5775,-3.5785,-3.5766,-3.5737,-3.5728,-3.5708,-3.5716,-3.5715,-3.5715,-3.5704,-3.5704,-3.5704,-3.5704,-3.5704,-3.5715,-3.5715,-3.5715,-3.5695,-3.5695,-3.5704,-3.5715,-3.5704,-3.5715,-3.5706,-3.5698,-3.5708,-3.5728,-3.5765,-3.5801,-3.5784,-3.5801,-3.5801,-3.5793,-3.5801,-3.5782,-3.5727,-3.5756,-3.5756,-3.5718,-3.5676,-3.5321,-3.4773,-3.4568,-3.414,-3.329,-3.246,-3.2083,-3.1771,-3.1281,-3.0906,-3.0934,-3.0938,-3.0786,-3.0891,-3.0872,-3.0794,-3.0801,-3.0788,-3.0791,-3.0794,-3.0796,-3.0897,-3.0858,-3.0911,-3.0872,-3.0819,-3.0819,-3.0819,-3.0819,-3.0801,-3.0821,-3.088,-3.0899,-3.0886,-3.0891,-3.0889,-3.0909,-3.0912,-3.0918,-3.0918,-3.0918,-3.0918,-3.0917,-3.0918,-3.0916,-3.0919,-3.0858,-3.088,-3.0855,-3.0833,-3.0855,-3.0858,-3.0838,-3.0819,-3.0799,-3.0799,-3.0796,-3.0796,-3.0799,-3.0796,-3.0791,-3.0791,-3.0794,-3.0794,-3.5891,-3.5892,-3.5892,-3.5896,-3.5885,-3.5877,-3.5862,-3.5814,-3.5803,-3.5775,-3.5747,-3.5728,-3.5728,-3.5728,-3.5718,-3.5707,-3.5706,-3.5715,-3.5704,-3.5704,-3.5704,-3.5704,-3.5704,-3.5704,-3.5715,-3.5716,-3.5716,-3.5697,-3.5716,-3.5716,-3.5716,-3.5716,-3.5657,-3.5687,-3.5698,-3.5688,-3.5718,-3.5776,-3.5793,-3.5791,-3.5791,-3.5791,-3.5791,-3.581,-3.5791,-3.5791,-3.5763,-3.5779,-3.5799,-3.5724,-3.5201,-3.4834,-3.4529,-3.3984,-3.3264,-3.248,-3.2177,-3.1763,-3.1222,-3.0938,-3.081,-3.0794,-3.0794,-3.0794,-3.0798,-3.0798,-3.0801,-3.0788,-3.0794,-3.0833,-3.0816,-3.0799,-3.0821,-3.086,-3.0877,-3.0858,-3.086,-3.088,-3.086,-3.088,-3.086,-3.088,-3.0899,-3.0919,-3.0925,-3.0913,-3.0916,-3.0917,-3.0918,-3.0918,-3.0918,-3.0918,-3.0916,-3.0911,-3.0907,-3.0923,-3.0897,-3.0833,-3.0813,-3.0813,-3.081,-3.0816,-3.0816,-3.0796,-3.0794,-3.0794,-3.0796,-3.0796,-3.0799,-3.0799,-3.0799,-3.0794,-3.0796,-3.0796,-3.0796,-3.5885,-3.5879,-3.5885,-3.5898,-3.5891,-3.5892,-3.5872,-3.581,-3.5794,-3.5776,-3.5728,-3.5718,-3.5707,-3.5707,-3.5716,-3.5706,-3.5706,-3.5715,-3.5715,-3.5706,-3.5715,-3.5704,-3.5704,-3.5704,-3.5715,-3.5706,-3.5687,-3.5706,-3.5716,-3.5697,-3.5707,-3.563,-3.5349,-3.5359,-3.566,-3.533,-3.5437,-3.5726,-3.5801,-3.5791,-3.5791,-3.5807,-3.5791,-3.581,-3.5826,-3.5823,-3.585,-3.5857,-3.583,-3.5648,-3.5048,-3.4452,-3.4023,-3.3256,-3.2411,-3.1582,-3.1529,-3.1313,-3.0954,-3.0798,-3.0798,-3.0801,-3.0785,-3.0785,-3.0788,-3.0807,-3.0849,-3.1323,-3.1323,-3.1346,-3.1289,-3.1055,-3.0899,-3.0899,-3.0919,-3.0923,-3.0909,-3.0909,-3.0907,-3.0905,-3.0905,-3.0923,-3.0919,-3.0919,-3.0912,-3.0918,-3.0915,-3.0915,-3.0914,-3.0916,-3.0917,-3.0914,-3.0913,-3.0909,-3.0903,-3.0899,-3.0877,-3.0813,-3.0785,-3.0785,-3.0791,-3.0794,-3.0791,-3.0791,-3.0791,-3.0791,-3.0794,-3.0796,-3.0794,-3.0794,-3.0796,-3.0799,-3.0799,-3.0799,-3.0799,-3.5885,-3.5889,-3.5898,-3.5885,-3.5883,-3.5883,-3.5859,-3.5806,-3.5793,-3.5795,-3.5766,-3.5716,-3.5706,-3.5707,-3.5695,-3.5706,-3.5697,-3.5715,-3.5695,-3.5706,-3.5695,-3.5704,-3.5704,-3.5704,-3.5568,-3.5482,-3.554,-3.5502,-3.5435,-3.5484,-3.564,-3.5582,-3.5069,-3.5098,-3.5504,-3.5085,-3.5133,-3.5676,-3.5801,-3.5799,-3.5799,-3.5788,-3.5799,-3.5791,-3.5609,-3.5619,-3.5606,-3.5548,-3.5463,-3.55,-3.4834,-3.4041,-3.3223,-3.2421,-3.168,-3.1057,-3.0934,-3.0876,-3.0813,-3.0785,-3.0798,-3.0791,-3.0791,-3.0794,-3.0796,-3.0799,-3.1111,-3.1895,-3.2012,-3.1758,-3.166,-3.1231,-3.0958,-3.0919,-3.0919,-3.0909,-3.0917,-3.0917,-3.0914,-3.0913,-3.0913,-3.0911,-3.0905,-3.0905,-3.0914,-3.0914,-3.0907,-3.0909,-3.0911,-3.0914,-3.0912,-3.0925,-3.0905,-3.0909,-3.0903,-3.088,-3.0855,-3.081,-3.0798,-3.0798,-3.0788,-3.0791,-3.0788,-3.0785,-3.0801,-3.0788,-3.0794,-3.0794,-3.0791,-3.0794,-3.0799,-3.0799,-3.0799,-3.0799,-3.0799,-3.5883,-3.5889,-3.5883,-3.5883,-3.5883,-3.5892,-3.5864,-3.5807,-3.5784,-3.5728,-3.5716,-3.5695,-3.5676,-3.5695,-3.5715,-3.5704,-3.5695,-3.5715,-3.5715,-3.5715,-3.5715,-3.5704,-3.5704,-3.5704,-3.5317,-3.4921,-3.47,-3.469,-3.472,-3.4827,-3.5107,-3.5611,-3.5466,-3.5582,-3.5657,-3.5491,-3.5557,-3.5771,-3.5791,-3.5799,-3.5795,-3.5788,-3.5788,-3.5757,-3.5286,-3.495,-3.4731,-3.4212,-3.3861,-3.3815,-3.3696,-3.3259,-3.2465,-3.1612,-3.1066,-3.0891,-3.0794,-3.0791,-3.0799,-3.0796,-3.0796,-3.0816,-3.0796,-3.0799,-3.0799,-3.0801,-3.1231,-3.1777,-3.1543,-3.1348,-3.1309,-3.1083,-3.0927,-3.0923,-3.0923,-3.0909,-3.0917,-3.0918,-3.0917,-3.0912,-3.0915,-3.0918,-3.0917,-3.0917,-3.0917,-3.0923,-3.0919,-3.0921,-3.0905,-3.0911,-3.0907,-3.0899,-3.0901,-3.0886,-3.0864,-3.0858,-3.0836,-3.081,-3.0801,-3.0794,-3.0785,-3.0785,-3.0801,-3.0798,-3.079,-3.0801,-3.0794,-3.0791,-3.0788,-3.0794,-3.0799,-3.0799,-3.0799,-3.0801,-3.0626,-3.5883,-3.5897,-3.5889,-3.5889,-3.5864,-3.5872,-3.5849,-3.5708,-3.5348,-3.5398,-3.5542,-3.5317,-3.5306,-3.5684,-3.5704,-3.5704,-3.5704,-3.5704,-3.5704,-3.5704,-3.5704,-3.5704,-3.5715,-3.5618,-3.5241,-3.4487,-3.4419,-3.4236,-3.4023,-3.4274,-3.4738,-3.5144,-3.5232,-3.5377,-3.5635,-3.5441,-3.5422,-3.5732,-3.5791,-3.5807,-3.5803,-3.583,-3.5845,-3.582,-3.5424,-3.5198,-3.5196,-3.4419,-3.3807,-3.3361,-3.3,-3.263,-3.2088,-3.1293,-3.0845,-3.079,-3.0801,-3.0794,-3.0799,-3.0821,-3.0841,-3.086,-3.0841,-3.0841,-3.0841,-3.086,-3.125,-3.1777,-3.1758,-3.1463,-3.1443,-3.1038,-3.0964,-3.0914,-3.0917,-3.0918,-3.0915,-3.0914,-3.0915,-3.0918,-3.0918,-3.0918,-3.0918,-3.0917,-3.0914,-3.0921,-3.0899,-3.0899,-3.088,-3.0886,-3.0884,-3.088,-3.086,-3.086,-3.0841,-3.0819,-3.0816,-3.0794,-3.0804,-3.0785,-3.0788,-3.0785,-3.0798,-3.0798,-3.0798,-3.0785,-3.0794,-3.0788,-3.0788,-3.0796,-3.0801,-3.0801,-3.0645,-3.0372,-3.0177,-3.5897,-3.5879,-3.5897,-3.5844,-3.5807,-3.5803,-3.5805,-3.5678,-3.501,-3.5195,-3.5494,-3.4891,-3.519,-3.5588,-3.5704,-3.5704,-3.5704,-3.5704,-3.5704,-3.5704,-3.5704,-3.554,-3.5454,-3.5291,-3.4797,-3.4139,-3.4081,-3.3761,-3.3604,-3.394,-3.4473,-3.4686,-3.4764,-3.5247,-3.5507,-3.5185,-3.5166,-3.5729,-3.5815,-3.5823,-3.583,-3.5872,-3.5892,-3.5866,-3.5567,-3.5457,-3.5271,-3.4661,-3.4024,-3.3418,-3.2572,-3.2175,-3.1902,-3.132,-3.0801,-3.0788,-3.0807,-3.0819,-3.0825,-3.0862,-3.0899,-3.0919,-3.0903,-3.0901,-3.0901,-3.094,-3.1331,-3.1777,-3.197,-3.1895,-3.1875,-3.1315,-3.0952,-3.0918,-3.0913,-3.0923,-3.0919,-3.0919,-3.0923,-3.0907,-3.0914,-3.0914,-3.0914,-3.0913,-3.0907,-3.0901,-3.0899,-3.088,-3.086,-3.086,-3.086,-3.088,-3.088,-3.086,-3.0858,-3.0819,-3.0799,-3.0796,-3.0791,-3.0791,-3.0794,-3.0791,-3.0788,-3.0788,-3.0788,-3.0791,-3.0791,-3.0791,-3.0794,-3.0799,-3.0587,-3.0353,-3.0118,-2.9884,-2.963,-3.5889,-3.5898,-3.5885,-3.5846,-3.5776,-3.5801,-3.5766,-3.5715,-3.5416,-3.5551,-3.5637,-3.5491,-3.5317,-3.5684,-3.5684,-3.5684,-3.5665,-3.5607,-3.5588,-3.5588,-3.5491,-3.5203,-3.4701,-3.4749,-3.3906,-3.2867,-3.3098,-3.3475,-3.3203,-3.3448,-3.4323,-3.5266,-3.5499,-3.569,-3.5694,-3.5626,-3.5548,-3.5772,-3.5845,-3.5878,-3.5878,-3.5885,-3.5898,-3.5839,-3.5424,-3.5129,-3.4837,-3.4164,-3.3528,-3.3337,-3.2547,-3.2215,-3.2017,-3.1373,-3.0924,-3.0807,-3.0855,-3.0886,-3.0874,-3.0909,-3.0921,-3.0923,-3.0911,-3.0912,-3.0907,-3.0946,-3.126,-3.1723,-3.1955,-3.1821,-3.1151,-3.0996,-3.0937,-3.0918,-3.0918,-3.0918,-3.0925,-3.0919,-3.0903,-3.0909,-3.0909,-3.0907,-3.0889,-3.0889,-3.0884,-3.0882,-3.088,-3.0841,-3.0821,-3.0841,-3.086,-3.088,-3.088,-3.088,-3.088,-3.0821,-3.0799,-3.0799,-3.0796,-3.0816,-3.0819,-3.0799,-3.0796,-3.0813,-3.081,-3.081,-3.081,-3.0774,-3.066,-3.0548,-3.0196,-2.9808,-2.9474,-2.9142,-2.8715,-3.5371,-3.4672,-3.5464,-3.5293,-3.4714,-3.5398,-3.5465,-3.4977,-3.458,-3.4881,-3.5074,-3.4436,-3.4513,-3.5259,-3.5162,-3.5259,-3.551,-3.5151,-3.5055,-3.4997,-3.4554,-3.4216,-3.3895,-3.4196,-3.3352,-3.2737,-3.3169,-3.3351,-3.2792,-3.3584,-3.4357,-3.5006,-3.5551,-3.5811,-3.5833,-3.5846,-3.5866,-3.5859,-3.5885,-3.5892,-3.5898,-3.5891,-3.5883,-3.5747,-3.5582,-3.5364,-3.5197,-3.4542,-3.4105,-3.3916,-3.3258,-3.2868,-3.2478,-3.1948,-3.1265,-3.095,-3.0901,-3.0911,-3.0917,-3.0913,-3.0911,-3.0921,-3.0909,-3.0913,-3.0914,-3.0955,-3.1113,-3.1367,-3.1484,-3.1344,-3.0976,-3.0918,-3.0918,-3.0918,-3.0918,-3.0918,-3.0911,-3.0923,-3.0905,-3.0889,-3.0866,-3.0864,-3.0847,-3.0845,-3.086,-3.086,-3.086,-3.0821,-3.0801,-3.0821,-3.086,-3.088,-3.0901,-3.0901,-3.088,-3.0841,-3.0801,-3.0801,-3.0821,-3.0841,-3.0841,-3.0843,-3.0841,-3.0858,-3.0855,-3.0696,-3.064,-3.0545,-3.0411,-3.016,-2.9498,-2.8953,-2.8715,-2.8381,-2.7895,-3.4574,-3.342,-3.4918,-3.4734,-3.3824,-3.5059,-3.5347,-3.458,-3.4028,-3.4386,-3.5027,-3.3721,-3.3856,-3.493,-3.5027,-3.4911,-3.5231,-3.4513,-3.4417,-3.407,-3.3597,-3.316,-3.3186,-3.3525,-3.3281,-3.1988,-3.3254,-3.3612,-3.2982,-3.3774,-3.452,-3.5092,-3.5604,-3.5833,-3.5892,-3.5897,-3.5885,-3.5898,-3.5892,-3.5879,-3.5897,-3.5894,-3.5885,-3.5894,-3.5953,-3.5947,-3.5814,-3.5326,-3.483,-3.4446,-3.3846,-3.3261,-3.301,-3.2329,-3.1585,-3.1038,-3.093,-3.0913,-3.0916,-3.0917,-3.0916,-3.0911,-3.0907,-3.0913,-3.0918,-3.0918,-3.0937,-3.0918,-3.0937,-3.0976,-3.0918,-3.0918,-3.0918,-3.0918,-3.0918,-3.0918,-3.0915,-3.0909,-3.0899,-3.0862,-3.0841,-3.0821,-3.0823,-3.0843,-3.086,-3.0841,-3.0841,-3.0841,-3.0821,-3.086,-3.088,-3.0901,-3.0903,-3.0903,-3.0903,-3.086,-3.0841,-3.0841,-3.086,-3.0882,-3.0903,-3.0903,-3.0882,-3.0821,-3.0467,-3.0309,-3.0311,-3.0255,-3.006,-2.9593,-2.8701,-2.8136,-2.7917,-2.7444,-2.6878,-3.3543,-3.3366,-3.4321,-3.454,-3.4298,-3.5204,-3.5611,-3.5356,-3.5113,-3.4949,-3.4698,-3.4833,-3.4659,-3.4698,-3.5259,-3.4651,-3.4012,-3.3924,-3.3819,-3.3335,-3.3022,-3.2563,-3.2276,-3.2959,-3.2423,-3.1557,-3.273,-3.3293,-3.3204,-3.3971,-3.4911,-3.5429,-3.5638,-3.5846,-3.571,-3.5683,-3.5878,-3.5852,-3.5819,-3.5825,-3.585,-3.5846,-3.589,-3.5909,-3.5884,-3.5892,-3.5802,-3.547,-3.5201,-3.4566,-3.3844,-3.3063,-3.2287,-3.1495,-3.1103,-3.0925,-3.0909,-3.0915,-3.0918,-3.0918,-3.0918,-3.0915,-3.0917,-3.0918,-3.0918,-3.0918,-3.0918,-3.0918,-3.0918,-3.0918,-3.0918,-3.0918,-3.0918,-3.0918,-3.0918,-3.0918,-3.0918,-3.0912,-3.0903,-3.088,-3.086,-3.0841,-3.0821,-3.086,-3.088,-3.0841,-3.0821,-3.0821,-3.0841,-3.0862,-3.0886,-3.0909,-3.0923,-3.0923,-3.0905,-3.0882,-3.0864,-3.0862,-3.0882,-3.0921,-3.0925,-3.0907,-3.0808,-3.065,-3.0238,-2.9947,-2.9933,-2.9855,-2.9652,-2.893,-2.792,-2.7432,-2.7134,-2.6568,-2.6065,-3.1851,-3.1941,-3.3266,-3.32,-3.2535,-3.4177,-3.4367,-3.3807,-3.4475,-3.4687,-3.4369,-3.4156,-3.3982,-3.3886,-3.4582,-3.4292,-3.3286,-3.3083,-3.2841,-3.2419,-3.2074,-3.1615,-3.1525,-3.2004,-3.1751,-3.1467,-3.222,-3.2907,-3.316,-3.3854,-3.4853,-3.51,-3.5561,-3.5554,-3.5235,-3.5162,-3.4851,-3.4714,-3.4856,-3.5154,-3.5339,-3.5661,-3.5919,-3.5899,-3.5486,-3.5298,-3.5181,-3.4716,-3.4426,-3.3902,-3.3512,-3.3295,-3.2734,-3.2118,-3.1613,-3.1624,-3.1138,-3.0931,-3.0918,-3.0915,-3.0934,-3.0934,-3.0937,-3.0918,-3.0918,-3.0937,-3.0937,-3.0918,-3.0918,-3.0937,-3.0937,-3.0918,-3.0918,-3.0918,-3.0918,-3.0918,-3.0918,-3.0918,-3.0909,-3.0905,-3.0882,-3.086,-3.0821,-3.0841,-3.086,-3.0841,-3.0821,-3.0821,-3.0825,-3.0849,-3.0892,-3.0915,-3.0911,-3.0923,-3.0925,-3.0905,-3.0889,-3.0889,-3.0901,-3.0923,-3.0907,-3.0868,-3.0657,-3.0322,-2.9865,-2.9658,-2.9568,-2.8964,-2.8337,-2.7729,-2.71,-2.6768,-2.6457,-2.625,-2.5839,-3.0698,-3.0858,-3.2496,-3.2294,-3.1133,-3.342,-3.3589,-3.245,-3.3719,-3.4107,-3.3654,-3.3112,-3.2832,-3.3006,-3.3577,-3.348,-3.2435,-3.2067,-3.179,-3.1441,-3.1066,-3.0826,-3.1059,-3.1506,-3.1584,-3.0736,-3.2091,-3.2357,-3.2364,-3.3031,-3.392,-3.4288,-3.4736,-3.4806,-3.4467,-3.4282,-3.4053,-3.3717,-3.4062,-3.4301,-3.4467,-3.4924,-3.5186,-3.5096,-3.4775,-3.4371,-3.427,-3.388,-3.3473,-3.307,-3.3055,-3.2838,-3.2404,-3.1867,-3.1598,-3.1534,-3.1122,-3.0925,-3.0913,-3.0931,-3.1023,-3.12,-3.1426,-3.166,-3.1289,-3.1211,-3.123,-3.1328,-3.0976,-3.1055,-3.1133,-3.1113,-3.0918,-3.0918,-3.0918,-3.0918,-3.0918,-3.0918,-3.0918,-3.0903,-3.088,-3.086,-3.0841,-3.0821,-3.0821,-3.0821,-3.0821,-3.0821,-3.0845,-3.087,-3.0875,-3.0918,-3.0918,-3.0918,-3.0923,-3.0907,-3.0912,-3.084,-3.084,-3.084,-3.0781,-3.0527,-3.0233,-2.9857,-2.9355,-2.8766,-2.8281,-2.7597,-2.6991,-2.6933,-2.6758,-2.615,-2.58,-2.5699,-2.5689,-3.0704,-3.0836,-3.2485,-3.2568,-3.1748,-3.3626,-3.3826,-3.2779,-3.3815,-3.343,-3.2464,-3.2058,-3.2193,-3.2261,-3.2715,-3.2443,-3.0975,-3.1609,-3.1402,-3.1025,-3.0729,-3.0717,-3.095,-3.13,-3.1513,-3.0963,-3.1676,-3.1598,-3.1298,-3.1927,-3.275,-3.3359,-3.3774,-3.3624,-3.3424,-3.3301,-3.3232,-3.3033,-3.334,-3.3448,-3.3516,-3.37,-3.3785,-3.3757,-3.3607,-3.3476,-3.3492,-3.3219,-3.2851,-3.2237,-3.2242,-3.2027,-3.1573,-3.1306,-3.1211,-3.1133,-3.1074,-3.0907,-3.0907,-3.109,-3.1421,-3.2022,-3.2519,-3.2559,-3.1914,-3.2012,-3.207,-3.1777,-3.1172,-3.125,-3.1426,-3.1484,-3.0996,-3.0918,-3.0918,-3.0918,-3.0918,-3.0918,-3.0898,-3.0898,-3.0882,-3.0884,-3.0882,-3.0862,-3.0864,-3.0864,-3.086,-3.088,-3.0884,-3.0889,-3.0896,-3.0918,-3.0918,-3.0918,-3.0918,-3.0888,-3.0817,-3.0625,-3.0508,-3.0527,-3.0547,-3.0215,-2.959,-2.9023,-2.8418,-2.7715,-2.7122,-2.6789,-2.6612,-2.669,-2.6458,-2.5936,-2.5702,-2.5694,-2.5703,-3.0695,-3.0816,-3.1934,-3.1872,-3.1139,-3.23,-3.2319,-3.1871,-3.2949,-3.3283,-3.2571,-3.26,-3.2357,-3.2115,-3.2094,-3.182,-3.0847,-3.0959,-3.0925,-3.0831,-3.071,-3.0704,-3.0886,-3.0963,-3.1002,-3.0847,-3.1112,-3.1176,-3.0939,-3.1256,-3.1349,-3.1919,-3.2757,-3.2898,-3.2751,-3.2198,-3.1952,-3.2056,-3.2338,-3.2608,-3.2709,-3.3181,-3.3383,-3.3392,-3.2748,-3.2658,-3.2545,-3.2092,-3.1721,-3.1493,-3.1444,-3.1211,-3.1016,-3.0937,-3.0918,-3.0918,-3.0918,-3.0912,-3.1062,-3.1384,-3.2089,-3.2751,-3.318,-3.3043,-3.2265,-3.2187,-3.1855,-3.1484,-3.1152,-3.1211,-3.1191,-3.1113,-3.0918,-3.0918,-3.0918,-3.0918,-3.0918,-3.0918,-3.0918,-3.0898,-3.0898,-3.0911,-3.0907,-3.0903,-3.0907,-3.0909,-3.0923,-3.0919,-3.0923,-3.0909,-3.0915,-3.0918,-3.0918,-3.0918,-3.0918,-3.082,-3.0684,-3.043,-3.0156,-2.9961,-2.9805,-2.9258,-2.8652,-2.8086,-2.7598,-2.7012,-2.6573,-2.629,-2.6191,-2.6234,-2.6115,-2.5802,-2.5703,-2.5703,-2.5696,-3.0673,-3.0742,-3.1288,-3.1167,-3.0743,-3.1458,-3.1323,-3.0917,-3.2111,-3.275,-3.2724,-3.2511,-3.2104,-3.1648,-3.151,-3.1313,-3.0797,-3.0758,-3.0727,-3.071,-3.0704,-3.0698,-3.0704,-3.073,-3.0808,-3.0748,-3.0759,-3.0789,-3.0799,-3.0799,-3.0925,-3.1319,-3.1893,-3.2006,-3.1757,-3.1164,-3.0788,-3.0989,-3.1298,-3.1721,-3.1822,-3.2193,-3.2553,-3.2483,-3.1975,-3.1797,-3.1669,-3.1356,-3.1145,-3.103,-3.0996,-3.0957,-3.0918,-3.0918,-3.0918,-3.0918,-3.0918,-3.0918,-3.111,-3.1696,-3.2422,-3.2734,-3.3239,-3.2906,-3.2419,-3.2187,-3.1953,-3.1543,-3.1172,-3.0976,-3.1074,-3.1152,-3.0957,-3.0918,-3.0918,-3.0918,-3.0918,-3.0918,-3.0918,-3.0918,-3.0918,-3.0914,-3.0907,-3.0923,-3.0909,-3.0911,-3.0925,-3.0921,-3.0921,-3.0909,-3.0915,-3.0918,-3.0918,-3.0918,-3.0918,-3.0527,-3.0156,-2.9902,-2.957,-2.9062,-2.873,-2.8234,-2.7876,-2.75,-2.6992,-2.6406,-2.6119,-2.5969,-2.5852,-2.5761,-2.5698,-2.5693,-2.569,-2.569,-2.5707,-3.061,-3.0615,-3.0655,-3.0656,-3.0694,-3.1448,-3.1284,-3.0665,-3.1478,-3.1912,-3.182,-3.1255,-3.0944,-3.0836,-3.0909,-3.0826,-3.0768,-3.071,-3.0703,-3.071,-3.0698,-3.0698,-3.0724,-3.073,-3.0748,-3.0778,-3.0784,-3.0799,-3.0793,-3.0784,-3.0789,-3.0798,-3.1133,-3.1176,-3.088,-3.0833,-3.0788,-3.0819,-3.0891,-3.0967,-3.1045,-3.1201,-3.1309,-3.1315,-3.1239,-3.1161,-3.1104,-3.1032,-3.0918,-3.0918,-3.0918,-3.0918,-3.0918,-3.0918,-3.0918,-3.0918,-3.0918,-3.0918,-3.0976,-3.1738,-3.2148,-3.2519,-3.3164,-3.2967,-3.2373,-3.2148,-3.2051,-3.1562,-3.1269,-3.1328,-3.1445,-3.1426,-3.1074,-3.0918,-3.0918,-3.0918,-3.0918,-3.0918,-3.0918,-3.0918,-3.0918,-3.0917,-3.0909,-3.0921,-3.0911,-3.0911,-3.0905,-3.0923,-3.0921,-3.0905,-3.0914,-3.0918,-3.0918,-3.0918,-3.0781,-3.0078,-2.9648,-2.9394,-2.8906,-2.8262,-2.7772,-2.7359,-2.7041,-2.6856,-2.6501,-2.6015,-2.5852,-2.5723,-2.5707,-2.569,-2.569,-2.5707,-2.5697,-2.5694,-2.5691,-3.0613,-3.0615,-3.0598,-3.0617,-3.0636,-3.0878,-3.081,-3.0643,-3.0903,-3.1045,-3.1018,-3.0741,-3.0703,-3.071,-3.0711,-3.0704,-3.0704,-3.0697,-3.0703,-3.07,-3.0698,-3.0748,-3.0753,-3.0753,-3.0764,-3.0789,-3.0794,-3.0799,-3.0784,-3.0784,-3.0789,-3.0798,-3.079,-3.0794,-3.0798,-3.0788,-3.0799,-3.0819,-3.0858,-3.0894,-3.0855,-3.0855,-3.088,-3.0907,-3.0912,-3.0918,-3.0918,-3.0918,-3.0918,-3.0918,-3.0918,-3.0918,-3.0918,-3.0918,-3.0918,-3.0918,-3.0917,-3.0914,-3.0937,-3.1328,-3.1914,-3.2559,-3.2949,-3.2832,-3.2305,-3.2207,-3.1934,-3.1523,-3.1172,-3.1152,-3.1113,-3.1113,-3.0918,-3.0918,-3.0918,-3.0918,-3.0918,-3.0918,-3.0918,-3.0918,-3.0918,-3.0918,-3.0907,-3.0919,-3.0905,-3.0907,-3.0923,-3.0923,-3.0923,-3.0925,-3.0912,-3.0915,-3.0918,-3.0918,-3.0664,-2.9902,-2.9219,-2.8867,-2.8105,-2.7207,-2.6757,-2.6539,-2.636,-2.6232,-2.5969,-2.5704,-2.5694,-2.5687,-2.5691,-2.5691,-2.5697,-2.5697,-2.5687,-2.5683,-2.5699,-3.0615,-3.0615,-3.0598,-3.0608,-3.0617,-3.0607,-3.0615,-3.0621,-3.0637,-3.063,-3.0665,-3.0685,-3.0704,-3.0698,-3.071,-3.0703,-3.0697,-3.0704,-3.0704,-3.0695,-3.071,-3.0739,-3.0774,-3.0794,-3.0794,-3.0799,-3.0804,-3.0784,-3.0789,-3.0789,-3.0798,-3.0786,-3.0798,-3.0801,-3.0785,-3.0791,-3.0799,-3.0819,-3.0838,-3.0862,-3.0884,-3.0905,-3.0907,-3.0913,-3.0918,-3.0918,-3.0918,-3.0918,-3.0918,-3.0917,-3.0917,-3.0918,-3.0917,-3.0918,-3.0918,-3.0918,-3.0916,-3.0913,-3.0918,-3.0937,-3.1523,-3.2168,-3.2519,-3.2285,-3.1855,-3.166,-3.1426,-3.1113,-3.0937,-3.0918,-3.0937,-3.0918,-3.0918,-3.0918,-3.0918,-3.0918,-3.0918,-3.0918,-3.0918,-3.0918,-3.0918,-3.0918,-3.0911,-3.0923,-3.0921,-3.0921,-3.0919,-3.0923,-3.0907,-3.0907,-3.0911,-3.0898,-3.0884,-3.0868,-3.0446,-2.9629,-2.8984,-2.8398,-2.744,-2.6424,-2.6188,-2.6026,-2.5828,-2.5703,-2.5704,-2.5703,-2.5671,-2.5667,-2.5675,-2.5683,-2.5707,-2.5683,-2.5675,-2.5671,-2.5667,-3.0615,-3.0615,-3.0607,-3.0608,-3.0607,-3.0606,-3.064,-3.0707,-3.0711,-3.0697,-3.0697,-3.0704,-3.0704,-3.0703,-3.0703,-3.0709,-3.0709,-3.0703,-3.0722,-3.0722,-3.0725,-3.0755,-3.0779,-3.0799,-3.0784,-3.0784,-3.0784,-3.0793,-3.0802,-3.0802,-3.0786,-3.0798,-3.0788,-3.0807,-3.0807,-3.0813,-3.0819,-3.0841,-3.0841,-3.0864,-3.0888,-3.0913,-3.0915,-3.0917,-3.0918,-3.0918,-3.0918,-3.0918,-3.0915,-3.0914,-3.0915,-3.0913,-3.0913,-3.0916,-3.0918,-3.0918,-3.0918,-3.0915,-3.0912,-3.0917,-3.0937,-3.1367,-3.1211,-3.0996,-3.1035,-3.1152,-3.1055,-3.0996,-3.0917,-3.0917,-3.0918,-3.0918,-3.0918,-3.0918,-3.0918,-3.0918,-3.0918,-3.0918,-3.0918,-3.0918,-3.0918,-3.0917,-3.0917,-3.0913,-3.0907,-3.0923,-3.0909,-3.0917,-3.0917,-3.0911,-3.0895,-3.0839,-3.0836,-3.0804,-3.0226,-2.9372,-2.8768,-2.8182,-2.6884,-2.5922,-2.5724,-2.5705,-2.5701,-2.5687,-2.5699,-2.5678,-2.5658,-2.5643,-2.5675,-2.5675,-2.5675,-2.5656,-2.5628,-2.5634,-2.563,-3.0606,-3.0607,-3.0598,-3.0608,-3.0617,-3.0657,-3.0673,-3.0715,-3.0695,-3.0698,-3.0703,-3.0748,-3.0753,-3.0778,-3.0764,-3.0769,-3.0769,-3.0769,-3.0769,-3.0774,-3.0765,-3.0779,-3.0804,-3.0789,-3.0793,-3.0802,-3.0802,-3.0802,-3.079,-3.0794,-3.0798,-3.0788,-3.081,-3.083,-3.0838,-3.0864,-3.0864,-3.0862,-3.0862,-3.0882,-3.0889,-3.0914,-3.0917,-3.0917,-3.0914,-3.0912,-3.0911,-3.0914,-3.0913,-3.0917,-3.0911,-3.0907,-3.0917,-3.0918,-3.0918,-3.0918,-3.0918,-3.0918,-3.0918,-3.0912,-3.0913,-3.0918,-3.0918,-3.0918,-3.0918,-3.0918,-3.0918,-3.0918,-3.0918,-3.0917,-3.0916,-3.0918,-3.0918,-3.0918,-3.0918,-3.0918,-3.0915,-3.0912,-3.0912,-3.0914,-3.0915,-3.0918,-3.0918,-3.0918,-3.0915,-3.0912,-3.0915,-3.0917,-3.0818,-3.0781,-3.0683,-3.0605,-3.0487,-3.0378,-2.9865,-2.907,-2.8528,-2.7866,-2.6622,-2.5749,-2.5693,-2.5693,-2.5704,-2.5687,-2.5658,-2.5634,-2.5619,-2.5624,-2.5648,-2.5624,-2.5624,-2.5624,-2.56,-2.56,-2.5609,-3.0604,-3.0634,-3.0607,-3.0616,-3.0649,-3.0664,-3.0697,-3.0703,-3.0704,-3.071,-3.0734,-3.0784,-3.0789,-3.0789,-3.0794,-3.0799,-3.0779,-3.0779,-3.0799,-3.0804,-3.0802,-3.079,-3.079,-3.0782,-3.079,-3.0794,-3.0794,-3.079,-3.0798,-3.0804,-3.0788,-3.0836,-3.0833,-3.0855,-3.088,-3.0903,-3.0909,-3.0909,-3.0909,-3.0923,-3.0905,-3.0911,-3.0913,-3.0914,-3.0905,-3.0923,-3.0919,-3.0907,-3.0912,-3.0914,-3.0921,-3.0923,-3.0915,-3.0918,-3.0918,-3.0918,-3.0918,-3.0918,-3.0918,-3.0918,-3.0916,-3.0918,-3.0918,-3.0918,-3.0918,-3.0918,-3.0918,-3.0918,-3.0918,-3.0918,-3.0916,-3.0918,-3.0918,-3.0918,-3.0918,-3.0918,-3.0907,-3.0921,-3.0921,-3.0923,-3.0913,-3.0918,-3.0917,-3.0918,-3.0918,-3.0918,-3.0918,-3.0912,-3.0673,-3.0403,-3.0249,-3.0131,-2.9973,-2.983,-2.9281,-2.8808,-2.8305,-2.7645,-2.662,-2.5927,-2.5785,-2.5681,-2.5675,-2.5652,-2.5625,-2.5605,-2.5586,-2.561,-2.5615,-2.5591,-2.5586,-2.56,-2.5595,-2.5599,-2.5607,-3.0637,-3.0692,-3.0634,-3.066,-3.069,-3.0704,-3.0703,-3.0703,-3.071,-3.0742,-3.0794,-3.0794,-3.0794,-3.0799,-3.0784,-3.0784,-3.0784,-3.0784,-3.0789,-3.0784,-3.0801,-3.0794,-3.081,-3.0791,-3.0804,-3.0801,-3.0801,-3.0801,-3.0824,-3.0827,-3.0855,-3.088,-3.0897,-3.0916,-3.0919,-3.0921,-3.0909,-3.0917,-3.0915,-3.0911,-3.0921,-3.0919,-3.0919,-3.0921,-3.0905,-3.0909,-3.0921,-3.0919,-3.0919,-3.0919,-3.0919,-3.0919,-3.0911,-3.0918,-3.0918,-3.0918,-3.0918,-3.0918,-3.0918,-3.0918,-3.0918,-3.0918,-3.0918,-3.0918,-3.0918,-3.0918,-3.0918,-3.0918,-3.0918,-3.0918,-3.0918,-3.0918,-3.0916,-3.0915,-3.0911,-3.0905,-3.0923,-3.0921,-3.0907,-3.0909,-3.0911,-3.0918,-3.0916,-3.0917,-3.0914,-3.0916,-3.0914,-3.0921,-3.0431,-3.0023,-2.9828,-2.9613,-2.9088,-2.8912,-2.8891,-2.8457,-2.8067,-2.7362,-2.6457,-2.5983,-2.574,-2.5691,-2.566,-2.5634,-2.5604,-2.5579,-2.5579,-2.5585,-2.5571,-2.5571,-2.5565,-2.5574,-2.5582,-2.5589,-2.5577,-3.061,-3.061,-3.066,-3.0684,-3.0697,-3.071,-3.0714,-3.0769,-3.0778,-3.0706,-3.0779,-3.0779,-3.0799,-3.0784,-3.0793,-3.0793,-3.0793,-3.0793,-3.0798,-3.0794,-3.0794,-3.0838,-3.0858,-3.0833,-3.083,-3.083,-3.083,-3.083,-3.0875,-3.0877,-3.0882,-3.0909,-3.0905,-3.0921,-3.0921,-3.0921,-3.0911,-3.0918,-3.0918,-3.0918,-3.0921,-3.0919,-3.0919,-3.0899,-3.0903,-3.0903,-3.0899,-3.0919,-3.0919,-3.0919,-3.0919,-3.0907,-3.0917,-3.0918,-3.0918,-3.0918,-3.0918,-3.0918,-3.0918,-3.0918,-3.0918,-3.0918,-3.0918,-3.0918,-3.0918,-3.0918,-3.0918,-3.0918,-3.0918,-3.0918,-3.0918,-3.0918,-3.0914,-3.0909,-3.0923,-3.0921,-3.0919,-3.0907,-3.0913,-3.0913,-3.0912,-3.0917,-3.0917,-3.0913,-3.0909,-3.0905,-3.0925,-3.0723,-2.9943,-2.9455,-2.9377,-2.9008,-2.8012,-2.7778,-2.7991,-2.8008,-2.7576,-2.7142,-2.6353,-2.5974,-2.5714,-2.5656,-2.5634,-2.5634,-2.5607,-2.5582,-2.5556,-2.5531,-2.5537,-2.5543,-2.5549,-2.5556,-2.5544,-2.5551,-2.5538,-3.0645,-3.0653,-3.068,-3.0707,-3.0639,-3.0314,-3.021,-3.0156,-2.982,-2.9645,-2.9825,-3.037,-3.0784,-3.0769,-3.0798,-3.0782,-3.0782,-3.0802,-3.0798,-3.0794,-3.0816,-3.0858,-3.0877,-3.0877,-3.0864,-3.0864,-3.0858,-3.0858,-3.0905,-3.0911,-3.0913,-3.0912,-3.0907,-3.0912,-3.0912,-3.0913,-3.0918,-3.0918,-3.0918,-3.0918,-3.0921,-3.0919,-3.0919,-3.0899,-3.088,-3.088,-3.0899,-3.0919,-3.0919,-3.0919,-3.0919,-3.0911,-3.0918,-3.0918,-3.0918,-3.0918,-3.0918,-3.0918,-3.0918,-3.0918,-3.0918,-3.0918,-3.0918,-3.0918,-3.0918,-3.0918,-3.0918,-3.0918,-3.0918,-3.0918,-3.0918,-3.0918,-3.0918,-3.0907,-3.0921,-3.0919,-3.0925,-3.0912,-3.0915,-3.0917,-3.0917,-3.0917,-3.0918,-3.0917,-3.0914,-3.0901,-3.0899,-3.0782,-2.9982,-2.8791,-2.8752,-2.844,-2.7425,-2.7093,-2.7425,-2.7344,-2.7008,-2.6571,-2.6188,-2.5917,-2.5667,-2.563,-2.5604,-2.549,-2.5473,-2.5538,-2.5512,-2.5402,-2.5499,-2.557,-2.555,-2.555,-2.5531,-2.5525,-2.5518,-3.0319,-3.0379,-3.036,-3.0341,-3.0296,-2.9654,-2.9347,-2.921,-2.8567,-2.8271,-2.8505,-2.981,-3.0423,-3.0622,-3.063,-3.0708,-3.0774,-3.0824,-3.0817,-3.082,-3.0877,-3.0901,-3.0903,-3.0905,-3.0891,-3.0894,-3.0892,-3.0892,-3.0914,-3.0917,-3.0917,-3.0912,-3.0915,-3.0918,-3.0918,-3.0918,-3.0918,-3.0918,-3.0918,-3.0918,-3.0907,-3.0919,-3.0919,-3.0899,-3.086,-3.086,-3.0899,-3.0921,-3.0921,-3.0919,-3.0921,-3.0907,-3.0915,-3.0918,-3.0918,-3.0918,-3.0918,-3.0918,-3.0918,-3.0918,-3.0918,-3.0918,-3.0918,-3.0918,-3.0918,-3.0918,-3.0918,-3.0918,-3.0918,-3.0918,-3.0918,-3.0918,-3.0918,-3.0907,-3.0925,-3.0923,-3.0911,-3.0918,-3.0898,-3.0879,-3.0781,-3.0781,-3.0684,-3.0703,-3.0721,-3.073,-3.0704,-3.0645,-3.0157,-2.8711,-2.7871,-2.7559,-2.6874,-2.6759,-2.6839,-2.6735,-2.6454,-2.6328,-2.6002,-2.5799,-2.5634,-2.5593,-2.5465,-2.524,-2.526,-2.5389,-2.5273,-2.5111,-2.5266,-2.548,-2.5195,-2.5118,-2.5531,-2.5525,-2.5531,-2.8585,-2.8611,-2.865,-2.8689,-2.8683,-2.8501,-2.845,-2.8439,-2.8264,-2.8209,-2.8166,-2.8439,-2.9067,-2.973,-2.9748,-2.9985,-3.059,-3.0643,-3.079,-3.0871,-3.0718,-3.0811,-3.0888,-3.0832,-3.0897,-3.0918,-3.0918,-3.0918,-3.0918,-3.0917,-3.0913,-3.0913,-3.0918,-3.0917,-3.0911,-3.0918,-3.0918,-3.0918,-3.0916,-3.0911,-3.0912,-3.0907,-3.0919,-3.088,-3.0821,-3.086,-3.0901,-3.0907,-3.0911,-3.0911,-3.0905,-3.0905,-3.0911,-3.0918,-3.0918,-3.0918,-3.0918,-3.0918,-3.0918,-3.0918,-3.0918,-3.0918,-3.0918,-3.0918,-3.0918,-3.0918,-3.0918,-3.0918,-3.0918,-3.0918,-3.0918,-3.0918,-3.0918,-3.0918,-3.0912,-3.0914,-3.0916,-3.0898,-3.0879,-3.0586,-3.0273,-3.0098,-2.9844,-2.9843,-2.9842,-2.9853,-2.9847,-2.975,-2.9235,-2.8142,-2.711,-2.6757,-2.6384,-2.6032,-2.5954,-2.6116,-2.597,-2.5901,-2.587,-2.5707,-2.5599,-2.5544,-2.5396,-2.5221,-2.5163,-2.5253,-2.5105,-2.4897,-2.5027,-2.5118,-2.4652,-2.4587,-2.5163,-2.5544,-2.5551]}]]